[[{"header":{"parameterUnit":"m.s-1","parameterCategory":1,"la1":30.6,"la2":29.2853,"lo1":-89.7004,"lo2":-87.6739,"dx":0.0162,"dy":0.0183,"nx":112,"ny":82,"refTime":"2023-02-02T06:00:00:Z","depth":0,"parameterNumber":2,"parameterNumberName":"U-component_of_WINDS"},"data":[0.0,0.0,0.0,0.0,0.0,0.0,0.0,0.0,0.0,0.0,0.0,0.0,0.0,0.0,0.0,0.0,0.0,0.0,0.0,0.0,0.0,0.0,0.0,0.0,0.0,0.0,0.0,0.0,0.0,0.0,0.0,0.0,0.0,0.0,0.0,0.0,0.0,0.0,0.0,0.0,0.0,0.0,0.0,0.0,0.0,0.0,0.0,0.0,0.0,0.0,0.0,0.0,0.0,0.0,0.0,0.0,0.0,0.0,0.0,0.0,0.0,0.0,0.0,0.0,0.0,0.0,0.0,0.0,0.0,0.0,0.0,0.0,0.0,0.0,0.0,0.0,0.0,0.0,0.0,0.0,0.0,0.0,0.0,0.0,0.0,0.0,0.0,0.0,0.0,0.0,0.0,2.5103,2.4998,2.4918,2.4918,2.4727,2.456,2.4431,0.0,0.0,0.0,0.0,0.0,0.0,0.0,0.0,0.0,0.0,0.0,0.0,0.0,0.0,0.0,0.0,0.0,0.0,0.0,0.0,0.0,0.0,0.0,0.0,0.0,0.0,0.0,0.0,0.0,0.0,0.0,0.0,0.0,0.0,0.0,0.0,0.0,0.0,0.0,0.0,0.0,0.0,0.0,0.0,0.0,0.0,0.0,0.0,0.0,0.0,0.0,0.0,0.0,0.0,0.0,0.0,0.0,0.0,0.0,0.0,0.0,0.0,0.0,0.0,0.0,0.0,0.0,0.0,0.0,0.0,0.0,0.0,0.0,0.0,0.0,0.0,0.0,0.0,0.0,0.0,0.0,0.0,0.0,0.0,0.0,0.0,0.0,0.0,0.0,0.0,0.0,0.0,0.0,0.0,0.0,0.0,0.0,0.0,0.0,0.0,0.0,0.0,0.0,0.0,2.5834,2.6506,2.6703,2.6787,2.6787,2.6617,2.621,2.5522,0.0,0.0,0.0,0.0,0.0,0.0,0.0,0.0,0.0,0.0,0.0,0.0,0.0,0.0,0.0,0.0,0.0,0.0,0.0,0.0,0.0,0.0,0.0,0.0,0.0,0.0,0.0,0.0,0.0,0.0,0.0,0.0,0.0,0.0,0.0,0.0,0.0,0.0,0.0,0.0,0.0,0.0,0.0,0.0,0.0,0.0,0.0,0.0,0.0,0.0,0.0,0.0,0.0,0.0,0.0,0.0,0.0,0.0,0.0,0.0,0.0,0.0,0.0,0.0,0.0,0.0,0.0,0.0,0.0,0.0,0.0,0.0,0.0,0.0,0.0,0.0,0.0,0.0,0.0,0.0,0.0,0.0,0.0,0.0,0.0,0.0,0.0,0.0,0.0,0.0,0.0,0.0,0.0,0.0,0.0,0.0,0.0,0.0,0.0,0.0,0.0,0.0,0.0,2.6246,2.6334,2.6703,2.6821,2.6879,2.6879,2.6782,2.6574,2.6205,2.5755,0.0,0.0,0.0,0.0,0.0,0.0,0.0,0.0,0.0,0.0,0.0,0.0,0.0,0.0,0.0,0.0,0.0,0.0,0.0,0.0,0.0,0.0,0.0,0.0,0.0,0.0,0.0,0.0,0.0,0.0,0.0,0.0,0.0,0.0,0.0,0.0,0.0,0.0,0.0,0.0,0.0,0.0,0.0,0.0,0.0,0.0,0.0,0.0,0.0,0.0,0.0,0.0,0.0,0.0,0.0,0.0,0.0,0.0,0.0,0.0,0.0,0.0,0.0,0.0,0.0,0.0,0.0,0.0,0.0,0.0,0.0,0.0,0.0,0.0,0.0,0.0,0.0,0.0,0.0,0.0,0.0,0.0,0.0,0.0,0.0,0.0,0.0,0.0,0.0,0.0,0.0,0.0,0.0,0.0,0.0,0.0,0.0,0.0,0.0,0.0,0.0,0.0,2.6991,2.7181,2.7181,2.7181,2.7181,2.7181,2.7098,2.6984,2.6906,2.6717,0.0,0.0,0.0,0.0,0.0,0.0,0.0,0.0,0.0,0.0,0.0,0.0,0.0,0.0,0.0,0.0,0.0,0.0,0.0,0.0,0.0,0.0,0.0,0.0,0.0,0.0,0.0,0.0,0.0,0.0,0.0,0.0,0.0,0.0,0.0,0.0,0.0,0.0,0.0,0.0,0.0,0.0,0.0,0.0,0.0,0.0,0.0,0.0,0.0,0.0,0.0,0.0,0.0,0.0,0.0,0.0,0.0,0.0,0.0,0.0,0.0,0.0,0.0,0.0,0.0,0.0,0.0,0.0,0.0,0.0,0.0,0.0,0.0,0.0,0.0,0.0,0.0,0.0,0.0,0.0,0.0,0.0,0.0,0.0,0.0,0.0,0.0,0.0,0.0,0.0,0.0,0.0,0.0,0.0,0.0,0.0,0.0,0.0,0.0,0.0,0.0,0.0,2.8135,2.8828,2.8828,2.8828,2.8828,2.8828,2.8494,2.81,2.7728,2.7051,0.0,0.0,0.0,0.0,0.0,0.0,0.0,0.0,0.0,0.0,0.0,0.0,0.0,0.0,0.0,0.0,0.0,0.0,0.0,0.0,0.0,0.0,0.0,0.0,0.0,0.0,0.0,0.0,0.0,0.0,0.0,0.0,0.0,0.0,0.0,0.0,0.0,0.0,0.0,0.0,0.0,0.0,0.0,0.0,0.0,0.0,0.0,0.0,0.0,0.0,0.0,0.0,0.0,0.0,0.0,0.0,0.0,0.0,0.0,0.0,0.0,0.0,0.0,0.0,0.0,0.0,0.0,0.0,0.0,0.0,0.0,0.0,0.0,0.0,0.0,0.0,0.0,0.0,0.0,0.0,0.0,0.0,0.0,0.0,0.0,0.0,0.0,0.0,0.0,0.0,0.0,0.0,0.0,0.0,0.0,0.0,0.0,0.0,0.0,0.0,0.0,0.0,2.8031,2.8308,0.0,2.8308,2.8308,2.8308,2.8174,2.8111,2.8154,0.0,0.0,0.0,0.0,0.0,0.0,0.0,0.0,0.0,0.0,0.0,0.0,0.0,0.0,0.0,0.0,0.0,0.0,0.0,0.0,0.0,0.0,0.0,0.0,0.0,0.0,0.0,0.0,0.0,0.0,0.0,0.0,0.0,0.0,0.0,0.0,0.0,0.0,0.0,0.0,0.0,0.0,0.0,0.0,0.0,0.0,0.0,0.0,0.0,0.0,0.0,0.0,0.0,0.0,0.0,0.0,0.0,0.0,0.0,0.0,0.0,0.0,0.0,0.0,0.0,0.0,0.0,0.0,0.0,0.0,0.0,0.0,0.0,0.0,0.0,0.0,0.0,0.0,0.0,0.0,0.0,0.0,0.0,0.0,0.0,0.0,0.0,0.0,0.0,0.0,0.0,0.0,0.0,0.0,0.0,0.0,0.0,0.0,0.0,0.0,0.0,0.0,2.7725,2.7811,2.7897,0.0,2.7897,2.7897,2.7897,2.7765,2.7851,2.8237,0.0,0.0,0.0,0.0,0.0,0.0,0.0,0.0,0.0,0.0,0.0,0.0,0.0,0.0,0.0,0.0,0.0,0.0,0.0,0.0,0.0,0.0,0.0,0.0,0.0,0.0,0.0,0.0,0.0,0.0,0.0,0.0,0.0,0.0,0.0,0.0,0.0,0.0,0.0,0.0,0.0,0.0,0.0,0.0,0.0,0.0,0.0,0.0,0.0,0.0,0.0,0.0,0.0,0.0,0.0,0.0,0.0,0.0,0.0,0.0,0.0,0.0,0.0,0.0,0.0,0.0,0.0,0.0,0.0,0.0,0.0,0.0,0.0,0.0,0.0,0.0,0.0,0.0,0.0,0.0,0.0,0.0,0.0,0.0,0.0,0.0,0.0,0.0,0.0,0.0,0.0,0.0,0.0,0.0,0.0,0.0,0.0,0.0,0.0,0.0,0.0,0.0,2.7348,2.7619,2.7897,2.7897,2.7897,2.7897,2.7897,2.75,2.747,0.0,0.0,0.0,0.0,0.0,0.0,0.0,0.0,0.0,0.0,0.0,0.0,0.0,0.0,0.0,0.0,0.0,0.0,0.0,0.0,0.0,0.0,0.0,0.0,0.0,0.0,0.0,0.0,0.0,0.0,0.0,0.0,0.0,0.0,0.0,0.0,0.0,0.0,0.0,0.0,0.0,0.0,0.0,0.0,0.0,0.0,0.0,0.0,0.0,0.0,0.0,0.0,0.0,0.0,0.0,0.0,0.0,0.0,0.0,0.0,0.0,0.0,0.0,0.0,0.0,0.0,0.0,0.0,0.0,0.0,0.0,0.0,0.0,0.0,0.0,0.0,0.0,0.0,0.0,0.0,0.0,0.0,0.0,0.0,0.0,0.0,0.0,0.0,0.0,0.0,0.0,0.0,0.0,0.0,0.0,0.0,0.0,0.0,0.0,0.0,0.0,0.0,0.0,2.6906,2.7004,2.7051,2.7051,2.7051,2.7051,2.7051,2.6939,2.7051,2.7439,0.0,0.0,0.0,0.0,0.0,0.0,0.0,0.0,0.0,0.0,0.0,0.0,0.0,0.0,0.0,0.0,0.0,0.0,0.0,0.0,0.0,0.0,0.0,0.0,0.0,0.0,0.0,0.0,0.0,0.0,0.0,0.0,0.0,0.0,0.0,0.0,0.0,0.0,0.0,0.0,0.0,0.0,0.0,0.0,0.0,0.0,0.0,0.0,0.0,0.0,0.0,0.0,0.0,0.0,0.0,0.0,0.0,0.0,0.0,0.0,0.0,0.0,0.0,0.0,0.0,0.0,0.0,0.0,0.0,0.0,0.0,0.0,0.0,0.0,0.0,0.0,0.0,0.0,0.0,0.0,0.0,0.0,0.0,0.0,0.0,0.0,0.0,0.0,0.0,0.0,0.0,0.0,0.0,0.0,0.0,0.0,0.0,0.0,0.0,0.0,0.0,0.0,2.6691,2.6691,2.6691,2.6691,2.6691,2.6691,2.6691,2.6691,2.6808,2.7051,0.0,0.0,0.0,0.0,0.0,0.0,0.0,0.0,0.0,0.0,0.0,0.0,0.0,0.0,0.0,0.0,0.0,0.0,0.0,0.0,0.0,0.0,0.0,0.0,0.0,0.0,0.0,0.0,0.0,0.0,0.0,0.0,0.0,0.0,0.0,0.0,0.0,0.0,0.0,0.0,0.0,0.0,0.0,0.0,0.0,0.0,0.0,0.0,0.0,0.0,0.0,0.0,0.0,0.0,0.0,0.0,0.0,0.0,0.0,0.0,0.0,0.0,0.0,0.0,0.0,0.0,0.0,0.0,0.0,0.0,0.0,0.0,0.0,0.0,0.0,0.0,0.0,0.0,0.0,0.0,0.0,0.0,0.0,0.0,0.0,0.0,0.0,0.0,0.0,0.0,0.0,0.0,0.0,0.0,0.0,0.0,0.0,0.0,0.0,0.0,0.0,0.0,2.6911,2.6911,2.6911,2.6911,2.6911,2.6911,2.6911,2.6911,2.6911,2.6911,0.0,0.0,0.0,0.0,0.0,0.0,0.0,0.0,0.0,0.0,0.0,0.0,0.0,0.0,0.0,0.0,0.0,0.0,0.0,0.0,0.0,0.0,0.0,0.0,0.0,0.0,0.0,0.0,0.0,0.0,0.0,0.0,0.0,0.0,0.0,0.0,0.0,0.0,0.0,0.0,0.0,0.0,0.0,0.0,0.0,0.0,0.0,0.0,0.0,0.0,0.0,0.0,0.0,0.0,0.0,0.0,0.0,0.0,0.0,0.0,2.8897,0.0,0.0,0.0,0.0,0.0,0.0,0.0,0.0,0.0,0.0,0.0,0.0,0.0,0.0,0.0,0.0,0.0,0.0,0.0,0.0,0.0,0.0,0.0,0.0,0.0,0.0,0.0,0.0,0.0,0.0,0.0,0.0,0.0,0.0,0.0,0.0,0.0,0.0,0.0,0.0,0.0,2.8448,2.8501,2.8501,2.8501,2.8501,2.8501,2.8501,2.8501,2.8501,2.8501,2.8501,0.0,0.0,0.0,0.0,0.0,0.0,0.0,0.0,0.0,0.0,0.0,0.0,0.0,0.0,0.0,0.0,0.0,0.0,0.0,0.0,0.0,0.0,0.0,0.0,0.0,0.0,0.0,0.0,0.0,0.0,0.0,0.0,0.0,0.0,0.0,0.0,0.0,0.0,0.0,0.0,0.0,0.0,0.0,0.0,0.0,0.0,0.0,0.0,0.0,0.0,0.0,0.0,0.0,0.0,0.0,0.0,0.0,0.0,0.0,0.0,2.9112,0.0,0.0,0.0,0.0,0.0,0.0,0.0,0.0,0.0,0.0,0.0,0.0,0.0,0.0,0.0,0.0,0.0,0.0,0.0,0.0,0.0,0.0,0.0,0.0,0.0,0.0,0.0,0.0,0.0,0.0,0.0,0.0,0.0,0.0,0.0,0.0,0.0,0.0,0.0,0.0,2.8938,2.9011,2.9011,2.9011,2.9011,2.9011,2.9011,2.9011,2.9011,2.9011,2.9011,0.0,0.0,0.0,0.0,0.0,0.0,0.0,0.0,0.0,0.0,0.0,0.0,0.0,0.0,0.0,0.0,0.0,0.0,0.0,0.0,0.0,0.0,0.0,0.0,0.0,0.0,0.0,0.0,0.0,0.0,0.0,0.0,0.0,0.0,0.0,0.0,0.0,0.0,0.0,0.0,0.0,0.0,0.0,0.0,0.0,0.0,0.0,0.0,0.0,0.0,0.0,0.0,0.0,3.0011,3.0018,3.0094,3.0094,2.9967,2.9799,3.0155,3.0147,2.9902,2.9902,0.0,0.0,0.0,0.0,0.0,0.0,0.0,0.0,0.0,0.0,0.0,0.0,0.0,0.0,0.0,0.0,0.0,0.0,0.0,0.0,0.0,0.0,0.0,0.0,2.886,2.8609,0.0,0.0,0.0,0.0,0.0,0.0,0.0,0.0,0.0,0.0,0.0,0.0,2.916,2.9235,2.9289,2.9364,2.9364,2.9364,2.9364,2.9364,2.9364,2.9364,2.9364,2.9313,0.0,0.0,0.0,0.0,0.0,0.0,0.0,0.0,0.0,0.0,0.0,0.0,0.0,0.0,0.0,0.0,0.0,0.0,0.0,0.0,0.0,0.0,0.0,0.0,0.0,0.0,0.0,0.0,0.0,0.0,0.0,0.0,2.9874,2.9841,0.0,0.0,0.0,0.0,0.0,0.0,0.0,0.0,0.0,0.0,0.0,0.0,0.0,2.9976,3.0082,3.0021,2.9857,2.9589,2.9589,2.9765,3.0088,3.0088,3.0428,3.1002,3.1023,0.0,2.9138,2.9138,0.0,0.0,0.0,0.0,0.0,0.0,0.0,0.0,0.0,0.0,0.0,0.0,0.0,0.0,0.0,0.0,0.0,0.0,0.0,0.0,0.0,0.0,3.0769,3.0236,3.0071,2.9887,0.0,2.826,2.7326,2.7326,2.6902,0.0,0.0,0.0,0.0,0.0,0.0,0.0,2.9971,3.0154,3.0335,3.0847,3.0903,3.0903,3.0903,3.0903,3.0903,3.0903,3.0903,3.0615,2.9989,2.8936,0.0,0.0,0.0,0.0,0.0,0.0,0.0,0.0,0.0,0.0,0.0,0.0,0.0,0.0,0.0,0.0,0.0,0.0,0.0,0.0,0.0,0.0,0.0,0.0,0.0,0.0,0.0,0.0,0.0,2.9633,2.9358,2.9249,2.9142,2.8966,0.0,0.0,0.0,0.0,0.0,0.0,0.0,0.0,0.0,2.9624,2.9709,2.9946,3.0382,3.0197,3.0228,3.0475,3.0475,3.0551,3.0717,3.0717,3.0886,3.119,3.119,3.0818,3.0226,3.0226,3.0226,3.0226,0.0,0.0,0.0,0.0,3.0226,3.0226,3.0226,3.0343,0.0,3.0475,0.0,0.0,0.0,0.0,0.0,0.0,0.0,0.0,0.0,0.0,3.0518,2.9935,2.954,2.9225,2.8966,2.8124,2.752,0.0,2.7489,2.7063,2.7063,0.0,0.0,0.0,0.0,2.8826,2.9673,2.9805,2.9892,3.0166,3.0208,3.0351,3.0658,3.0699,3.0838,3.119,3.119,3.092,3.0249,2.942,2.865,0.0,0.0,0.0,0.0,0.0,0.0,0.0,0.0,0.0,0.0,0.0,0.0,0.0,0.0,0.0,0.0,0.0,0.0,0.0,0.0,0.0,0.0,0.0,0.0,0.0,0.0,0.0,0.0,2.9233,2.9017,2.887,2.8912,2.8861,0.0,0.0,0.0,0.0,0.0,0.0,2.9948,3.0044,3.0101,3.0101,2.9989,3.0193,3.0743,3.0496,3.0666,3.119,3.119,3.119,3.119,3.119,3.119,3.119,3.119,3.119,3.119,3.119,3.119,3.119,3.119,3.119,3.119,3.119,3.119,3.119,3.119,3.119,3.119,3.119,0.0,3.119,3.119,0.0,0.0,0.0,0.0,3.0518,2.9629,2.9717,2.9935,2.9316,2.8826,2.8479,2.8319,2.791,2.771,0.0,2.791,2.7625,2.7625,0.0,0.0,0.0,0.0,2.8511,2.9088,2.918,2.9225,2.9361,2.9406,2.9585,3.0038,3.0081,3.0251,3.0699,3.074,3.0518,3.0081,2.9496,2.8966,2.8511,0.0,0.0,0.0,0.0,0.0,0.0,0.0,0.0,0.0,0.0,0.0,0.0,0.0,0.0,0.0,0.0,0.0,0.0,0.0,0.0,0.0,0.0,0.0,0.0,0.0,0.0,0.0,0.0,0.0,2.8989,2.9614,0.0,0.0,0.0,0.0,3.0021,2.942,2.9193,2.9522,2.9894,3.0116,3.0116,3.0755,3.1128,3.1162,3.114,3.1157,3.119,3.119,3.119,3.119,3.119,3.119,3.119,3.119,3.119,3.119,3.119,3.119,3.119,3.119,3.119,3.119,3.119,3.119,3.119,3.119,3.119,3.119,3.119,3.119,3.119,3.119,3.0797,0.0,0.0,2.9892,2.9496,2.9406,2.9406,2.9271,2.8701,2.8511,2.8319,2.776,2.7625,2.7625,0.0,2.7625,2.7625,2.7625,0.0,2.7625,2.7625,2.7675,2.786,2.8463,2.8559,2.8779,2.9316,2.9406,2.9406,2.9451,2.9451,2.9451,2.9496,2.9496,2.9496,2.9451,2.8873,2.8511,2.8511,2.791,0.0,0.0,0.0,0.0,0.0,0.0,0.0,0.0,0.0,0.0,0.0,0.0,0.0,0.0,0.0,0.0,0.0,0.0,0.0,0.0,0.0,0.0,0.0,0.0,0.0,0.0,0.0,0.0,2.9303,2.935,0.0,2.9369,2.9333,2.9362,2.9495,2.9343,2.9295,2.9412,2.9566,2.9831,3.0235,3.0119,3.0418,3.119,3.0797,3.0838,3.119,3.0797,3.0821,3.119,3.0797,3.0838,3.119,3.119,3.119,3.119,3.119,3.119,3.119,3.119,3.119,3.119,3.119,3.119,3.119,3.119,3.119,3.119,3.119,3.119,3.119,3.119,3.0797,3.0208,2.9805,2.9585,2.9337,2.8956,2.9162,2.9417,2.9246,2.9213,2.9161,2.8914,2.8861,2.8861,2.8861,2.821,2.7625,2.7625,2.7625,2.7625,2.7625,2.7625,2.7675,2.7894,2.7894,2.7993,2.8222,2.8255,2.84,2.8779,2.8826,2.9012,2.9361,2.9406,2.9225,2.8826,2.8591,2.8319,2.7944,2.724,2.6774,0.0,0.0,0.0,0.0,0.0,0.0,0.0,0.0,0.0,0.0,0.0,0.0,0.0,0.0,0.0,0.0,0.0,0.0,0.0,0.0,0.0,0.0,0.0,0.0,0.0,0.0,2.9712,2.9712,2.9553,2.9437,2.9437,2.9329,2.9261,2.9261,2.9355,2.9406,2.9406,2.9406,2.9585,2.9978,2.9629,2.9761,3.0559,3.0208,3.0208,3.0601,3.0208,3.0293,3.0878,3.0477,3.0617,3.119,3.119,3.1326,3.1562,3.1562,3.1715,3.1884,3.1376,3.119,3.119,3.119,3.119,3.1241,3.1478,3.1562,3.1596,3.185,3.1813,3.1616,3.1616,3.1034,3.0293,2.9878,2.9611,2.9399,2.9011,2.9206,2.9556,2.9582,2.9579,2.9579,2.9579,2.9579,2.9579,2.9579,2.8861,2.8248,2.8248,2.8248,2.8248,2.8248,2.8248,2.8248,2.8248,2.8248,2.8248,2.8248,2.8248,2.8454,2.8828,2.8878,2.9061,2.942,2.9484,2.929,2.8878,2.8878,2.8586,2.797,2.692,2.6369,2.6274,0.0,0.0,0.0,0.0,0.0,0.0,0.0,0.0,0.0,0.0,0.0,0.0,0.0,0.0,0.0,0.0,0.0,0.0,0.0,0.0,0.0,0.0,0.0,2.9575,2.9858,3.0142,3.0142,3.0225,3.0293,3.0351,2.9761,2.9361,2.9406,2.9361,2.9361,2.9361,2.9361,2.9361,2.9361,2.9361,2.9361,2.9406,2.9361,2.9361,2.9406,2.9361,2.9689,3.0284,3.0284,3.0609,3.1219,3.1219,3.1664,3.2307,3.2307,3.2747,3.3271,3.1833,3.1258,3.1258,3.1258,3.1258,3.136,3.207,3.2307,3.2442,3.3169,3.2944,3.2422,3.2422,3.1502,3.0541,3.049,3.0068,2.9579,2.9609,2.9609,2.9609,2.9639,2.9639,2.9639,2.9639,2.9639,2.9639,2.9639,2.9639,2.9624,2.9594,2.9579,2.9579,2.9579,2.9579,0.0,2.9579,2.9579,2.9579,2.9579,2.9579,2.9579,2.9579,2.9579,2.9579,2.9579,2.9579,2.9579,2.9579,2.9579,2.9227,2.8532,2.6961,2.6072,2.5844,0.0,0.0,0.0,0.0,0.0,0.0,0.0,0.0,0.0,0.0,0.0,0.0,0.0,0.0,0.0,0.0,0.0,0.0,0.0,0.0,0.0,0.0,3.0061,2.9935,3.0489,3.0903,3.0903,3.0525,3.0477,3.0918,2.9629,2.8919,2.9361,2.8591,2.8076,2.8076,2.8076,2.8319,2.8732,2.8319,2.8543,2.9406,2.8966,2.8966,2.9406,2.8966,2.9311,3.0341,2.9942,3.0585,3.2067,3.2067,3.246,3.3102,3.3102,3.322,3.3372,3.2949,3.2797,3.2797,3.2797,3.2797,3.2831,3.3034,3.3102,3.3136,3.3339,3.3279,3.3031,3.2574,3.1835,3.1097,3.0643,3.0068,2.9684,3.0133,3.0253,3.0372,3.0881,3.1001,3.1001,3.1001,3.1001,3.1001,3.1001,3.1001,3.0687,2.9744,2.9579,2.9579,2.9579,2.9579,0.0,2.9579,2.9579,2.9579,2.9579,2.9579,2.9579,2.9579,2.9579,2.9579,2.9579,2.9579,2.9579,2.9579,2.8987,2.7997,2.6681,2.6217,2.5713,0.0,0.0,0.0,0.0,0.0,0.0,0.0,0.0,0.0,0.0,0.0,0.0,0.0,0.0,0.0,0.0,0.0,0.0,0.0,0.0,0.0,0.0,3.0294,3.0258,3.0526,3.092,3.119,3.119,3.0658,3.0435,3.0797,2.9406,2.8654,2.9012,2.8125,2.7625,2.7625,2.7625,2.776,2.8091,2.776,2.808,2.9074,2.8716,2.8855,2.9461,2.9131,2.9481,3.0415,3.0366,3.1118,3.2438,3.2707,3.3215,3.3863,3.3863,3.4049,0.0,0.0,0.0,0.0,0.0,3.3406,3.344,3.3744,3.3863,3.3871,3.3879,3.3694,3.3357,3.2692,3.2032,3.143,3.1037,3.0649,3.0477,3.0851,3.0941,3.1046,3.1377,3.1482,3.1482,3.1482,3.1482,3.1482,3.1482,3.1482,0.0,3.0537,3.0402,3.0402,3.0402,3.0402,3.0402,3.0402,3.0402,3.0402,3.0402,3.0402,3.0402,3.0402,3.0402,0.0,0.0,0.0,3.022,2.9908,2.916,0.0,0.0,0.0,2.5974,2.5511,0.0,0.0,0.0,2.3851,2.2777,0.0,0.0,0.0,0.0,0.0,0.0,0.0,0.0,0.0,0.0,0.0,0.0,0.0,0.0,0.0,0.0,3.0161,3.0435,3.1112,3.1095,3.1055,3.119,3.0617,3.0208,3.0293,2.9225,2.8511,2.8511,2.8091,2.776,2.7625,0.0,0.0,0.0,0.0,2.8098,2.8712,2.8712,2.9011,2.9579,2.9579,2.9917,3.051,3.1124,3.1742,3.2485,3.3045,3.3722,3.4415,3.4476,3.4908,3.538,3.4124,3.366,3.366,3.366,3.3601,3.3642,3.4283,0.0,0.0,3.4473,3.4087,3.3479,3.2788,3.216,3.1582,3.1524,3.1482,3.1482,3.1482,3.1482,3.1482,3.1482,3.1482,3.1482,3.1482,3.1482,3.1482,3.1482,3.1482,3.1482,3.1482,3.1482,3.1482,3.1482,3.1482,3.1482,3.1482,3.1482,3.1482,3.1482,0.0,0.0,3.1482,3.1482,3.1482,3.1482,3.1409,3.1029,3.0208,2.9483,2.8636,2.7604,2.6948,2.6633,2.6533,2.6533,2.6452,2.6302,2.3932,2.2793,0.0,0.0,0.0,0.0,0.0,0.0,0.0,0.0,0.0,0.0,0.0,0.0,0.0,0.0,0.0,3.0179,2.9854,2.9935,3.1055,3.0335,3.0123,3.1095,3.0251,2.9761,3.0251,2.9225,2.8511,2.8511,2.881,2.8622,2.766,2.8545,2.8915,2.8397,2.8921,2.9265,2.9385,2.94,2.946,2.9579,0.0,0.0,3.0518,3.0613,3.139,3.2557,3.2699,3.3109,3.3843,3.4378,3.4651,3.4814,3.5043,3.5182,3.5182,3.5182,3.4834,3.4386,3.4535,3.4234,3.3759,3.3788,3.3684,3.3479,3.2788,3.2492,0.0,3.1697,3.1482,3.1482,3.1482,3.1482,3.1482,3.1482,3.1482,3.1482,3.1482,3.1482,3.1482,3.1482,3.1482,3.1482,3.1482,3.1482,3.1482,3.1482,3.1482,3.1482,3.1482,3.1482,3.1482,3.1482,3.1482,3.1482,3.1482,3.1482,3.1482,3.1482,3.0896,3.0133,2.9317,2.8447,2.7631,2.6782,2.6599,2.6544,2.6533,2.6533,2.6094,2.5288,2.3933,2.338,0.0,0.0,0.0,0.0,0.0,0.0,0.0,0.0,0.0,0.0,0.0,2.9253,0.0,0.0,2.9781,2.9843,2.9361,2.9271,3.0166,2.954,2.9496,3.1015,3.0123,2.9761,3.0658,2.9406,2.8654,2.8919,2.8965,2.8744,2.8135,2.9009,2.9565,2.9602,2.9599,2.9931,3.0571,3.0262,3.0223,3.0552,3.0552,3.0717,3.1016,3.1379,3.1934,3.2641,3.3287,3.3786,3.4137,3.4847,3.5098,3.5144,3.547,3.5407,3.5098,3.5098,3.4894,3.4528,3.4235,3.3887,3.3531,3.3198,3.3093,3.2986,3.2272,3.2064,3.1951,3.1582,3.1482,3.1482,3.1482,3.1482,3.1482,3.1482,3.1482,3.1482,3.1482,3.1482,3.1482,3.1482,3.1482,3.1482,3.1482,3.1482,3.1482,3.1482,3.1482,3.1482,3.1482,3.1482,3.1482,3.1482,3.1482,3.1482,3.1482,3.1482,3.1482,3.1482,3.0718,2.9889,2.9066,2.8182,2.7284,2.6521,2.6533,2.6533,2.6533,2.6533,2.5955,2.5016,2.3963,2.322,0.0,0.0,0.0,0.0,0.0,0.0,0.0,0.0,2.837,2.868,2.9447,2.9933,2.9346,2.9714,2.9951,2.9316,2.8732,2.8591,2.9316,2.8779,2.8997,3.0817,2.9989,2.9677,3.094,2.9749,2.903,2.9391,2.9508,2.9348,2.9033,2.9758,3.0357,3.0778,3.0281,3.0467,3.1567,3.0981,3.1027,3.1682,3.1582,3.1582,3.1739,3.216,3.2477,3.2641,3.3887,3.4479,3.4624,3.5052,3.527,3.5407,3.5407,3.5098,3.4576,3.4576,3.4431,3.4137,3.3582,3.3339,3.3077,3.2586,3.2382,3.2272,3.1682,3.1482,3.1482,3.1482,3.1482,3.1482,3.1482,3.1482,3.1482,3.1482,3.1482,3.1482,3.1482,3.1482,3.1482,3.1482,3.1482,3.1482,3.1482,3.1482,3.1482,3.1482,3.1482,3.1482,3.1482,3.1482,3.1482,3.1482,3.1482,3.1482,3.1482,3.1482,3.1482,3.1482,3.0584,2.9752,2.9002,2.7986,2.7162,2.6533,2.6533,2.6533,2.6533,2.6533,2.5873,2.4707,2.3891,2.2925,2.8002,2.802,2.7908,2.747,2.7365,2.7445,0.0,0.0,2.8284,2.9641,3.0027,2.9951,2.9491,2.9448,2.9316,2.8685,2.8091,2.8076,2.9225,2.84,2.8388,3.0254,2.9375,2.9108,3.0378,3.0364,3.0067,2.9599,3.1627,3.2138,3.0452,3.1514,3.1958,3.1508,3.1379,3.1345,3.1519,3.142,3.1762,3.2492,3.1796,3.1853,3.2437,3.191,3.1951,3.2641,3.3391,3.4037,3.4576,3.4037,3.4186,3.4736,3.4736,3.4688,3.4576,3.4576,3.3836,3.2788,3.2749,3.2272,3.1739,3.164,3.164,3.1582,3.1539,3.1482,3.1482,3.1482,3.1482,3.1482,3.1482,3.1482,3.1482,3.1482,3.1482,3.1482,3.1482,3.1482,3.1482,3.1482,3.1482,3.1482,3.1482,3.1482,3.1482,3.1482,3.1482,3.1482,3.1482,3.1482,3.1482,3.1482,3.1482,3.1482,3.1482,3.1482,3.1482,3.1482,3.0011,2.9129,2.9002,2.7484,2.6589,2.6533,2.6533,2.6533,2.6533,2.6533,2.5499,2.3672,2.3526,2.2925,2.7619,2.7378,0.0,0.0,2.7263,2.7539,2.7297,2.823,2.9201,2.9521,3.0219,3.0486,2.9581,2.9406,2.9088,0.0,2.776,2.776,2.8255,2.8593,2.9193,3.0305,3.037,3.0498,3.0943,3.0718,3.06,3.0697,3.1739,3.2159,3.1813,3.1871,3.2351,3.3301,3.2158,3.1894,3.2718,3.2312,3.2064,3.1951,3.2064,3.2064,3.1951,3.164,3.1894,3.2602,3.2895,3.3633,3.4576,3.4284,3.4333,3.464,3.5052,3.4447,3.3531,3.4333,3.4235,3.3633,3.2895,3.2382,3.2064,3.164,3.1482,3.1482,3.1482,3.1482,3.1482,3.1482,3.1482,3.1482,3.1482,3.1482,3.1482,3.1482,3.1482,3.1482,3.1482,3.1482,3.1482,3.1482,3.1482,3.1482,3.1482,3.1482,3.1482,3.1482,3.1482,3.1482,3.1482,3.1482,3.1482,3.1482,3.1482,3.1482,3.1482,3.1482,3.1278,3.0837,2.969,2.8748,2.8247,2.7095,2.6533,2.6533,2.6533,2.6533,2.6533,2.6533,2.5586,2.3877,2.3877,2.3199,2.7192,0.0,0.0,2.6945,2.7262,2.7534,2.7542,2.8755,2.9761,2.9346,3.0153,3.0559,2.9361,2.9134,2.881,2.776,2.779,2.7946,2.8117,2.9166,3.019,3.099,3.1566,3.1903,3.2013,3.1641,3.1609,3.2046,3.2458,3.283,3.3128,3.2651,3.3061,3.4528,3.2955,3.2461,3.3339,3.2841,3.2419,3.2053,3.2644,3.2696,3.2324,3.2324,3.2597,3.3144,3.3552,3.4278,3.5185,3.5396,3.5509,3.5557,3.603,3.5316,3.419,3.5153,3.4889,3.3887,3.2949,3.271,3.2755,3.201,3.1928,3.2078,3.2078,3.2078,3.2078,3.2078,3.2078,3.2078,3.2078,3.2078,3.2078,3.2078,3.2078,3.2078,3.2078,3.2078,3.2078,3.2078,3.2078,3.2078,3.2078,3.2078,3.2078,3.2078,3.2078,3.1943,3.1526,3.1482,3.1482,3.1482,3.1482,3.1482,3.1482,3.1482,3.1161,3.0329,2.9504,2.862,2.7736,2.6905,2.6533,2.6533,2.6684,2.6691,2.6691,2.6841,2.607,2.439,2.439,2.3577,0.0,0.0,2.686,2.757,2.7328,2.7317,2.881,2.9173,2.928,2.9364,2.9876,2.9935,2.8732,2.8511,2.8319,2.771,2.8128,2.8792,2.9438,3.0161,3.1068,3.2398,3.2544,3.2816,0.0,3.355,3.3515,3.3521,3.4767,3.522,3.4591,3.4511,3.4528,3.4576,3.3937,3.3235,3.2641,3.2586,3.2912,3.346,3.3588,3.3945,3.4392,3.4392,3.445,3.4492,3.5974,3.6582,3.6701,3.7498,3.779,3.779,3.7838,3.779,3.7725,3.779,3.5643,3.2641,3.2586,3.2989,3.3362,3.2688,3.2916,3.344,3.344,3.344,3.344,3.344,3.344,3.344,3.344,3.344,3.344,3.344,3.344,3.344,3.344,3.344,3.344,3.344,3.344,3.344,3.344,3.344,3.344,3.344,3.344,3.2976,3.1704,3.1482,3.1482,3.1482,3.1482,3.1482,3.1482,3.1482,3.1161,3.0329,2.9504,2.862,2.7736,2.6905,2.6533,2.6533,2.6979,2.7256,2.7256,2.7795,2.6976,2.4982,2.4982,2.4057,0.0,0.0,2.6992,2.7651,2.7795,2.7969,2.8479,2.8963,2.9251,2.8872,2.9271,2.9451,2.8654,2.8511,2.8424,2.8276,2.8809,2.9489,3.0157,3.1629,3.2739,3.3237,3.4044,0.0,0.0,0.0,0.0,3.4268,3.4688,3.5035,3.5253,3.4447,3.4137,3.4576,3.4406,3.3985,3.3222,3.4172,3.4533,3.4317,3.4849,3.492,3.4616,3.4616,3.4324,3.3864,3.4368,3.4857,3.5276,3.5498,3.5623,3.5678,3.6194,3.5819,3.51,3.605,3.5297,3.4001,3.5011,3.5187,3.4849,3.416,3.3772,3.3499,3.3499,3.3499,3.3499,3.3499,3.3499,3.3499,3.3499,3.3499,3.3499,3.3499,3.3499,3.3499,3.3499,3.3499,3.3499,3.3499,3.3499,3.3499,3.3499,3.3499,3.3499,3.3499,3.3499,3.3335,3.2901,3.2841,3.2841,3.2841,3.2841,3.2841,3.2841,3.2235,3.1521,3.0726,2.9806,2.8871,2.8017,2.7687,2.7557,2.7557,2.7733,2.7821,2.7833,2.7336,2.65,2.5395,2.4697,2.3826,0.0,2.6557,2.6841,2.775,2.7955,2.8063,2.8316,2.8726,2.8919,2.8319,2.8638,2.8904,2.8271,2.8388,2.856,2.8569,2.9355,3.0233,3.1162,3.2643,3.3789,3.4243,3.5076,0.0,0.0,0.0,0.0,3.4941,3.4941,3.5278,3.5966,3.5214,3.507,3.574,3.5794,3.5445,3.4705,3.5345,3.545,3.5047,3.5498,3.5549,3.5404,3.5404,3.4941,3.4265,3.5091,3.5533,3.5692,3.6302,3.6509,3.658,3.6994,3.6667,3.5979,3.6886,3.6706,3.6054,3.5985,3.5822,3.5534,3.4871,3.4425,3.4218,3.4218,3.4218,3.4218,3.4218,3.4218,3.4218,3.4218,3.4218,3.4218,3.4218,3.4218,3.4218,3.4218,3.4218,3.4218,3.4218,3.4218,3.4218,3.4218,3.4218,3.4218,3.4218,3.4218,3.4038,3.3559,3.3499,3.3499,3.3499,3.3499,3.3362,3.3022,3.2474,3.1608,3.0392,2.9731,2.8983,2.817,2.8109,2.8109,2.8109,2.8298,2.8398,2.8398,2.7912,2.7299,2.6462,2.5431,2.4451,2.5998,2.6238,2.6579,2.7971,2.7852,2.7612,2.8324,2.8463,2.8286,2.771,2.8042,2.8286,0.0,0.0,2.8622,2.8734,2.9823,3.1082,3.2474,3.3267,3.4202,0.0,0.0,0.0,0.0,0.0,0.0,3.5673,0.0,3.6011,3.6789,3.684,3.7161,3.7824,3.7891,3.755,3.6732,3.6099,3.5792,3.5758,3.5702,3.607,3.6722,3.6661,3.629,3.5733,3.7889,3.8469,3.7921,3.9401,3.9952,3.9952,3.9952,3.9952,3.9969,4.0003,3.9556,3.8488,3.5754,3.51,3.5445,3.4816,3.503,3.5504,3.5504,3.5504,3.5504,3.5504,3.5504,3.5504,3.5504,3.5504,3.5504,3.5504,3.5504,3.5504,3.5504,3.5504,3.5504,3.5504,3.5504,3.5504,3.5504,3.5504,3.5504,3.5504,3.5504,3.504,3.3769,3.3604,3.3604,3.3604,3.3604,3.3188,3.2306,3.2177,3.1363,2.9614,2.9473,2.9074,2.8185,2.8197,2.8197,2.8197,2.8712,2.8976,2.8976,2.9439,2.9131,2.8051,2.6917,2.5852,2.6061,2.6661,2.7308,2.8081,2.7938,2.7746,2.8336,2.814,2.781,2.7625,2.771,2.7926,0.0,0.0,0.0,3.06,3.1524,0.0,3.3893,3.4684,0.0,0.0,0.0,3.5622,3.5622,3.6146,0.0,0.0,3.6485,3.6806,3.7584,3.7618,3.7461,3.707,3.8135,3.7798,3.5938,3.6819,3.7512,3.8066,3.802,3.8117,3.827,3.7732,3.7397,3.7235,3.7806,3.7978,3.7806,3.8206,3.8374,3.8374,3.8374,3.8374,3.8439,3.9016,3.9097,3.8882,3.8674,3.7584,3.6306,3.6122,3.5806,3.5504,3.5504,3.5504,3.5504,3.5504,3.5504,3.5504,3.5504,3.5504,3.5504,3.5504,3.5504,3.5504,3.5504,3.5504,3.5504,3.5504,3.5504,3.5504,3.5504,3.5504,3.5504,3.5504,3.5504,3.5385,3.504,3.4996,3.4996,3.4996,3.4996,3.4564,3.3619,3.2845,3.1997,3.0804,3.0044,2.9581,2.9365,2.9365,2.9365,2.9365,2.9503,2.9578,2.9578,2.8863,2.8137,2.7334,2.6173,2.5249,2.6666,2.7268,2.7884,2.7968,2.7979,2.7993,2.8091,2.786,2.7664,2.7964,2.8023,0.0,0.0,0.0,0.0,0.0,0.0,0.0,3.443,3.4941,3.5253,0.0,3.5926,0.0,3.6129,3.6823,3.7415,0.0,3.7466,3.7601,3.8345,3.8379,3.8351,3.8237,3.9059,3.8716,3.7052,3.7867,3.8302,3.8414,3.8414,3.8414,3.8414,3.8302,3.7905,3.7322,0.0,3.8262,3.7338,3.8019,3.827,3.8211,3.8211,3.8403,3.8722,3.9166,3.9068,3.8825,3.925,3.8324,3.7021,3.7388,3.6987,3.6342,3.6342,3.6342,3.6342,3.6342,3.6342,3.6342,3.6342,3.6342,3.6342,3.6342,3.6342,3.6342,3.6342,3.6342,3.6342,3.6342,3.6342,3.6342,3.6342,3.6342,3.6252,3.5983,3.5938,3.5833,3.5549,3.5504,3.5504,3.5504,3.5504,3.492,3.3533,3.289,3.2033,3.0696,3.0075,2.9792,2.9792,2.9792,2.9792,2.9792,2.9792,2.9917,3.0156,2.9542,2.8889,2.8195,2.7008,2.602,2.7604,2.8002,2.8297,2.7923,2.8091,2.8286,2.7894,2.7786,2.7925,2.8561,0.0,0.0,2.9579,0.0,3.091,3.1741,0.0,3.3287,3.4544,3.4736,3.4975,3.5667,3.6366,3.6823,3.6924,3.7601,3.8311,3.8937,3.8497,3.8464,3.9106,3.914,3.9428,4.0054,4.002,3.9662,3.9086,3.8962,3.8635,3.8092,3.7978,3.7978,3.8092,3.858,3.8117,3.7188,3.9202,0.0,3.7329,3.8753,3.929,3.9226,3.9226,3.9613,4.016,4.0257,3.9861,3.9266,3.9232,3.8692,3.8076,3.8396,3.8035,3.7404,3.7404,3.7404,3.7404,3.7404,3.7404,3.7404,3.7404,3.7404,3.7404,3.7404,3.7404,3.7404,3.7404,3.7404,3.7404,3.7404,3.7404,3.7404,3.7404,3.7404,3.7225,3.6686,3.6611,3.6402,3.5833,3.5609,3.5504,3.5504,3.5504,3.4706,3.2749,3.2593,3.1829,2.9934,2.9792,2.9829,2.9892,2.9905,2.993,3.0005,3.0005,3.0244,3.0721,3.0721,3.0298,2.9421,2.8464,2.7281,2.8231,2.8336,2.8576,2.9011,2.84,2.7993,2.8904,2.875,0.0,0.0,0.0,2.9609,3.0223,3.0913,0.0,3.3069,0.0,0.0,0.0,0.0,3.5706,0.0,0.0,0.0,0.0,0.0,0.0,0.0,0.0,3.9749,3.9884,3.9884,3.9952,4.007,3.9437,3.9368,3.9901,3.9262,3.9156,3.9679,3.9032,3.9032,3.9679,3.8486,3.8541,3.954,3.9927,0.0,4.0458,4.1362,4.1681,4.1674,4.1674,4.1758,4.1942,4.2562,4.2685,4.2565,4.2518,4.1898,4.0795,3.84,3.7526,3.7404,3.7404,3.7404,3.7404,3.7404,3.7404,3.7404,3.7404,3.7404,3.7404,3.7404,3.7404,3.7404,3.7404,3.7404,3.7404,3.7404,3.7404,3.7404,3.7404,3.7404,3.7375,3.727,3.724,3.721,3.709,3.6163,3.5504,3.5504,3.5504,3.4706,3.2749,3.2593,3.1829,2.9934,2.9792,2.9993,3.0457,3.047,3.067,3.1097,3.111,3.116,3.1248,3.1248,3.041,2.8811,2.8544,2.7511,2.9473,2.9632,2.9805,2.9496,2.921,2.9167,2.9809,0.0,0.0,0.0,0.0,3.1269,3.1534,0.0,0.0,0.0,0.0,0.0,0.0,0.0,0.0,0.0,0.0,0.0,0.0,0.0,0.0,0.0,0.0,4.007,4.007,4.007,4.007,4.007,3.9731,3.9714,4.0087,3.9731,3.9731,4.0087,4.0117,4.0301,4.0679,4.0296,4.0354,4.0675,4.108,0.0,4.0661,4.1377,4.1687,4.1601,4.1601,4.1831,4.2193,4.2555,4.2686,4.2676,4.2655,4.2332,4.1693,3.973,3.8825,3.8452,3.8452,3.8452,3.8452,3.8452,3.8452,3.8452,3.8452,3.8452,3.8452,3.8452,3.8452,3.8452,3.8452,3.8452,3.8452,3.8452,3.8452,3.8452,3.8452,3.8452,3.8332,3.7973,3.7913,3.7793,3.7449,3.6881,3.6492,3.6492,3.6005,3.5119,3.3692,3.303,3.2077,3.07,3.062,3.0746,3.1009,3.1022,3.1135,3.1386,3.1386,3.1537,3.1813,3.1813,3.0858,2.906,2.906,2.7825,3.0617,3.074,3.0797,2.9995,3.0049,3.044,3.0803,3.0949,0.0,0.0,0.0,3.2841,3.2786,0.0,0.0,0.0,0.0,0.0,0.0,0.0,0.0,0.0,0.0,0.0,0.0,0.0,0.0,0.0,0.0,0.0,4.0087,4.024,4.0324,4.0324,4.0476,4.0544,4.0544,4.0544,4.0544,4.0561,4.1153,4.1441,4.1457,4.1856,4.182,4.1488,4.2043,0.0,0.0,4.1585,4.1864,4.174,4.174,4.208,4.2583,4.2583,4.2583,4.252,4.2316,4.2252,4.2125,4.128,4.0378,3.9666,3.9481,3.9424,3.9424,3.9424,3.9424,3.9424,3.9424,3.9424,3.9424,3.9424,3.9424,3.9424,3.9424,3.9424,3.9424,3.9424,3.9424,3.9424,3.9424,3.9424,3.923,3.8691,3.8601,3.8422,3.7913,3.7838,3.7838,3.7838,3.6843,3.5712,3.4477,3.3644,3.2673,3.1468,3.1386,3.1436,3.1562,3.1562,3.1625,3.175,3.175,3.1964,3.239,3.239,3.1366,2.9407,2.9407,2.8028,3.1151,3.0757,3.0477,3.0935,3.0787,3.0762,3.1893,0.0,0.0,0.0,3.3453,3.3518,3.3531,0.0,0.0,0.0,0.0,0.0,0.0,0.0,0.0,0.0,0.0,0.0,0.0,0.0,0.0,0.0,0.0,0.0,4.0121,4.073,4.1102,4.1102,4.1745,4.2083,4.2083,4.2083,4.2083,4.2083,4.2151,4.2185,4.2185,4.1566,4.1655,4.2213,4.2282,0.0,0.0,4.3951,4.4288,4.4282,4.4282,4.4316,4.4384,4.4384,4.4384,4.4253,4.3426,4.3185,4.3047,4.2189,4.128,4.0432,3.961,3.9424,3.9424,3.9424,3.9424,3.9424,3.9424,3.9424,3.9424,3.9424,3.9424,3.9424,3.9424,3.9424,3.9424,3.9424,3.9424,3.9424,3.9424,3.9424,3.9394,3.9334,3.9334,3.9305,3.9245,3.923,3.923,3.923,3.8068,3.6512,3.4552,3.4327,3.3426,3.1549,3.1386,3.1612,3.2114,3.2139,3.2378,3.2905,3.2918,3.2955,3.3006,3.3006,3.1741,2.9407,2.9407,2.8028,3.119,3.1015,3.0878,3.1151,3.1374,3.1841,3.2765,0.0,0.0,3.4626,3.4805,3.4704,3.4284,3.4752,3.5052,0.0,0.0,0.0,0.0,0.0,0.0,0.0,0.0,0.0,0.0,0.0,0.0,0.0,0.0,0.0,4.1424,4.1694,4.1863,4.1863,4.2151,4.2286,4.2286,4.2286,4.2286,4.2303,4.276,4.2963,4.298,4.316,4.3435,4.3673,4.3665,0.0,0.0,4.4451,4.4587,4.4587,4.4587,4.4587,4.4587,4.4587,4.4587,4.4637,4.4716,4.4733,4.4682,4.424,4.3896,4.3135,4.0885,4.0185,4.0045,3.9538,3.9424,3.9424,3.9424,3.9424,3.9424,3.9424,3.9424,3.9424,3.9424,3.9424,3.9424,3.9424,3.9424,3.9424,3.9424,3.9424,3.9424,3.9424,3.9424,3.9424,3.9424,3.9424,3.9424,3.9424,3.831,3.7065,3.5634,3.4961,3.3964,3.2475,3.2403,3.2503,3.2717,3.2729,3.2842,3.3068,3.3081,3.3081,3.3081,3.3081,3.1789,2.9407,2.9407,2.8028,3.119,3.119,3.1241,3.1461,3.207,3.2814,0.0,0.0,3.4979,3.5504,3.5622,3.547,3.4988,3.5253,3.547,3.4988,0.0,3.6857,0.0,0.0,0.0,0.0,0.0,0.0,0.0,0.0,0.0,0.0,0.0,0.0,4.2963,4.2963,4.2861,4.2625,4.2844,4.2963,4.2963,4.2963,4.2963,4.298,4.3504,4.3758,4.3775,4.4333,4.4587,4.4587,4.4587,0.0,0.0,4.4587,4.4587,4.4587,4.4587,4.4587,4.4604,4.4823,4.4925,4.501,4.5771,4.6024,4.6034,4.5935,4.5884,4.5421,4.2893,4.1944,4.1622,4.0977,4.0583,4.0326,4.0066,3.9993,3.9993,3.9993,3.9993,3.9948,3.9753,3.9709,3.9649,3.9454,3.9424,3.9424,3.9424,3.9424,3.9424,3.9424,3.9424,3.9424,3.9424,3.9424,3.9424,3.9424,3.8708,3.7738,3.629,3.5588,3.4581,3.3154,3.3081,3.3081,3.3081,3.3081,3.3081,3.3081,3.3081,3.3081,3.3081,3.3081,3.1965,2.9943,2.959,2.8113,3.119,3.119,3.1376,3.2127,3.2831,3.3592,0.0,0.0,3.5605,3.5622,3.5622,3.5622,3.5577,3.5577,3.5622,0.0,0.0,0.0,0.0,0.0,0.0,0.0,0.0,0.0,0.0,0.0,0.0,0.0,0.0,0.0,4.4519,4.4553,4.4198,4.3436,4.4147,4.4553,4.4553,4.4553,4.4553,4.4553,4.4553,4.457,4.457,4.4587,4.4587,0.0,0.0,0.0,0.0,4.4587,4.4587,4.4587,4.4587,4.4587,4.4671,4.5415,4.5703,4.5788,4.6532,4.6786,4.6786,4.6786,4.6786,4.665,4.5727,4.4854,4.4129,4.4129,4.3447,4.2577,4.1641,4.1354,4.1354,4.1354,4.1354,4.119,4.0531,4.0382,4.0187,3.9544,3.9424,3.9424,3.9424,3.9424,3.9424,3.9424,3.9424,3.9424,3.9424,3.9424,3.9424,3.9424,3.9424,3.8531,3.6355,3.6198,3.5265,3.324,3.3081,3.3081,3.3081,3.3081,3.3081,3.3081,3.3081,3.3081,3.3081,3.3081,3.2426,3.1122,2.9954,2.8284,3.119,3.1562,3.1985,3.2222,3.322,3.4201,3.4438,0.0,3.5622,3.5622,3.5622,3.5622,3.5622,3.5622,3.5791,3.6332,0.0,0.0,0.0,0.0,0.0,0.0,0.0,0.0,0.0,0.0,0.0,0.0,0.0,0.0,4.457,4.4587,4.4468,4.4215,4.4451,4.4587,4.4587,4.4587,4.4587,4.4587,4.4587,4.4587,4.4587,4.4587,4.4587,0.0,0.0,0.0,0.0,4.4587,4.4587,4.4621,4.5145,4.5348,4.5432,4.6177,4.6447,4.6549,4.731,4.7564,4.7631,4.8139,4.8308,4.823,4.795,4.6557,4.4935,4.4345,4.4026,4.3548,4.2592,4.2333,4.2203,4.1581,4.1384,4.1324,4.1115,4.107,4.101,4.0801,4.0756,4.0756,4.0756,4.0382,4.0083,4.0083,3.9709,3.9424,3.9424,3.9424,3.9424,3.9424,3.9424,3.8855,3.742,3.6604,3.5668,3.4275,3.3471,3.3081,3.3081,3.3081,3.3081,3.3081,3.3081,3.3081,3.3081,3.3081,3.2147,3.0364,2.9489,2.8302,0.0,3.1935,3.2408,3.2966,3.3812,0.0,0.0,0.0,3.5622,3.5622,3.5622,3.5622,3.5622,3.5622,3.5876,3.6654,0.0,0.0,0.0,0.0,0.0,0.0,0.0,0.0,0.0,0.0,0.0,0.0,0.0,0.0,4.4587,4.4587,4.4587,4.4587,4.4587,4.4587,4.4587,4.4587,4.4587,4.4587,4.4587,4.4587,4.4587,4.4587,4.4587,0.0,0.0,0.0,0.0,4.4891,4.501,4.5077,4.5821,4.6126,4.621,4.6938,4.7225,4.7327,4.8071,4.8342,4.8409,4.8849,4.9001,4.9001,4.9001,4.8001,4.6636,4.5767,4.5486,4.5285,4.4322,4.3856,4.338,4.2833,4.2409,4.2043,4.1803,4.1758,4.1669,4.1429,4.1384,4.1384,4.1384,4.104,4.0771,4.0771,4.0427,4.0068,3.9828,3.9783,3.9694,3.9454,3.9424,3.9104,3.8472,3.7084,3.5734,3.4746,3.3713,3.3081,3.3081,3.3081,3.3081,3.3081,3.3081,3.3181,3.3382,3.3596,3.2551,3.0331,3.0046,2.9015,0.0,0.0,0.0,0.0,0.0,0.0,0.0,0.0,0.0,3.5622,3.5622,3.5622,3.5622,3.5673,3.596,0.0,0.0,0.0,0.0,0.0,0.0,0.0,0.0,0.0,0.0,0.0,0.0,0.0,0.0,0.0,4.4587,4.4587,4.4587,4.4587,4.4587,4.4587,4.4587,4.4587,4.4587,4.4587,4.4587,4.4587,4.4587,4.4587,4.4587,0.0,0.0,0.0,0.0,4.5415,4.5737,4.5855,4.6583,4.687,4.6972,4.7716,4.8003,4.8105,4.8765,4.9001,4.9001,4.9001,4.9001,4.9001,4.9001,4.9001,4.8798,4.7933,4.7721,4.7456,4.6523,4.5634,4.4946,4.4962,4.4143,4.3229,4.2707,4.2509,4.2252,4.1639,4.1519,4.1519,4.1519,4.1489,4.1444,4.1444,4.1414,4.116,4.0546,4.0472,4.0232,3.9634,3.9559,3.9559,3.9559,3.7462,3.5814,3.4897,3.3713,3.3081,3.3081,3.3081,3.3081,3.3081,3.3119,3.3407,3.396,3.4512,3.3433,3.0953,3.1337,3.0173,0.0,0.0,0.0,0.0,0.0,0.0,0.0,0.0,0.0,0.0,0.0,3.5622,3.5622,3.6096,3.6755,0.0,0.0,0.0,0.0,0.0,0.0,0.0,0.0,0.0,0.0,0.0,0.0,0.0,0.0,4.4587,4.4587,4.4587,4.4587,4.4587,4.4587,4.4587,4.4587,4.4587,4.4587,4.4587,4.4587,4.4587,4.4587,4.4587,4.4587,0.0,0.0,0.0,4.5449,4.5635,4.6024,4.6599,4.7361,4.7648,4.775,4.8477,4.8748,4.8781,4.8951,4.9001,4.9001,4.9001,4.9001,4.9001,4.9001,4.9001,4.894,4.8719,4.8656,4.8433,4.7506,4.7104,4.6747,4.6048,4.5138,4.4403,4.425,4.3622,4.306,4.2895,4.2865,4.2865,4.2865,4.2462,4.2132,4.2132,4.1698,4.1324,4.1175,4.1145,4.1085,4.0935,4.092,4.092,4.092,3.8039,3.6132,3.5894,3.4095,3.3081,3.3081,3.3081,3.3081,3.3081,3.3483,3.3972,3.4525,3.509,3.3978,3.1348,3.1839,3.0653,0.0,0.0,0.0,0.0,0.0,0.0,0.0,0.0,0.0,0.0,0.0,0.0,3.6079,0.0,0.0,0.0,0.0,0.0,0.0,0.0,0.0,0.0,0.0,0.0,0.0,0.0,0.0,0.0,0.0,4.4587,4.4587,4.4587,4.4587,4.4587,4.4587,4.4587,4.4587,4.4587,4.4587,4.4587,4.4587,4.4587,4.4587,4.4587,4.4773,0.0,0.0,0.0,4.6227,4.6583,4.6955,4.7378,4.8122,4.8409,4.846,4.8849,4.9001,4.9001,4.9001,4.9001,4.9001,4.9001,4.9001,4.9001,4.9001,4.9001,4.9001,4.9001,4.9001,4.8861,4.837,4.7933,4.744,4.6952,4.6119,4.5358,4.4871,4.4373,4.3849,4.3409,4.3329,4.3329,4.3329,4.3045,4.2806,4.2806,4.2506,4.2162,4.1863,4.1833,4.1713,4.1414,4.1384,4.1384,4.1384,3.8739,3.693,3.6653,3.4405,3.3081,3.3081,3.3319,3.3571,3.3822,3.4374,3.4801,3.5102,3.5655,3.4522,3.1839,3.2208,3.0824,0.0,0.0,0.0,0.0,0.0,0.0,0.0,0.0,0.0,0.0,0.0,0.0,0.0,0.0,0.0,0.0,0.0,0.0,0.0,0.0,0.0,0.0,0.0,0.0,0.0,0.0,0.0,0.0,0.0,4.4587,4.4587,4.4587,4.4587,4.4587,4.4587,4.4587,4.4587,4.4587,4.4587,4.4587,4.4587,4.4587,4.4587,4.4705,4.5094,4.572,0.0,0.0,4.7022,4.7648,4.7986,4.8156,4.8765,4.9001,4.9001,4.9001,4.9001,4.9001,4.9001,4.9001,4.9001,4.9001,4.9001,4.9001,4.9001,4.9001,4.9001,4.9001,4.9001,4.9001,4.9001,4.8433,4.7803,4.7803,4.7104,4.6189,4.5358,4.5079,4.4721,4.3693,4.3551,4.3472,4.3329,4.3329,4.3329,4.3329,4.3329,4.3135,4.2581,4.2506,4.2297,4.1743,4.1683,4.1683,4.1683,3.9742,3.8213,3.7536,3.4849,3.3332,3.3332,3.3771,3.4286,3.4839,3.5303,3.5592,3.5667,3.6132,3.5054,3.2644,3.2431,3.0916,3.3372,3.4404,0.0,0.0,0.0,0.0,0.0,0.0,0.0,0.0,0.0,0.0,0.0,0.0,0.0,0.0,0.0,0.0,0.0,0.0,0.0,0.0,0.0,0.0,0.0,0.0,0.0,0.0,0.0,4.4587,4.4587,4.4587,4.4587,4.4587,4.4587,4.4587,4.4587,4.4587,4.4587,4.4587,4.4587,4.4587,4.4604,4.5246,4.5602,4.5737,0.0,4.7056,4.775,4.7868,4.8291,4.8849,4.8968,4.9001,4.9001,4.9001,4.9001,4.9001,4.9001,4.9001,4.9001,4.9001,4.9001,4.9001,4.9001,4.9001,4.9001,4.9001,4.9001,4.9001,4.9001,4.8861,4.8798,4.8798,4.808,4.7373,4.7172,4.6539,4.569,4.4721,4.4586,4.4297,4.3488,4.3329,4.3329,4.3329,4.3329,4.3299,4.3195,4.318,4.315,4.3045,4.303,4.303,4.303,4.1405,3.9864,3.8768,3.6035,3.4462,3.4462,3.455,3.4851,3.5403,3.5504,3.5768,3.6232,3.632,3.5559,3.4068,3.2844,3.1429,3.3897,3.4793,3.5622,0.0,0.0,0.0,0.0,0.0,0.0,0.0,0.0,0.0,0.0,0.0,0.0,0.0,0.0,0.0,0.0,0.0,0.0,0.0,0.0,0.0,0.0,0.0,0.0,0.0,0.0,0.0,4.4587,4.4587,4.4587,4.4587,4.4587,4.4587,4.4587,4.4587,4.4587,4.4587,4.4587,4.479,4.5213,4.5551,4.6143,4.6921,0.0,4.7817,4.8494,4.8494,4.8697,4.9001,4.9001,4.9001,4.9001,4.9001,4.9001,4.9001,4.9001,4.9001,4.9001,4.9001,4.9001,4.9001,4.9001,4.9001,4.9001,4.9001,4.9001,4.9001,4.9001,4.9001,4.9001,4.9001,4.8656,4.8225,4.7721,4.7239,4.6678,4.5778,4.5153,4.4662,4.422,4.363,4.3329,4.3329,4.3329,4.3329,4.3329,4.3329,4.3329,4.3329,4.3329,4.3329,4.3329,4.2012,4.0193,3.784,3.5773,3.4851,3.5152,3.5165,3.5429,3.5981,3.5994,3.6107,3.6358,3.6358,3.5667,3.4385,3.2944,3.1622,3.4303,3.5047,3.5622,0.0,0.0,3.5622,3.5622,0.0,0.0,0.0,0.0,0.0,0.0,0.0,0.0,0.0,0.0,0.0,0.0,0.0,0.0,0.0,0.0,0.0,0.0,0.0,0.0,0.0,0.0,0.0,4.4587,4.4587,4.4587,4.4587,4.4587,4.4587,4.4587,4.4756,4.484,4.484,4.484,4.5229,4.5957,4.6143,4.6836,4.7936,4.8105,4.8494,4.9001,4.9001,4.9001,4.9001,4.9001,4.9001,4.9001,4.9001,4.9001,4.9001,4.9001,4.9001,4.9001,4.9001,4.9001,4.9001,4.9001,4.9001,4.9001,4.9001,4.9001,4.9001,4.9001,4.9001,4.9001,4.9001,4.9001,4.8798,4.808,4.7933,4.7655,4.6747,4.5992,4.53,4.4887,4.4143,4.3551,4.3329,4.3329,4.3329,4.3329,4.3329,4.3329,4.3329,4.3329,4.3329,4.3329,4.2029,4.0069,3.745,3.5865,3.5303,3.5717,3.573,3.5931,3.6358,3.6358,3.6358,3.6358,3.6358,3.587,3.4884,3.3143,3.1735,3.4303,3.5047,3.5622,3.5622,0.0,0.0,3.5622,0.0,0.0,0.0,0.0,0.0,0.0,0.0,0.0,0.0,0.0,0.0,0.0,0.0,0.0,0.0,0.0,0.0,0.0,0.0,0.0,0.0,0.0,0.0,4.4587,4.4587,4.4587,4.4587,4.4587,4.4587,4.4587,4.528,4.5618,4.5618,4.5618,4.6007,4.6735,4.7445,4.7817,4.7953,4.8629,4.8951,4.9001,4.9001,4.9001,4.9001,4.9001,4.9001,4.9001,4.9001,4.9001,4.9001,4.9001,4.9001,4.9001,4.9001,4.9001,4.9001,4.9001,4.9001,4.9001,4.9001,4.9001,4.9001,4.9001,4.9001,4.9001,4.9001,4.9001,4.9001,4.8923,4.8923,4.8639,4.7655,4.744,4.6831,4.5095,4.4737,4.4373,4.3394,4.3329,4.3329,4.3329,4.3329,4.3329,4.3329,4.3329,4.3329,4.3329,4.1267,3.9944,3.9688,3.7573,3.6257,3.6295,3.6307,3.632,3.6358,3.6358,3.6358,3.6358,3.6358,3.6358,3.6156,3.354,3.223,3.4979,3.5402,3.5622,3.5622,0.0,0.0,0.0,0.0,0.0,0.0,0.0,0.0,0.0,0.0,0.0,0.0,0.0,0.0,0.0,0.0,0.0,0.0,0.0,0.0,0.0,0.0,0.0,0.0,0.0,0.0,4.4587,4.4587,4.4587,4.4587,4.5026,4.528,4.528,4.6007,4.6616,4.7073,4.6599,4.6769,4.7496,4.7784,4.8173,4.8612,4.8883,4.9001,4.9001,4.9001,4.9001,4.9001,4.9001,4.9001,4.9001,4.9001,4.9001,4.9001,4.9001,4.9001,4.9001,4.9001,4.9001,4.9001,4.9001,4.9001,4.9001,4.9001,4.9001,4.9001,4.9001,4.9001,4.9001,4.9001,4.9001,4.9001,4.9001,4.9001,4.8877,4.8513,4.8015,4.7373,4.6678,4.5577,4.4662,4.4297,4.3708,4.3329,4.3329,4.3329,4.3329,4.3329,4.3329,4.3329,4.3329,4.1183,3.9899,3.9899,3.7691,3.6358,3.6358,3.6358,3.6358,3.6358,3.6358,3.6358,3.6358,3.6358,3.6358,3.6358,3.354,3.2331,3.5419,3.5622,0.0,0.0,0.0,0.0,0.0,0.0,0.0,0.0,0.0,0.0,0.0,0.0,0.0,0.0,0.0,0.0,0.0,0.0,0.0,0.0,0.0,0.0,0.0,0.0,0.0,0.0,0.0,0.0,0.0,4.4807,4.4942,4.4942,4.5652,4.6058,4.6058,4.6786,4.7411,4.7919,4.7614,4.7767,4.8257,4.8257,4.8528,4.9001,4.9001,4.9001,4.9001,4.9001,4.9001,4.9001,4.9001,4.9001,4.9001,4.9001,4.9001,4.9001,4.9001,4.9001,4.9001,4.9001,4.9001,4.9001,4.9001,4.9001,4.9001,4.9001,4.9001,4.9001,4.9001,4.9001,4.9001,4.9001,4.9001,4.9001,4.9001,4.9001,4.9001,4.9001,4.8497,4.795,4.7655,4.626,4.5153,4.4796,4.3927,4.3329,4.3329,4.3329,4.3329,4.3329,4.3329,4.3329,4.3329,4.1518,4.0318,3.9899,3.8043,3.6803,3.6452,3.6358,3.6358,3.6358,3.6358,3.6358,3.6358,3.6358,3.6358,3.6358,3.4056,3.2744,3.5419,3.5622,0.0,0.0,0.0,0.0,0.0,0.0,0.0,0.0,0.0,0.0,0.0,0.0,0.0,0.0,0.0,0.0,0.0,0.0,0.0,0.0,0.0,0.0,0.0,0.0,0.0,0.0,0.0,0.0,0.0,4.5297,4.5703,4.572,4.643,4.6802,4.6802,4.7547,4.7936,4.7936,4.8663,4.9001,4.9001,4.9001,4.9001,4.9001,4.9001,4.9001,4.9001,4.9001,4.9001,4.9001,4.9001,4.9001,4.9001,4.9001,4.9001,4.9001,4.9001,4.9001,4.9001,4.9001,4.9001,4.9001,4.9001,4.9001,4.9001,4.9001,4.9001,4.9001,4.9001,4.9001,4.9001,4.9001,4.9001,4.9001,4.9001,4.9001,4.9001,4.9001,4.9001,4.8719,4.7803,4.6815,4.5905,4.4946,4.3927,4.3329,4.3329,4.3329,4.3329,4.3329,4.3329,4.3329,4.3329,4.229,4.1085,3.9986,3.8738,3.7586,3.6452,3.6358,3.6358,3.6358,3.6358,3.6358,3.6358,3.6358,3.6358,3.6358,3.4969,3.3662,3.5554,0.0,0.0,0.0,0.0,0.0,0.0,0.0,0.0,0.0,0.0,0.0,0.0,0.0,0.0,0.0,0.0,0.0,0.0,0.0,0.0,0.0,0.0,0.0,0.0,0.0,0.0,0.0,0.0,0.0,0.0,4.5585,4.594,4.6447,4.7192,4.7581,4.7581,4.8325,4.868,4.868,4.89,4.9001,4.9001,4.9001,4.9001,4.9001,4.9001,4.9001,4.9001,4.9001,4.9001,4.9001,4.9001,4.9001,4.9001,4.9001,4.9001,4.9001,4.9001,4.9001,4.9001,4.9001,4.9001,4.9001,4.9001,4.9001,4.9001,4.9001,4.9001,4.9001,4.9001,4.9001,4.9001,4.9001,4.9001,4.9001,4.9001,4.9001,4.9001,4.9001,4.9001,4.894,4.8639,4.7803,4.6884,4.5905,4.5005,4.4066,4.3409,4.3329,4.3329,4.3329,4.3329,4.3329,4.3329,4.229,4.1085,3.9986,3.8738,3.7586,3.6452,3.6358,3.6358,3.6358,3.6358,3.6358,3.6358,3.6358,3.6358,3.6358,3.4969,3.3662,3.5622,0.0,0.0,0.0,0.0,0.0,0.0,0.0,0.0,0.0,0.0,0.0,0.0,0.0,0.0,0.0,0.0,0.0,0.0,0.0,0.0,0.0,0.0,0.0,0.0,0.0,0.0,0.0,0.0,0.0,0.0,4.6413,4.6786,4.7225,4.797,4.8359,4.8359,4.8781,4.9001,4.9001,4.9001,4.9001,4.9001,4.9001,4.9001,4.9001,4.9001,4.9001,4.9001,4.9001,4.9001,4.9001,4.9001,4.9001,4.9001,4.9001,4.9001,4.9001,4.9001,4.9001,4.9001,4.9001,4.9001,4.9001,4.9001,4.9001,4.9001,4.9001,4.9001,4.9001,4.9001,4.9001,4.9001,4.9001,4.9001,4.9001,4.9001,4.9001,4.9001,4.9001,4.9001,4.9001,4.9001,4.8225,4.7306,4.6314,4.5064,4.4004,4.3409,4.3329,4.3329,4.3329,4.3329,4.3329,4.3329,4.2644,4.1601,3.9986,3.9183,3.8121,3.6452,3.6358,3.6358,3.6358,3.6358,3.6358,3.6358,3.6358,3.6358,3.6358,3.5571,3.4154,0.0,0.0,0.0,0.0,0.0,0.0,0.0,0.0,0.0,0.0,0.0,0.0,0.0,0.0,0.0,0.0,0.0,0.0,0.0,0.0,0.0,0.0,0.0,0.0,0.0,0.0,0.0,0.0,0.0,0.0,0.0,4.7547,4.7953,4.802,4.8663,4.9001,4.9001,4.9001,4.9001,4.9001,4.9001,4.9001,4.9001,4.9001,4.9001,4.9001,4.9001,4.9001,4.9001,4.9001,4.9001,4.9001,4.9001,4.9001,4.9001,4.9001,4.9001,4.9001,4.9001,4.9001,4.9001,4.9001,4.9001,4.9001,4.9001,4.9001,4.9001,4.9001,4.9001,4.9001,4.9001,4.9001,4.9001,4.9001,4.9001,4.9001,4.9001,4.9001,4.9001,4.9001,4.9001,4.9001,4.9001,4.8289,4.7373,4.6314,4.454,4.3329,4.3329,4.3329,4.3329,4.3329,4.3329,4.3329,4.3329,4.3329,4.2386,4.0145,3.9986,3.893,3.6628,3.6452,3.6358,3.6358,3.6358,3.6358,3.6358,3.6358,3.6358,3.6358,3.6358,3.4945,0.0,0.0,0.0,0.0,0.0,0.0,0.0,0.0,0.0,0.0,0.0,0.0,0.0,0.0,0.0,0.0,0.0,0.0,0.0,0.0,0.0,0.0,0.0,0.0,0.0,0.0,0.0,0.0,0.0,0.0,4.7631,4.7834,4.8189,4.8748,4.8917,4.9001,4.9001,4.9001,4.9001,0.0,4.9001,4.9001,4.9001,4.9001,4.9001,4.9001,4.9001,4.9001,4.9001,4.9001,4.9001,4.9001,4.9001,4.9001,4.9001,4.9001,4.9001,4.9001,4.9001,4.9001,4.9001,4.9001,4.9001,4.9001,4.9001,4.9001,4.9001,4.9001,4.9001,4.9001,4.9001,4.9001,4.9001,4.9001,4.9001,4.9001,4.9001,4.9001,4.9001,4.9001,4.9001,4.9001,4.9001,4.8861,4.8144,4.6454,4.454,4.3329,4.3329,4.3329,4.3329,4.3329,4.3329,4.3329,4.3329,4.3329,4.2725,4.1337,4.0404,3.9271,3.7756,3.6883,3.6358,3.6358,3.6358,3.6358,3.6358,3.6358,3.6358,3.6358,3.6358,3.4945,0.0,0.0,0.0,0.0,0.0,0.0,0.0,0.0,0.0,0.0,0.0,0.0,0.0,0.0,0.0,0.0,0.0,0.0,0.0,0.0,0.0,0.0,0.0,0.0,0.0,0.0,0.0,0.0,0.0,4.7665,4.8392,4.8443,4.8612,4.8984,4.9299,4.9462,4.9462,4.9838,4.9993,4.9993,4.9993,4.9838,4.9462,4.9168,4.9001,4.9001,4.9001,4.9001,4.9001,4.9001,4.9001,4.9001,4.9001,4.9001,4.9001,4.9001,4.9001,4.9001,4.9001,4.9001,4.9001,4.9001,4.9001,4.9001,4.9001,4.9001,4.9001,4.9001,4.9001,4.9001,4.9001,4.9001,4.9001,4.9001,4.9001,4.9001,4.9001,4.9001,4.9001,4.9001,4.9001,4.9001,4.9001,4.8225,4.7306,4.6314,4.454,4.3329,4.3329,4.3329,4.3329,4.3329,4.3329,4.3329,4.3329,4.3329,4.2805,4.167,4.049,3.936,3.8107,3.6977,3.6358,3.6358,3.6358,3.6358,3.6358,3.6358,3.6358,3.6358,3.6358,3.4945,0.0,0.0,0.0,0.0,0.0,0.0,0.0,0.0,0.0,0.0,0.0,0.0,0.0,0.0,0.0,0.0,0.0,0.0,0.0,0.0,0.0,0.0,0.0,0.0,0.0,0.0,0.0,0.0,0.0,4.8523,4.9118,4.9316,4.9359,4.9359,4.9879,5.0185,5.0185,5.077,5.1086,5.1086,5.1086,5.077,5.0185,4.9639,4.9212,4.9001,4.9001,4.9001,4.9001,4.9001,4.9001,4.9001,4.9001,4.9001,4.9001,4.9001,4.9001,4.9001,4.9001,4.9001,4.9001,4.9001,4.9001,4.9001,4.9001,4.9001,4.9001,4.9001,4.9001,4.9001,4.9001,4.9001,4.9001,4.9001,4.9001,4.9001,4.9001,4.9001,4.9001,4.9001,4.9001,4.9001,4.9001,4.7589,4.6384,4.6244,4.469,4.3488,4.3329,4.3329,4.3329,4.3329,4.3329,4.3329,4.3329,4.3329,4.29,4.1932,4.0661,3.9448,3.8469,3.7163,3.6358,3.6358,3.6358,3.6358,3.6358,3.6358,3.6358,3.6358,3.6358,3.5054,0.0,0.0,0.0,0.0,0.0,0.0,0.0,0.0,0.0,0.0,0.0,0.0,0.0,0.0,0.0,0.0,0.0,0.0,0.0,0.0,0.0,0.0,0.0,0.0,0.0,0.0,0.0,0.0,4.9008,4.9775,4.9861,5.0462,5.0823,5.0823,5.0929,5.0929,5.0929,5.1034,5.1086,5.1086,5.1086,5.1034,5.0929,5.0876,5.0146,4.9001,4.9001,4.9001,4.9001,4.9001,4.9001,4.9001,4.9001,4.9001,4.9001,4.9001,4.9001,4.9001,4.9001,4.9001,4.9001,4.9001,4.9001,4.9001,4.9001,4.9001,4.9001,4.9001,4.9001,4.9001,4.9001,4.9001,4.9001,4.9001,4.9001,4.9001,4.9001,4.9001,4.9001,4.9001,4.9001,4.9001,4.9001,4.8144,4.7172,4.6314,4.5285,4.4297,4.3409,4.3329,4.3329,4.3329,4.3329,4.3329,4.3329,4.3329,4.325,4.3076,4.1099,3.9812,3.9637,3.7599,3.6358,3.6358,3.6358,3.6358,3.6358,3.6358,3.6358,3.6358,3.6358,3.5571,0.0,0.0,0.0,0.0,0.0,0.0,0.0,0.0,0.0,0.0,0.0,0.0,0.0,0.0,0.0,0.0,0.0,0.0,0.0,0.0,0.0,0.0,0.0,0.0,0.0,0.0,0.0,0.0,4.9631,5.0185,5.0608,5.0929,5.1086,5.1086,5.1444,5.1643,5.1643,5.2083,5.226,5.226,5.226,5.2036,5.1643,5.1643,5.0858,4.9563,4.9563,4.9376,4.9001,4.9001,4.9001,4.9001,4.9001,4.9001,4.9001,4.9001,4.9001,4.9001,4.9001,4.9001,4.9001,4.9001,4.9001,4.9001,4.9001,4.9001,4.9001,4.9001,4.9001,4.9001,4.9001,4.9001,4.9001,4.9001,4.9001,4.9001,4.9001,4.9001,4.9001,4.9001,4.9001,4.9001,4.9001,4.8225,4.7306,4.6314,4.5431,4.4434,4.3409,4.3329,4.3329,4.3329,4.3329,4.3329,4.3329,4.3329,4.3329,4.3329,4.1782,4.0575,3.9899,3.8302,3.707,3.6452,3.6358,3.6358,3.6358,3.6358,3.6358,3.6358,3.6358,3.5259,0.0,0.0,0.0,0.0,0.0,0.0,0.0,0.0,0.0,0.0,0.0,0.0,0.0,0.0,0.0,0.0,0.0,0.0,0.0,0.0,0.0,0.0,0.0,0.0,0.0,0.0,0.0,0.0,5.0445,5.0752,5.1343,5.1512,5.1611,5.1611,5.2131,5.2381,5.2381,5.2937,5.3206,5.3206,5.3206,5.2893,5.2381,5.2381,5.1692,5.0554,5.0335,4.9879,4.9256,4.9256,4.9152,4.9001,4.9001,4.9001,4.9001,4.9001,4.9001,4.9001,4.9001,4.9001,4.9001,4.9001,4.9001,4.9001,4.9001,4.9001,4.9001,4.9001,4.9001,4.9001,4.9001,4.9001,4.9001,4.9001,4.9001,4.9001,4.9001,4.9001,4.9001,4.9001,4.9001,4.9001,4.9001,4.8433,4.7589,4.6384,4.5634,4.4721,4.3472,4.3329,4.3329,4.3329,4.3329,4.3329,4.3329,4.3329,4.3329,4.3329,4.1947,4.0831,3.9899,3.8469,3.723,3.6452,3.6358,3.6358,3.6358,3.6358,3.6358,3.6358,3.6358,3.5343,0.0,0.0,0.0,0.0,0.0,0.0,0.0,0.0,0.0,0.0,0.0,0.0,0.0,0.0,0.0,0.0,0.0,0.0,0.0,0.0,0.0,0.0,0.0,0.0,0.0,0.0,0.0,0.0,5.1643,5.2,5.2065,5.2725,5.3103,5.3103,5.3103,5.3146,5.3146,5.3164,5.3206,5.3206,5.3206,5.3164,5.3146,5.3146,5.2725,5.1952,5.1343,5.0608,4.9976,4.9976,4.9563,4.9001,4.9001,4.9001,4.9001,4.9001,4.9001,4.9001,4.9001,4.9001,4.9001,4.9001,4.9001,4.9001,4.9001,4.9001,4.9001,4.9001,4.9001,4.9001,4.9001,4.9001,4.9001,4.9001,4.9001,4.9001,4.9001,4.9001,4.9001,4.9001,4.9001,4.9001,4.9001,4.894,4.8306,4.647,4.6173,4.5473,4.3551,4.3329,4.3329,4.3329,4.3329,4.3329,4.3329,4.3329,4.3329,4.3329,4.1183,3.9986,3.9899,3.7691,3.6452,3.6358,3.6358,3.6358,3.6358,3.6358,3.6358,3.6358,3.6358,3.6358,0.0,0.0,0.0,0.0,0.0,0.0,0.0,0.0,0.0,0.0,0.0,0.0,0.0,0.0,0.0,0.0,0.0,0.0,0.0,0.0,0.0,0.0,0.0,0.0,0.0,0.0,0.0,0.0,0.0,5.2335,5.2769,5.306,5.3206,5.3206,5.3206,5.3206,5.3206,5.3206,5.3206,5.3206,5.3206,5.3206,5.3206,5.3206,5.306,5.2769,5.2572,5.1777,5.0662,5.0185,4.9879,4.9622,4.9152,4.9001,4.9001,4.9001,4.9001,4.9001,4.9001,4.9001,4.9001,4.9001,4.9001,4.9001,4.9001,4.9001,4.9001,4.9001,4.9001,4.9001,4.9001,4.9001,4.9001,4.9001,4.9001,4.9001,4.9001,4.9001,4.9001,4.9001,4.9001,4.9001,4.9001,4.9001,4.837,4.6454,4.6173,4.5473,4.3551,4.3329,4.3329,4.3329,4.3329,4.3329,4.3329,4.3329,4.3329,4.3329,4.2563,4.1248,3.9391,3.8512,3.7216,3.5316,3.5316,3.5655,3.6358,3.6358,3.6358,3.6358,3.6358,3.5966,0.0,0.0,0.0,0.0,0.0,0.0,0.0,0.0,0.0,0.0,0.0,0.0,0.0,0.0,0.0,0.0,0.0,0.0,0.0,0.0,0.0,0.0,0.0,0.0,0.0,0.0,0.0,0.0,0.0,0.0,5.3164,5.3206,5.3206,5.3206,5.3206,5.3206,5.3206,5.3206,5.3206,5.3206,5.3206,5.3206,5.3206,5.3206,5.3206,5.3206,5.3206,5.2527,5.1393,5.0911,5.0554,5.0297,4.9622,4.9376,4.9316,4.9107,4.9001,4.9001,4.9001,4.9001,4.9001,4.9001,4.9001,4.9001,4.9001,4.9001,4.9001,4.9001,4.9001,4.9001,4.9001,4.9001,4.9001,4.9001,4.9001,4.9001,4.9001,4.9001,4.9001,4.9001,4.9001,4.9001,4.9001,4.9001,4.837,4.6454,4.6173,4.5473,4.3551,4.3329,4.3329,4.3329,4.3329,4.3329,4.3329,4.3329,4.324,4.3015,4.2654,4.1256,3.8754,3.8317,3.7037,3.4726,3.4726,3.5077,3.5805,3.5805,3.5805,3.5805,3.5805,3.5125,0.0,0.0,0.0,0.0,0.0,0.0,0.0,0.0,0.0,0.0,0.0,0.0,0.0,0.0,0.0,0.0,0.0,0.0,0.0,0.0,0.0,0.0,0.0,0.0,0.0,0.0,0.0,0.0,5.3206,5.3206,5.3206,5.3206,5.3206,5.3206,5.3206,5.3206,5.3206,5.3206,5.3206,5.3206,5.3206,5.3206,5.3206,5.3206,5.3206,5.3206,5.3206,5.2769,5.2112,5.2112,5.171,5.1034,5.0352,5.0016,4.9976,4.9316,4.9063,4.9001,4.9001,4.9001,4.9001,4.9001,4.9001,4.9001,4.9001,4.9001,4.9001,4.9001,4.9001,4.9001,4.9001,4.9001,4.9001,4.9001,4.9001,4.9001,4.9001,4.9001,4.9001,4.9001,4.9001,4.9001,4.9001,4.9001,4.837,4.6454,4.6173,4.5473,4.3551,4.3329,4.3329,4.3329,4.3329,4.3329,4.3299,4.3299,4.303,4.2372,4.1309,3.9833,3.8131,3.6941,3.5768,3.4675,3.4675,3.4675,3.4675,3.47,3.4726,3.4726,3.4726,3.3949,3.7229,0.0,0.0,0.0,0.0,0.0,0.0,0.0,0.0,0.0,0.0,0.0,0.0,0.0,0.0,0.0,0.0,0.0,0.0,0.0,0.0,0.0,0.0,0.0,0.0,0.0,0.0,0.0,5.3206,5.3206,5.3206,5.3206,5.3206,5.3206,5.3206,5.3206,5.3206,5.3206,5.3206,5.3206,5.3206,5.3206,5.3206,5.3206,5.3206,5.3206,5.3206,5.3103,5.2831,5.2335,5.2,5.1741,5.1068,5.077,5.077,5.0572,5.0202,4.9722,4.9722,4.9419,4.9001,4.9001,4.9001,4.9001,4.9001,4.9001,4.9001,4.9001,4.9001,4.9001,4.9001,4.9001,4.9001,4.9001,4.9001,4.9001,4.9001,4.9001,4.9001,4.9001,4.9001,4.9001,4.9001,4.9001,4.837,4.6454,4.6173,4.5473,4.3551,4.3329,4.3329,4.3329,4.3329,4.3135,4.2671,4.2626,4.2342,4.1698,4.1394,4.0031,3.759,3.7154,3.5898,3.3633,3.3533,3.3533,3.3533,3.4336,3.4726,3.4726,3.4726,3.3477,0.0,0.0,0.0,0.0,0.0,0.0,4.3226,4.3856,4.4325,0.0,0.0,0.0,0.0,0.0,0.0,0.0,0.0,0.0,0.0,0.0,0.0,0.0,0.0,0.0,0.0,5.3206,5.3206,5.3206,5.3206,5.3206,5.3206,5.3206,5.3206,5.3206,5.3206,5.3206,5.3206,5.3206,5.3206,5.3206,5.3206,5.3206,5.3206,5.3206,5.3206,5.3206,5.3206,5.3206,5.3164,5.2725,5.2554,5.249,5.1808,5.1494,5.1494,5.1189,5.0608,4.9976,4.9976,4.9563,4.9001,4.9001,4.9001,4.9001,4.9001,4.9001,4.9001,4.9001,4.9001,4.9001,4.9001,4.9001,4.9001,4.9001,4.9001,4.9001,4.9001,4.9001,4.9001,4.9001,4.9001,4.9001,4.9001,4.9001,4.8513,4.702,4.6454,4.569,4.4128,4.3551,4.3329,4.3329,4.309,4.2776,4.2387,4.2102,4.1669,4.101,4.0965,3.9944,3.7521,3.7004,3.5791,3.3797,3.3313,3.3081,3.3081,3.3721,3.4035,3.4035,3.4035,3.2991,0.0,0.0,0.0,0.0,0.0,0.0,4.3864,4.4316,4.4796,4.613,0.0,0.0,0.0,0.0,0.0,0.0,0.0,0.0,0.0,0.0,0.0,0.0,0.0,0.0,5.3206,5.3206,5.3206,5.3206,5.3206,5.3206,5.3206,5.3206,5.3206,5.3206,5.3206,5.3206,5.3206,5.3206,5.3206,5.3206,5.3206,5.3206,5.3206,5.3206,5.3206,5.3206,5.3206,5.3206,5.3206,5.3206,5.3206,5.3146,5.249,5.2224,5.2159,5.1562,5.0876,5.0241,5.0129,4.9681,4.9107,4.9001,4.9001,4.9001,4.9001,4.9001,4.9001,4.9001,4.9001,4.9001,4.9001,4.9001,4.9001,4.9001,4.9001,4.9001,4.9001,4.9001,4.9001,4.9001,4.9001,4.9001,4.9001,4.9001,4.8656,4.7737,4.6884,4.5977,4.4946,4.3928,4.3289,4.3225,4.2641,4.2222,4.2147,4.1609,4.0995,4.0337,4.0292,3.955,3.7857,3.6774,3.5734,3.4746,3.3641,3.3081,3.3081,3.3081,3.3081,3.3081,3.3081,3.2339,0.0,0.0,0.0,0.0,0.0,0.0,4.4623,4.5689,4.6513,0.0,0.0,0.0,0.0,0.0,0.0,0.0,0.0,0.0,0.0,0.0,0.0,0.0,0.0,0.0,5.3206,5.3206,5.3206,5.3206,5.3206,5.3206,5.3206,5.3206,5.3206,5.3206,5.3206,5.3206,5.3206,5.3206,5.3206,5.3206,5.3206,5.3206,5.3206,5.3206,5.3206,5.3206,5.3206,5.3206,5.3206,5.3206,5.3206,5.3164,5.3042,5.2999,5.298,5.2831,5.2335,5.1593,5.1086,5.0407,4.9722,4.9152,4.9001,4.9001,4.9001,4.9001,4.9001,4.9001,4.9001,4.9001,4.9001,4.9001,4.9001,4.9001,4.9001,4.9001,4.9001,4.9001,4.9001,4.9001,4.9001,4.9001,4.9001,4.9001,4.8656,4.7737,4.744,4.6678,4.502,4.4167,4.338,4.2629,4.1968,4.1354,4.0831,4.0666,4.0307,3.9649,3.9619,3.9077,3.7843,3.6774,3.5734,3.4746,3.3641,3.3081,3.3081,3.3081,3.3081,3.3081,3.3081,3.1877,0.0,0.0,0.0,4.2469,0.0,0.0,0.0,4.632,4.7163,4.7289,0.0,0.0,0.0,0.0,0.0,0.0,0.0,0.0,0.0,0.0,0.0,0.0,0.0,0.0,5.3206,5.3206,5.3206,5.3206,5.3206,5.3206,5.3206,5.3206,5.3206,5.3206,5.3206,5.3206,5.3206,5.3206,5.3206,5.3206,5.3206,5.3206,5.3206,5.3206,5.3206,5.3206,5.3206,5.3206,5.3206,5.3206,5.3206,5.3206,5.3206,5.3206,5.3206,5.3206,5.2707,5.2047,5.171,5.0911,4.9919,4.9622,4.9256,4.9001,4.9001,4.9001,4.9001,4.9001,4.9001,4.9001,4.9001,4.9001,4.9001,4.9001,4.9001,4.9001,4.9001,4.9001,4.9001,4.9001,4.9001,4.9001,4.9001,4.9001,4.8861,4.837,4.7868,4.7125,4.5811,4.4598,4.3488,4.2604,4.1565,4.0756,4.0427,4.0098,3.9768,3.9439,3.9424,3.9177,3.862,3.7084,3.5507,3.3953,3.3398,3.3081,3.3081,3.3081,3.3081,3.3081,3.3081,3.2064,0.0,0.0,0.0,0.0,0.0,4.5149,0.0,0.0,0.0,4.8177,0.0,0.0,0.0,0.0,0.0,0.0,0.0,0.0,0.0,0.0,0.0,0.0,0.0,0.0,0.0,5.3206,5.3206,5.3206,5.3206,5.3206,5.3206,5.3206,5.3206,5.3206,5.3206,5.3206,5.3206,5.3206,5.3206,5.3206,5.3206,5.3206,5.3206,5.3206,5.3206,5.3206,5.3206,5.3206,5.3206,5.3206,5.3206,5.3206,5.3206,5.3206,5.3206,5.3206,5.2813,5.2271,5.2159,5.1376,5.0335,5.0072,4.958,4.9001,4.9001,4.9001,4.9001,4.9001,4.9001,4.9001,4.9001,4.9001,4.9001,4.9001,4.9001,4.9001,4.9001,4.9001,4.9001,4.9001,4.9001,4.9001,4.9001,4.9001,4.9001,4.9001,4.8253,4.7324,4.6405,4.4772,4.3283,4.234,4.1003,4.0217,4.0217,3.9723,3.9424,3.9424,3.9424,3.9424,3.9424,3.7329,3.5183,3.3154,3.3081,3.3081,3.3081,3.3081,3.3081,3.3081,3.3081,3.2326,0.0,0.0,0.0,0.0,4.5132,0.0,0.0,0.0,4.8196,4.8288,0.0,0.0,0.0,0.0,0.0,0.0,0.0,0.0,0.0,0.0,0.0,0.0,0.0,0.0,0.0,5.3206,5.3206,5.3206,5.3206,5.3206,5.3206,5.3206,5.3206,5.3206,5.3206,5.3206,5.3206,5.3206,5.3206,5.3206,5.3206,5.3206,5.3206,5.3206,5.3206,5.3206,5.3206,5.3206,5.3206,5.3206,5.3206,5.3206,5.3206,5.3206,5.3206,5.3206,5.3164,5.2999,5.2335,5.2,5.1643,5.039,4.958,4.9001,4.9001,4.9001,4.9001,4.9001,4.9001,4.9001,4.9001,4.9001,4.9001,4.9001,4.9001,4.9001,4.9001,4.9001,4.9001,4.9001,4.9001,4.9001,4.9001,4.9001,4.9001,4.9001,4.8321,4.7241,4.5559,4.4096,4.2506,4.0855,3.9991,3.9529,3.9529,3.9469,3.9424,3.9424,3.9424,3.9424,3.9424,3.7329,3.5183,3.3154,3.3081,3.3081,3.3081,3.3081,3.3081,3.3081,3.3081,3.1877,0.0,0.0,0.0,0.0,0.0,0.0,0.0,0.0,4.8306,0.0,0.0,0.0,0.0,0.0,0.0,0.0,0.0,0.0,0.0,0.0,0.0,0.0,0.0,0.0,0.0,0.0,0.0,0.0,5.3206,5.3206,5.3206,5.3206,5.3206,5.3206,5.3206,5.3206,5.3206,5.3206,5.3206,5.3206,5.3206,5.3206,5.3206,5.3206,5.3206,5.3206,5.3206,5.3206,5.3206,5.3206,5.3206,5.3206,5.3206,5.3206,5.3206,5.3206,5.3206,5.3164,5.2831,5.2445,5.1952,5.0981,5.0462,5.0146,4.9722,4.9563,4.9521,4.9107,4.9001,4.9001,4.9001,4.9001,4.9001,4.9001,4.9001,4.9001,4.9001,4.9001,4.9001,4.9001,4.9001,4.9001,4.9001,4.9001,4.8849,4.8443,4.8122,4.7339,4.5727,4.4122,4.2664,4.1445,4.0173,3.9424,3.9424,3.9424,3.9424,3.9424,3.9424,3.8855,3.7558,3.6682,3.5183,3.3154,3.3081,3.3081,3.3081,3.3081,3.3081,3.3081,3.3081,3.2525,4.4406,0.0,0.0,0.0,0.0,0.0,0.0,0.0,0.0,0.0,0.0,0.0,0.0,0.0,0.0,0.0,0.0,0.0,0.0,0.0,0.0,0.0,0.0,0.0,0.0,0.0,0.0,5.3206,5.3206,5.3206,5.3206,5.3206,5.3206,5.3206,5.3206,5.3206,5.3206,5.3206,5.3206,5.3206,5.3206,5.3206,5.3206,5.3206,5.3206,5.3206,5.3206,5.3206,5.3206,5.3206,5.3206,5.3206,5.3206,5.3206,5.3206,5.3206,5.3206,5.3206,5.3206,5.2725,5.2,5.1544,5.1241,5.0981,5.0445,5.0185,4.9919,4.9419,4.9152,4.9001,4.9001,4.9001,4.9001,4.9001,4.9001,4.9001,4.9001,4.9001,4.9001,4.9001,4.9001,4.8934,4.8731,4.8714,4.8528,4.8003,4.7581,4.6845,4.5497,4.3853,4.2476,4.1722,4.0324,3.9424,3.9424,3.9424,3.9424,3.9424,3.9424,3.8457,3.6277,3.6198,3.5183,3.3154,3.3081,3.3081,3.3081,3.3081,3.2993,3.2842,3.3006,3.2896,0.0,0.0,0.0,4.6874,0.0,0.0,0.0,0.0,4.8306,0.0,0.0,0.0,0.0,0.0,0.0,0.0,0.0,0.0,0.0,0.0,0.0,0.0,0.0,0.0,0.0,0.0,5.3206,5.3206,5.3206,5.3206,5.3206,5.3206,5.3206,5.3206,5.3206,5.3206,5.3206,5.3206,5.3206,5.3206,5.3206,5.3206,5.3206,5.3206,5.3206,5.3206,5.3206,5.3206,5.3206,5.3206,5.3206,5.3206,5.3206,5.3206,5.3206,5.3206,5.3206,5.3206,5.3206,5.2725,5.2112,5.2047,5.1643,5.1086,5.1086,5.0554,4.9976,4.9976,4.9521,4.9001,4.9001,4.9001,4.9001,4.9001,4.9001,4.9001,4.9001,4.9001,4.9001,4.9001,4.9001,4.8781,4.8071,4.7953,4.7953,4.7919,4.6701,4.5429,4.4561,4.3037,4.169,4.0811,3.9935,3.9424,3.9424,3.9424,3.9424,3.9424,3.9424,3.8457,3.6277,3.6198,3.5183,3.3154,3.3081,3.3081,3.3081,3.3081,3.2792,3.2252,3.2817,3.2426,0.0,0.0,4.7553,4.7847,0.0,0.0,0.0,0.0,0.0,0.0,0.0,0.0,0.0,0.0,0.0,0.0,0.0,0.0,0.0,0.0,0.0,0.0,0.0,0.0,0.0,0.0,0.0,5.3206,5.3206,5.3206,5.3206,5.3206,5.3206,5.3206,5.3206,5.3206,5.3206,5.3206,5.3206,5.3206,5.3206,5.3206,5.3206,5.3206,5.3206,5.3206,5.3206,5.3206,5.3206,5.3206,5.3206,5.3206,5.3206,5.3206,5.3206,5.3206,5.3206,5.3206,5.3206,5.3042,5.2831,5.2831,5.2662,5.2417,5.1922,5.1593,5.1172,5.0223,4.9821,4.9563,4.9107,4.9001,4.9001,4.9001,4.9001,4.9001,4.9001,4.9001,4.9001,4.9001,4.9001,4.8781,4.8054,4.7513,4.7005,4.6532,4.6024,4.5402,4.4615,4.3575,4.252,4.1658,4.0758,4.006,3.9409,3.9424,3.9424,3.9424,3.9424,3.8782,3.7343,3.6604,3.5398,3.3606,3.2899,3.2328,3.1964,3.1964,3.1863,3.1675,3.1863,3.1772,4.7459,4.7921,0.0,4.8673,4.8765,0.0,4.9132,0.0,0.0,0.0,0.0,0.0,0.0,0.0,0.0,0.0,0.0,0.0,0.0,0.0,0.0,0.0,0.0,0.0,0.0,0.0,5.3206,5.3206,5.3206,5.3206,0.0,0.0,5.3206,5.3206,5.3206,5.3206,5.3206,5.3206,5.3206,5.3206,5.3206,5.3206,5.3206,5.3206,5.3206,5.3206,5.3206,5.3206,5.3206,5.3206,5.3206,5.3206,5.3206,5.3206,5.3206,5.3206,5.3206,5.3206,5.3206,5.3206,5.3206,5.3206,5.3206,5.3103,5.2662,5.2317,5.1838,5.0716,5.0185,4.9821,4.9152,4.9001,4.9001,4.9001,4.9001,4.9001,4.9001,4.9001,4.9001,4.9001,4.8798,4.8376,4.7648,4.6904,4.6244,4.5771,4.5483,4.5128,4.4637,4.3814,4.2986,4.2062,4.1213,4.0378,3.9481,3.9424,3.932,3.9065,3.905,3.8485,3.7181,3.6129,3.5012,3.3779,3.2567,3.1838,3.1687,3.1486,3.1298,3.1122,3.1122,3.1009]},{"header":{"parameterUnit":"m.s-1","parameterCategory":1,"la1":30.6,"la2":29.2853,"lo1":-89.7004,"lo2":-87.6739,"dx":0.0162,"dy":0.0183,"nx":112,"ny":82,"refTime":"2023-02-02T06:00:00:Z","depth":0,"parameterNumber":3,"parameterNumberName":"V-component_of_WINDS"},"data":[0.0,0.0,0.0,0.0,0.0,0.0,0.0,0.0,0.0,0.0,0.0,0.0,0.0,0.0,0.0,0.0,0.0,0.0,0.0,0.0,0.0,0.0,0.0,0.0,0.0,0.0,0.0,0.0,0.0,0.0,0.0,0.0,0.0,0.0,0.0,0.0,0.0,0.0,0.0,0.0,0.0,0.0,0.0,0.0,0.0,0.0,0.0,0.0,0.0,0.0,0.0,0.0,0.0,0.0,0.0,0.0,0.0,0.0,0.0,0.0,0.0,0.0,0.0,0.0,0.0,0.0,0.0,0.0,0.0,0.0,0.0,0.0,0.0,0.0,0.0,0.0,0.0,0.0,0.0,0.0,0.0,0.0,0.0,0.0,0.0,0.0,0.0,0.0,0.0,0.0,0.0,0.6903,0.7345,0.7678,0.7678,0.8334,0.8757,0.8711,0.0,0.0,0.0,0.0,0.0,0.0,0.0,0.0,0.0,0.0,0.0,0.0,0.0,0.0,0.0,0.0,0.0,0.0,0.0,0.0,0.0,0.0,0.0,0.0,0.0,0.0,0.0,0.0,0.0,0.0,0.0,0.0,0.0,0.0,0.0,0.0,0.0,0.0,0.0,0.0,0.0,0.0,0.0,0.0,0.0,0.0,0.0,0.0,0.0,0.0,0.0,0.0,0.0,0.0,0.0,0.0,0.0,0.0,0.0,0.0,0.0,0.0,0.0,0.0,0.0,0.0,0.0,0.0,0.0,0.0,0.0,0.0,0.0,0.0,0.0,0.0,0.0,0.0,0.0,0.0,0.0,0.0,0.0,0.0,0.0,0.0,0.0,0.0,0.0,0.0,0.0,0.0,0.0,0.0,0.0,0.0,0.0,0.0,0.0,0.0,0.0,0.0,0.0,0.0,0.8022,0.8294,0.7846,0.7555,0.7555,0.8201,0.8516,0.8293,0.0,0.0,0.0,0.0,0.0,0.0,0.0,0.0,0.0,0.0,0.0,0.0,0.0,0.0,0.0,0.0,0.0,0.0,0.0,0.0,0.0,0.0,0.0,0.0,0.0,0.0,0.0,0.0,0.0,0.0,0.0,0.0,0.0,0.0,0.0,0.0,0.0,0.0,0.0,0.0,0.0,0.0,0.0,0.0,0.0,0.0,0.0,0.0,0.0,0.0,0.0,0.0,0.0,0.0,0.0,0.0,0.0,0.0,0.0,0.0,0.0,0.0,0.0,0.0,0.0,0.0,0.0,0.0,0.0,0.0,0.0,0.0,0.0,0.0,0.0,0.0,0.0,0.0,0.0,0.0,0.0,0.0,0.0,0.0,0.0,0.0,0.0,0.0,0.0,0.0,0.0,0.0,0.0,0.0,0.0,0.0,0.0,0.0,0.0,0.0,0.0,0.0,0.0,0.8782,0.9068,0.9195,0.8909,0.8669,0.8669,0.9026,0.915,0.9023,0.9184,0.0,0.0,0.0,0.0,0.0,0.0,0.0,0.0,0.0,0.0,0.0,0.0,0.0,0.0,0.0,0.0,0.0,0.0,0.0,0.0,0.0,0.0,0.0,0.0,0.0,0.0,0.0,0.0,0.0,0.0,0.0,0.0,0.0,0.0,0.0,0.0,0.0,0.0,0.0,0.0,0.0,0.0,0.0,0.0,0.0,0.0,0.0,0.0,0.0,0.0,0.0,0.0,0.0,0.0,0.0,0.0,0.0,0.0,0.0,0.0,0.0,0.0,0.0,0.0,0.0,0.0,0.0,0.0,0.0,0.0,0.0,0.0,0.0,0.0,0.0,0.0,0.0,0.0,0.0,0.0,0.0,0.0,0.0,0.0,0.0,0.0,0.0,0.0,0.0,0.0,0.0,0.0,0.0,0.0,0.0,0.0,0.0,0.0,0.0,0.0,0.0,0.0,0.9958,0.9893,0.9893,0.9893,0.9893,0.9893,1.0064,1.0089,0.9793,1.0189,0.0,0.0,0.0,0.0,0.0,0.0,0.0,0.0,0.0,0.0,0.0,0.0,0.0,0.0,0.0,0.0,0.0,0.0,0.0,0.0,0.0,0.0,0.0,0.0,0.0,0.0,0.0,0.0,0.0,0.0,0.0,0.0,0.0,0.0,0.0,0.0,0.0,0.0,0.0,0.0,0.0,0.0,0.0,0.0,0.0,0.0,0.0,0.0,0.0,0.0,0.0,0.0,0.0,0.0,0.0,0.0,0.0,0.0,0.0,0.0,0.0,0.0,0.0,0.0,0.0,0.0,0.0,0.0,0.0,0.0,0.0,0.0,0.0,0.0,0.0,0.0,0.0,0.0,0.0,0.0,0.0,0.0,0.0,0.0,0.0,0.0,0.0,0.0,0.0,0.0,0.0,0.0,0.0,0.0,0.0,0.0,0.0,0.0,0.0,0.0,0.0,0.0,1.08,1.0564,1.0564,1.0564,1.0564,1.0564,1.1224,1.1211,1.0161,1.1552,0.0,0.0,0.0,0.0,0.0,0.0,0.0,0.0,0.0,0.0,0.0,0.0,0.0,0.0,0.0,0.0,0.0,0.0,0.0,0.0,0.0,0.0,0.0,0.0,0.0,0.0,0.0,0.0,0.0,0.0,0.0,0.0,0.0,0.0,0.0,0.0,0.0,0.0,0.0,0.0,0.0,0.0,0.0,0.0,0.0,0.0,0.0,0.0,0.0,0.0,0.0,0.0,0.0,0.0,0.0,0.0,0.0,0.0,0.0,0.0,0.0,0.0,0.0,0.0,0.0,0.0,0.0,0.0,0.0,0.0,0.0,0.0,0.0,0.0,0.0,0.0,0.0,0.0,0.0,0.0,0.0,0.0,0.0,0.0,0.0,0.0,0.0,0.0,0.0,0.0,0.0,0.0,0.0,0.0,0.0,0.0,0.0,0.0,0.0,0.0,0.0,0.0,1.2188,1.2089,0.0,1.2089,1.2089,1.2089,1.2397,1.215,1.1232,0.0,0.0,0.0,0.0,0.0,0.0,0.0,0.0,0.0,0.0,0.0,0.0,0.0,0.0,0.0,0.0,0.0,0.0,0.0,0.0,0.0,0.0,0.0,0.0,0.0,0.0,0.0,0.0,0.0,0.0,0.0,0.0,0.0,0.0,0.0,0.0,0.0,0.0,0.0,0.0,0.0,0.0,0.0,0.0,0.0,0.0,0.0,0.0,0.0,0.0,0.0,0.0,0.0,0.0,0.0,0.0,0.0,0.0,0.0,0.0,0.0,0.0,0.0,0.0,0.0,0.0,0.0,0.0,0.0,0.0,0.0,0.0,0.0,0.0,0.0,0.0,0.0,0.0,0.0,0.0,0.0,0.0,0.0,0.0,0.0,0.0,0.0,0.0,0.0,0.0,0.0,0.0,0.0,0.0,0.0,0.0,0.0,0.0,0.0,0.0,0.0,0.0,1.3373,1.3191,1.3009,0.0,1.3009,1.3009,1.3009,1.3243,1.3061,1.2205,0.0,0.0,0.0,0.0,0.0,0.0,0.0,0.0,0.0,0.0,0.0,0.0,0.0,0.0,0.0,0.0,0.0,0.0,0.0,0.0,0.0,0.0,0.0,0.0,0.0,0.0,0.0,0.0,0.0,0.0,0.0,0.0,0.0,0.0,0.0,0.0,0.0,0.0,0.0,0.0,0.0,0.0,0.0,0.0,0.0,0.0,0.0,0.0,0.0,0.0,0.0,0.0,0.0,0.0,0.0,0.0,0.0,0.0,0.0,0.0,0.0,0.0,0.0,0.0,0.0,0.0,0.0,0.0,0.0,0.0,0.0,0.0,0.0,0.0,0.0,0.0,0.0,0.0,0.0,0.0,0.0,0.0,0.0,0.0,0.0,0.0,0.0,0.0,0.0,0.0,0.0,0.0,0.0,0.0,0.0,0.0,0.0,0.0,0.0,0.0,0.0,0.0,1.4085,1.3545,1.3009,1.3009,1.3009,1.3009,1.3009,1.3786,1.3846,0.0,0.0,0.0,0.0,0.0,0.0,0.0,0.0,0.0,0.0,0.0,0.0,0.0,0.0,0.0,0.0,0.0,0.0,0.0,0.0,0.0,0.0,0.0,0.0,0.0,0.0,0.0,0.0,0.0,0.0,0.0,0.0,0.0,0.0,0.0,0.0,0.0,0.0,0.0,0.0,0.0,0.0,0.0,0.0,0.0,0.0,0.0,0.0,0.0,0.0,0.0,0.0,0.0,0.0,0.0,0.0,0.0,0.0,0.0,0.0,0.0,0.0,0.0,0.0,0.0,0.0,0.0,0.0,0.0,0.0,0.0,0.0,0.0,0.0,0.0,0.0,0.0,0.0,0.0,0.0,0.0,0.0,0.0,0.0,0.0,0.0,0.0,0.0,0.0,0.0,0.0,0.0,0.0,0.0,0.0,0.0,0.0,0.0,0.0,0.0,0.0,0.0,0.0,1.4991,1.4815,1.4688,1.4688,1.4688,1.4688,1.4688,1.4932,1.4688,1.3906,0.0,0.0,0.0,0.0,0.0,0.0,0.0,0.0,0.0,0.0,0.0,0.0,0.0,0.0,0.0,0.0,0.0,0.0,0.0,0.0,0.0,0.0,0.0,0.0,0.0,0.0,0.0,0.0,0.0,0.0,0.0,0.0,0.0,0.0,0.0,0.0,0.0,0.0,0.0,0.0,0.0,0.0,0.0,0.0,0.0,0.0,0.0,0.0,0.0,0.0,0.0,0.0,0.0,0.0,0.0,0.0,0.0,0.0,0.0,0.0,0.0,0.0,0.0,0.0,0.0,0.0,0.0,0.0,0.0,0.0,0.0,0.0,0.0,0.0,0.0,0.0,0.0,0.0,0.0,0.0,0.0,0.0,0.0,0.0,0.0,0.0,0.0,0.0,0.0,0.0,0.0,0.0,0.0,0.0,0.0,0.0,0.0,0.0,0.0,0.0,0.0,0.0,1.541,1.541,1.541,1.541,1.541,1.541,1.541,1.541,1.5167,1.4688,0.0,0.0,0.0,0.0,0.0,0.0,0.0,0.0,0.0,0.0,0.0,0.0,0.0,0.0,0.0,0.0,0.0,0.0,0.0,0.0,0.0,0.0,0.0,0.0,0.0,0.0,0.0,0.0,0.0,0.0,0.0,0.0,0.0,0.0,0.0,0.0,0.0,0.0,0.0,0.0,0.0,0.0,0.0,0.0,0.0,0.0,0.0,0.0,0.0,0.0,0.0,0.0,0.0,0.0,0.0,0.0,0.0,0.0,0.0,0.0,0.0,0.0,0.0,0.0,0.0,0.0,0.0,0.0,0.0,0.0,0.0,0.0,0.0,0.0,0.0,0.0,0.0,0.0,0.0,0.0,0.0,0.0,0.0,0.0,0.0,0.0,0.0,0.0,0.0,0.0,0.0,0.0,0.0,0.0,0.0,0.0,0.0,0.0,0.0,0.0,0.0,0.0,1.5537,1.5537,1.5537,1.5537,1.5537,1.5537,1.5537,1.5537,1.5537,1.5537,0.0,0.0,0.0,0.0,0.0,0.0,0.0,0.0,0.0,0.0,0.0,0.0,0.0,0.0,0.0,0.0,0.0,0.0,0.0,0.0,0.0,0.0,0.0,0.0,0.0,0.0,0.0,0.0,0.0,0.0,0.0,0.0,0.0,0.0,0.0,0.0,0.0,0.0,0.0,0.0,0.0,0.0,0.0,0.0,0.0,0.0,0.0,0.0,0.0,0.0,0.0,0.0,0.0,0.0,0.0,0.0,0.0,0.0,0.0,0.0,1.1896,0.0,0.0,0.0,0.0,0.0,0.0,0.0,0.0,0.0,0.0,0.0,0.0,0.0,0.0,0.0,0.0,0.0,0.0,0.0,0.0,0.0,0.0,0.0,0.0,0.0,0.0,0.0,0.0,0.0,0.0,0.0,0.0,0.0,0.0,0.0,0.0,0.0,0.0,0.0,0.0,0.0,1.6507,1.6455,1.6455,1.6455,1.6455,1.6455,1.6455,1.6455,1.6455,1.6455,1.6455,0.0,0.0,0.0,0.0,0.0,0.0,0.0,0.0,0.0,0.0,0.0,0.0,0.0,0.0,0.0,0.0,0.0,0.0,0.0,0.0,0.0,0.0,0.0,0.0,0.0,0.0,0.0,0.0,0.0,0.0,0.0,0.0,0.0,0.0,0.0,0.0,0.0,0.0,0.0,0.0,0.0,0.0,0.0,0.0,0.0,0.0,0.0,0.0,0.0,0.0,0.0,0.0,0.0,0.0,0.0,0.0,0.0,0.0,0.0,0.0,1.3267,0.0,0.0,0.0,0.0,0.0,0.0,0.0,0.0,0.0,0.0,0.0,0.0,0.0,0.0,0.0,0.0,0.0,0.0,0.0,0.0,0.0,0.0,0.0,0.0,0.0,0.0,0.0,0.0,0.0,0.0,0.0,0.0,0.0,0.0,0.0,0.0,0.0,0.0,0.0,0.0,1.6792,1.6665,1.6665,1.6665,1.6665,1.6665,1.6665,1.6665,1.6665,1.6665,1.6665,0.0,0.0,0.0,0.0,0.0,0.0,0.0,0.0,0.0,0.0,0.0,0.0,0.0,0.0,0.0,0.0,0.0,0.0,0.0,0.0,0.0,0.0,0.0,0.0,0.0,0.0,0.0,0.0,0.0,0.0,0.0,0.0,0.0,0.0,0.0,0.0,0.0,0.0,0.0,0.0,0.0,0.0,0.0,0.0,0.0,0.0,0.0,0.0,0.0,0.0,0.0,0.0,0.0,1.4476,1.4641,1.4841,1.4841,1.5269,1.5928,1.52,1.4867,1.4746,1.4746,0.0,0.0,0.0,0.0,0.0,0.0,0.0,0.0,0.0,0.0,0.0,0.0,0.0,0.0,0.0,0.0,0.0,0.0,0.0,0.0,0.0,0.0,0.0,0.0,1.7685,1.8051,0.0,0.0,0.0,0.0,0.0,0.0,0.0,0.0,0.0,0.0,0.0,0.0,1.7262,1.7135,1.7081,1.6953,1.6953,1.6953,1.6953,1.6953,1.6953,1.6953,1.6953,1.6924,0.0,0.0,0.0,0.0,0.0,0.0,0.0,0.0,0.0,0.0,0.0,0.0,0.0,0.0,0.0,0.0,0.0,0.0,0.0,0.0,0.0,0.0,0.0,0.0,0.0,0.0,0.0,0.0,0.0,0.0,0.0,0.0,0.7657,0.7787,0.0,0.0,0.0,0.0,0.0,0.0,0.0,0.0,0.0,0.0,0.0,0.0,0.0,1.3819,1.3868,1.3999,1.4482,1.5321,1.5321,1.591,1.7023,1.7023,1.7216,1.7629,1.7552,0.0,1.6402,1.6402,0.0,0.0,0.0,0.0,0.0,0.0,0.0,0.0,0.0,0.0,0.0,0.0,0.0,0.0,0.0,0.0,0.0,0.0,0.0,0.0,0.0,0.0,1.8034,1.8802,1.9065,1.9316,0.0,1.9605,1.9134,1.9134,1.9726,0.0,0.0,0.0,0.0,0.0,0.0,0.0,1.9186,1.8934,1.868,1.7899,1.7842,1.7842,1.7842,1.7842,1.7842,1.7842,1.7842,1.7676,1.7314,1.8701,0.0,0.0,0.0,0.0,0.0,0.0,0.0,0.0,0.0,0.0,0.0,0.0,0.0,0.0,0.0,0.0,0.0,0.0,0.0,0.0,0.0,0.0,0.0,0.0,0.0,0.0,0.0,0.0,0.0,0.7733,0.9186,0.9716,0.9539,0.9762,0.0,0.0,0.0,0.0,0.0,0.0,0.0,0.0,0.0,1.3972,1.4651,1.5094,1.5314,1.5803,1.6327,1.6893,1.6893,1.7197,1.7734,1.7734,1.7832,1.8008,1.8008,1.7793,1.7451,1.7451,1.7451,1.7451,0.0,0.0,0.0,0.0,1.7451,1.7451,1.7451,1.7167,0.0,1.6893,0.0,0.0,0.0,0.0,0.0,0.0,0.0,0.0,0.0,0.0,1.8977,1.9814,2.0398,2.0846,2.1239,2.1386,2.1308,0.0,2.138,2.1916,2.1916,0.0,0.0,0.0,0.0,2.1428,2.0204,2.0009,1.9879,1.9497,1.9431,1.9243,1.8787,1.8721,1.8529,1.8008,1.8008,1.8123,1.8446,1.9565,2.0341,0.0,0.0,0.0,0.0,0.0,0.0,0.0,0.0,0.0,0.0,0.0,0.0,0.0,0.0,0.0,0.0,0.0,0.0,0.0,0.0,0.0,0.0,0.0,0.0,0.0,0.0,0.0,0.0,0.964,1.0561,1.1227,1.1389,1.1881,0.0,0.0,0.0,0.0,0.0,0.0,1.4607,1.4898,1.509,1.509,1.5778,1.6309,1.6606,1.7254,1.7705,1.8008,1.8008,1.8008,1.8008,1.8008,1.8008,1.8008,1.8008,1.8008,1.8008,1.8008,1.8008,1.8008,1.8008,1.8008,1.8008,1.8008,1.8008,1.8008,1.8008,1.8008,1.8008,1.8008,0.0,1.8008,1.8008,0.0,0.0,0.0,0.0,1.8977,2.0268,2.0139,1.9814,2.0719,2.1428,2.1951,2.2125,2.2702,2.2944,0.0,2.2702,2.3078,2.3078,0.0,0.0,0.0,0.0,2.1877,2.1037,2.091,2.0846,2.0655,2.059,2.0333,1.9694,1.9628,1.9365,1.8721,1.8654,1.8977,1.9628,2.0462,2.1239,2.1877,0.0,0.0,0.0,0.0,0.0,0.0,0.0,0.0,0.0,0.0,0.0,0.0,0.0,0.0,0.0,0.0,0.0,0.0,0.0,0.0,0.0,0.0,0.0,0.0,0.0,0.0,0.0,0.0,0.0,1.3441,1.3809,0.0,0.0,0.0,0.0,1.432,1.5725,1.6265,1.545,1.6571,1.7212,1.7212,1.7667,1.7881,1.7901,1.7978,1.7988,1.8008,1.8008,1.8008,1.8008,1.8008,1.8008,1.8008,1.8008,1.8008,1.8008,1.8008,1.8008,1.8008,1.8008,1.8008,1.8008,1.8008,1.8008,1.8008,1.8008,1.8008,1.8008,1.8008,1.8008,1.8008,1.8008,1.8596,0.0,0.0,1.9879,2.0462,2.059,2.059,2.0782,2.1628,2.1877,2.2125,2.2884,2.3078,2.3078,0.0,2.3078,2.3078,2.3078,0.0,2.3078,2.3078,2.3017,2.2763,2.1939,2.1815,2.1491,2.0719,2.059,2.059,2.0526,2.0526,2.0526,2.0462,2.0462,2.0462,2.0526,2.1365,2.1877,2.1877,2.2702,0.0,0.0,0.0,0.0,0.0,0.0,0.0,0.0,0.0,0.0,0.0,0.0,0.0,0.0,0.0,0.0,0.0,0.0,0.0,0.0,0.0,0.0,0.0,0.0,0.0,0.0,0.0,0.0,1.485,1.5442,0.0,1.5863,1.685,1.7382,1.7115,1.8425,1.9116,1.8828,1.9201,1.9188,1.8619,1.928,1.91,1.8008,1.8596,1.8529,1.8008,1.8596,1.8519,1.8008,1.8596,1.8529,1.8008,1.8008,1.8008,1.8008,1.8008,1.8008,1.8008,1.8008,1.8008,1.8008,1.8008,1.8008,1.8008,1.8008,1.8008,1.8008,1.8008,1.8008,1.8008,1.8008,1.8596,1.9431,2.0009,2.0333,2.0926,2.242,2.2377,2.2268,2.3472,2.3762,2.3825,2.4154,2.4217,2.4217,2.4217,2.3566,2.3078,2.3078,2.3078,2.3078,2.3078,2.3078,2.3017,2.2689,2.2689,2.2567,2.2249,2.2175,2.199,2.1491,2.1428,2.1175,2.0655,2.059,2.0846,2.1428,2.1741,2.2125,2.2628,2.3471,2.4002,0.0,0.0,0.0,0.0,0.0,0.0,0.0,0.0,0.0,0.0,0.0,0.0,0.0,0.0,0.0,0.0,0.0,0.0,0.0,0.0,0.0,0.0,0.0,0.0,0.0,0.0,1.6132,1.6132,1.6977,1.76,1.76,1.8595,1.9276,1.9276,2.0081,2.059,2.059,2.059,2.0333,1.9748,2.0268,2.0074,1.8911,1.9431,1.9431,1.8844,1.9431,1.9299,1.8462,1.9044,1.8854,1.8008,1.8008,1.8086,1.8223,1.8223,1.8311,1.8408,1.8115,1.8008,1.8008,1.8008,1.8008,1.8037,1.8174,1.8223,1.8242,1.8389,1.8646,1.8903,1.8903,1.9771,2.082,2.1411,2.1811,2.2356,2.3915,2.3862,2.3615,2.4603,2.482,2.482,2.482,2.482,2.482,2.482,2.4217,2.3703,2.3703,2.3703,2.3703,2.3703,2.3703,2.3703,2.3703,2.3703,2.3703,2.3703,2.3703,2.3455,2.2931,2.2868,2.2603,2.2069,2.2016,2.2273,2.2868,2.2868,2.3045,2.3366,2.4452,2.5243,2.5707,0.0,0.0,0.0,0.0,0.0,0.0,0.0,0.0,0.0,0.0,0.0,0.0,0.0,0.0,0.0,0.0,0.0,0.0,0.0,0.0,0.0,0.0,0.0,1.5725,1.6636,1.7402,1.7402,1.8522,1.9299,1.9243,2.0074,2.0655,2.059,2.0655,2.0655,2.0655,2.0655,2.0655,2.0655,2.0655,2.0655,2.059,2.0655,2.0655,2.059,2.0655,2.0215,1.9386,1.9386,1.8942,1.8115,1.8115,1.8281,1.8652,1.8652,1.8906,1.9209,1.8379,1.8047,1.8047,1.8047,1.8047,1.8105,1.8516,1.8652,1.873,1.915,1.9991,2.0755,2.0755,2.2058,2.3435,2.3501,2.4132,2.482,2.4845,2.4845,2.4845,2.487,2.487,2.487,2.487,2.487,2.487,2.487,2.487,2.4858,2.4833,2.482,2.482,2.482,2.482,0.0,2.482,2.482,2.482,2.482,2.482,2.482,2.482,2.482,2.482,2.482,2.482,2.482,2.482,2.482,2.4633,2.4154,2.5697,2.7116,2.8452,0.0,0.0,0.0,0.0,0.0,0.0,0.0,0.0,0.0,0.0,0.0,0.0,0.0,0.0,0.0,0.0,0.0,0.0,0.0,0.0,0.0,0.0,1.7268,1.6937,1.7426,1.7842,1.7842,1.8706,1.9044,1.8395,2.0268,2.1302,2.0655,2.1741,2.2433,2.2433,2.2433,2.2125,2.1553,2.2125,2.1803,2.059,2.1239,2.1239,2.059,2.1239,2.1296,2.0853,2.1456,2.1119,2.0038,2.0038,1.9697,1.9111,1.9111,1.918,1.9268,1.9023,1.8936,1.8936,1.8936,1.8936,1.8955,1.9072,1.9111,1.9131,1.9248,1.9505,1.9847,2.0552,2.1574,2.2593,2.3301,2.4132,2.4908,2.5285,2.5385,2.5485,2.5912,2.6013,2.6013,2.6013,2.6013,2.6013,2.6013,2.6013,2.5749,2.4958,2.482,2.482,2.482,2.482,0.0,2.482,2.482,2.482,2.482,2.482,2.482,2.482,2.482,2.482,2.482,2.482,2.482,2.482,2.5421,2.6222,2.7151,2.7626,2.8307,0.0,0.0,0.0,0.0,0.0,0.0,0.0,0.0,0.0,0.0,0.0,0.0,0.0,0.0,0.0,0.0,0.0,0.0,0.0,0.0,0.0,0.0,1.749,1.8091,1.7713,1.7852,1.8008,1.8008,1.8787,1.911,1.8596,2.059,2.169,2.1175,2.2372,2.3078,2.3078,2.3078,2.2884,2.2445,2.2884,2.2739,2.2009,2.2537,2.2645,2.2403,2.2862,2.2827,2.2301,2.2367,2.1789,2.0765,2.0339,1.9958,1.9551,1.9551,1.9658,0.0,0.0,0.0,0.0,0.0,1.9287,1.9307,1.9482,1.9551,1.9654,2.0256,2.0749,2.1251,2.2259,2.3166,2.4008,2.4578,2.5153,2.5573,2.5887,2.5963,2.605,2.6445,2.6533,2.6533,2.6533,2.6533,2.6533,2.6533,2.6533,0.0,2.5624,2.5511,2.5511,2.5511,2.5511,2.5511,2.5511,2.5511,2.5511,2.5511,2.5511,2.5511,2.5511,2.5511,0.0,0.0,0.0,2.5696,2.5999,2.6255,0.0,0.0,0.0,2.9358,3.0402,0.0,0.0,0.0,3.1083,3.1639,0.0,0.0,0.0,0.0,0.0,0.0,0.0,0.0,0.0,0.0,0.0,0.0,0.0,0.0,0.0,0.0,1.8664,1.911,1.8144,1.8134,1.8202,1.8008,1.8854,1.9431,1.9299,2.0846,2.1877,2.1877,2.2445,2.2884,2.3078,0.0,0.0,0.0,0.0,2.3577,2.4092,2.4092,2.4343,2.482,2.482,2.4443,2.373,2.2821,2.2021,2.1197,2.035,2.0062,2.0272,2.0206,2.0358,2.0633,1.9801,1.9434,1.9434,1.9434,1.9497,1.962,1.9993,0.0,0.0,2.1751,2.2776,2.3661,2.4707,2.5581,2.6383,2.6452,2.6533,2.6533,2.6533,2.6533,2.6533,2.6533,2.6533,2.6533,2.6533,2.6533,2.6533,2.6533,2.6533,2.6533,2.6533,2.6533,2.6533,2.6533,2.6533,2.6533,2.6533,2.6533,2.6533,2.6533,0.0,0.0,2.6533,2.6533,2.6533,2.6533,2.6589,2.6973,2.7802,2.7493,2.8263,3.0389,2.9929,3.0236,3.1482,3.1482,3.1524,3.1625,3.2343,3.2704,0.0,0.0,0.0,0.0,0.0,0.0,0.0,0.0,0.0,0.0,0.0,0.0,0.0,0.0,0.0,1.8858,1.976,1.9814,1.8202,1.9233,1.9562,1.8134,1.9365,2.0074,1.9365,2.0846,2.1877,2.1877,2.1416,2.1667,2.3005,2.291,2.3103,2.3828,2.4268,2.4556,2.4657,2.4669,2.472,2.482,0.0,0.0,2.5157,2.5012,2.4635,2.4201,2.3976,2.3507,2.272,2.1901,2.1652,2.1649,2.0745,2.0312,2.0312,2.0312,2.0827,2.1487,2.158,2.2126,2.2878,2.3114,2.3368,2.3661,2.4707,2.5158,0.0,2.6245,2.6533,2.6533,2.6533,2.6533,2.6533,2.6533,2.6533,2.6533,2.6533,2.6533,2.6533,2.6533,2.6533,2.6533,2.6533,2.6533,2.6533,2.6533,2.6533,2.6533,2.6533,2.6533,2.6533,2.6533,2.6533,2.6533,2.6533,2.6533,2.6533,2.6533,2.7095,2.7855,2.8684,2.933,3.0153,3.1219,3.1144,3.1217,3.1482,3.1482,3.1796,3.2367,3.3092,3.339,0.0,0.0,0.0,0.0,0.0,0.0,0.0,0.0,0.0,0.0,0.0,1.6635,0.0,0.0,1.9156,1.9846,2.0655,2.0782,1.9497,2.0398,2.0462,1.8269,1.9562,2.0074,1.8787,2.059,2.169,2.1302,2.1926,2.266,2.3503,2.3702,2.3729,2.3652,2.44,2.4673,2.4536,2.4946,2.536,2.5636,2.5636,2.5774,2.6025,2.5524,2.5175,2.4933,2.3963,2.322,2.2702,2.1669,2.1298,2.1221,2.0789,2.0857,2.1298,2.1298,2.1593,2.2103,2.2553,2.3073,2.3588,2.412,2.4264,2.4409,2.5441,2.5734,2.5873,2.6383,2.6533,2.6533,2.6533,2.6533,2.6533,2.6533,2.6533,2.6533,2.6533,2.6533,2.6533,2.6533,2.6533,2.6533,2.6533,2.6533,2.6533,2.6533,2.6533,2.6533,2.6533,2.6533,2.6533,2.6533,2.6533,2.6533,2.6533,2.6533,2.6533,2.6533,2.7297,2.8117,2.8939,2.9827,3.0703,3.1467,3.1482,3.1482,3.1482,3.1482,3.191,3.2602,3.3287,3.3786,0.0,0.0,0.0,0.0,0.0,0.0,0.0,0.0,1.5164,1.533,1.6491,1.772,1.8786,1.9296,1.9824,2.0719,2.1553,2.1741,2.0719,2.1491,2.1262,1.8977,1.9944,2.0302,1.8775,2.0542,2.1678,2.1452,2.2438,2.3344,2.3827,2.4205,2.4147,2.351,2.4521,2.5004,2.4662,2.5425,2.592,2.6233,2.6383,2.6383,2.6164,2.5581,2.5146,2.4933,2.3073,2.2178,2.1952,2.1375,2.1088,2.0857,2.0857,2.1298,2.2027,2.2027,2.2253,2.2702,2.3514,2.3891,2.4253,2.5004,2.53,2.5441,2.6233,2.6533,2.6533,2.6533,2.6533,2.6533,2.6533,2.6533,2.6533,2.6533,2.6533,2.6533,2.6533,2.6533,2.6533,2.6533,2.6533,2.6533,2.6533,2.6533,2.6533,2.6533,2.6533,2.6533,2.6533,2.6533,2.6533,2.6533,2.6533,2.6533,2.6533,2.6533,2.6533,2.6533,2.7417,2.8233,2.9002,3.0011,3.0837,3.1482,3.1482,3.1482,3.1482,3.1482,3.1951,3.2788,3.3339,3.3987,1.2687,1.2696,1.294,1.3846,1.4094,1.4363,0.0,0.0,1.6166,1.6941,1.7249,1.7996,1.9986,2.0429,2.0719,2.1616,2.2445,2.2433,2.0846,2.199,2.248,2.1184,2.144,2.1539,2.1074,2.1163,2.2147,2.4184,2.1534,2.0871,2.3261,2.3213,2.3433,2.4068,2.5524,2.6302,2.6214,2.6364,2.5951,2.5158,2.6094,2.6025,2.5229,2.5955,2.5873,2.4933,2.3818,2.285,2.2027,2.285,2.2627,2.1811,2.1811,2.1886,2.2027,2.2027,2.3147,2.4707,2.4791,2.5441,2.6164,2.6314,2.6314,2.6383,2.6465,2.6533,2.6533,2.6533,2.6533,2.6533,2.6533,2.6533,2.6533,2.6533,2.6533,2.6533,2.6533,2.6533,2.6533,2.6533,2.6533,2.6533,2.6533,2.6533,2.6533,2.6533,2.6533,2.6533,2.6533,2.6533,2.6533,2.6533,2.6533,2.6533,2.6533,2.6533,2.6533,2.6533,2.7986,2.8876,2.9002,3.0524,3.1409,3.1482,3.1482,3.1482,3.1482,3.1482,3.2201,3.3495,3.3598,3.3987,1.3545,1.4025,0.0,0.0,1.5112,1.5581,1.6646,1.6878,1.7115,1.7914,1.7889,1.8318,2.0235,2.059,2.1037,0.0,2.2884,2.2884,2.2175,2.244,2.24,2.1417,2.1663,2.1854,2.1868,2.2216,2.2643,2.3132,2.2535,2.2414,2.2902,2.4235,2.4378,2.2994,2.5238,2.5943,2.4767,2.5358,2.5734,2.5873,2.5734,2.5734,2.5873,2.6314,2.5943,2.5016,2.4564,2.3441,2.2027,2.2478,2.2403,2.1962,2.1375,2.2264,2.3588,2.2403,2.2553,2.3441,2.4564,2.53,2.5734,2.6314,2.6533,2.6533,2.6533,2.6533,2.6533,2.6533,2.6533,2.6533,2.6533,2.6533,2.6533,2.6533,2.6533,2.6533,2.6533,2.6533,2.6533,2.6533,2.6533,2.6533,2.6533,2.6533,2.6533,2.6533,2.6533,2.6533,2.6533,2.6533,2.6533,2.6533,2.6533,2.6533,2.6533,2.6533,2.6714,2.7162,2.8298,2.9254,2.9766,3.0896,3.1482,3.1482,3.1482,3.1482,3.1482,3.1482,3.2456,3.4258,3.4258,3.5049,1.4382,0.0,0.0,1.5557,1.6059,1.6708,1.7546,1.7707,1.7971,1.8966,1.875,1.8911,2.0655,2.0974,2.1416,2.2884,2.3215,2.3242,2.2973,2.2787,2.2441,2.17,2.1898,2.2235,2.252,2.2673,2.2651,2.2439,2.2939,2.2988,2.2556,2.4271,2.4241,2.2103,2.4385,2.5134,2.3891,2.4636,2.5443,2.6305,2.5504,2.566,2.6528,2.6528,2.6162,2.5432,2.4827,2.3779,2.2415,2.2118,2.1973,2.1896,2.1223,2.2283,2.394,2.2503,2.2334,2.3073,2.4492,2.5099,2.5362,2.6387,2.6791,2.6917,2.6917,2.6917,2.6917,2.6917,2.6917,2.6917,2.6917,2.6917,2.6917,2.6917,2.6917,2.6917,2.6917,2.6917,2.6917,2.6917,2.6917,2.6917,2.6917,2.6917,2.6917,2.6917,2.6917,2.6804,2.6571,2.6533,2.6533,2.6533,2.6533,2.6533,2.6533,2.6533,2.685,2.767,2.8492,2.938,3.0269,3.1087,3.1482,3.1482,3.1661,3.1809,3.1809,3.1988,3.3069,3.4995,3.4995,3.6133,0.0,0.0,1.5508,1.5998,1.6746,1.7571,1.8354,1.8585,1.8924,2.0275,1.9868,1.9814,2.1553,2.1877,2.2125,2.2944,2.3602,2.3629,2.2691,2.2935,2.3094,2.2685,2.2682,2.2871,0.0,2.2101,2.1869,2.3363,2.1725,2.1058,2.1931,2.2092,2.2103,2.2027,2.2999,2.4036,2.4933,2.5004,2.5254,2.5791,2.5656,2.5929,2.6629,2.6629,2.6554,2.6467,2.4379,2.353,2.3381,2.2309,2.1928,2.1928,2.1846,2.1928,2.2001,2.1928,2.3147,2.4933,2.5004,2.5313,2.5949,2.6946,2.762,2.8059,2.8059,2.8059,2.8059,2.8059,2.8059,2.8059,2.8059,2.8059,2.8059,2.8059,2.8059,2.8059,2.8059,2.8059,2.8059,2.8059,2.8059,2.8059,2.8059,2.8059,2.8059,2.8059,2.8059,2.767,2.6603,2.6533,2.6533,2.6533,2.6533,2.6533,2.6533,2.6533,2.685,2.767,2.8492,2.938,3.0269,3.1087,3.1482,3.1482,3.2153,3.2482,3.2482,3.3125,3.4219,3.5678,3.5678,3.6869,0.0,0.0,1.6622,1.6207,1.7622,1.9133,1.939,1.972,2.0198,2.1267,2.0782,2.0526,2.169,2.1877,2.2308,2.3517,2.3329,2.3039,2.3036,2.2353,2.1876,2.1688,2.148,0.0,0.0,0.0,0.0,2.2467,2.1886,2.1364,2.1078,2.2264,2.2702,2.2027,2.3317,2.4465,2.5492,2.5171,2.5437,2.6214,2.5436,2.5604,2.6562,2.6562,2.6938,2.7545,2.6851,2.6148,2.5512,2.5204,2.506,2.4982,2.4298,2.4848,2.5854,2.4546,2.4946,2.5855,2.4401,2.4524,2.5436,2.645,2.7348,2.8109,2.8109,2.8109,2.8109,2.8109,2.8109,2.8109,2.8109,2.8109,2.8109,2.8109,2.8109,2.8109,2.8109,2.8109,2.8109,2.8109,2.8109,2.8109,2.8109,2.8109,2.8109,2.8109,2.8109,2.7971,2.7607,2.7557,2.7557,2.7557,2.7557,2.7557,2.7557,2.8145,2.8884,2.9672,3.0597,3.1507,3.2372,3.2706,3.2841,3.2841,3.3051,3.3155,3.317,3.3908,3.5007,3.6437,3.6961,3.8129,0.0,1.7164,1.7765,1.7509,1.8945,2.0389,2.0572,2.0871,2.1302,2.2125,2.1678,2.129,2.2187,2.248,2.2922,2.3866,2.3772,2.3514,2.3164,2.2435,2.1734,2.1087,2.0765,0.0,0.0,0.0,0.0,2.1517,2.1517,2.1302,2.0869,2.2004,2.245,2.2009,2.2913,2.3908,2.4869,2.498,2.5638,2.6771,2.6628,2.6788,2.7044,2.7044,2.7669,2.8625,2.7416,2.6776,2.6531,2.5656,2.5327,2.5258,2.4718,2.5201,2.614,2.488,2.511,2.5836,2.4848,2.5083,2.6055,2.7,2.8001,2.8712,2.8712,2.8712,2.8712,2.8712,2.8712,2.8712,2.8712,2.8712,2.8712,2.8712,2.8712,2.8712,2.8712,2.8712,2.8712,2.8712,2.8712,2.8712,2.8712,2.8712,2.8712,2.8712,2.8712,2.8561,2.816,2.8109,2.8109,2.8109,2.8109,2.8243,2.8579,2.9112,2.9994,3.1198,3.1882,3.2616,3.3423,3.3499,3.3499,3.3499,3.3724,3.3844,3.3844,3.4623,3.5577,3.6759,3.7526,3.8566,1.8374,1.8543,1.8872,1.9677,2.061,2.138,2.1832,2.1939,2.2199,2.2944,2.2506,2.2199,0.0,0.0,2.4017,2.4004,2.4803,2.4835,2.295,2.3078,2.2638,0.0,0.0,0.0,0.0,0.0,0.0,2.0596,0.0,2.0791,2.124,2.1269,2.1455,2.1948,2.1987,2.2451,2.3514,2.4579,2.5766,2.7191,2.8782,2.8949,2.7924,2.8004,2.8609,2.9456,2.6284,2.5462,2.6307,2.4145,2.3299,2.3299,2.3299,2.3299,2.3309,2.3329,2.4003,2.5114,2.6216,2.7055,2.7693,2.8572,2.9263,2.9792,2.9792,2.9792,2.9792,2.9792,2.9792,2.9792,2.9792,2.9792,2.9792,2.9792,2.9792,2.9792,2.9792,2.9792,2.9792,2.9792,2.9792,2.9792,2.9792,2.9792,2.9792,2.9792,2.9792,2.9402,2.8335,2.8197,2.8197,2.8197,2.8197,2.8596,2.9473,2.9614,3.0419,3.2177,3.2306,3.2718,3.3589,3.3604,3.3604,3.3604,3.4218,3.4532,3.4532,3.5239,3.5973,3.6723,3.7562,3.8327,1.8589,1.946,2.0392,2.003,2.1244,2.2469,2.2039,2.2384,2.2823,2.3078,2.2944,2.3021,0.0,0.0,0.0,2.4123,2.3755,0.0,2.2327,2.1673,0.0,0.0,0.0,2.0566,2.0566,2.0869,0.0,0.0,2.1064,2.125,2.1699,2.1719,2.2066,2.294,2.2575,2.3619,2.623,2.6142,2.5902,2.5435,2.5887,2.5953,2.5692,2.6543,2.7046,2.7302,2.6472,2.6224,2.6472,2.5891,2.5641,2.5641,2.5641,2.5641,2.5684,2.5946,2.6247,2.6598,2.7206,2.7684,2.7985,2.8222,2.8995,2.9792,2.9792,2.9792,2.9792,2.9792,2.9792,2.9792,2.9792,2.9792,2.9792,2.9792,2.9792,2.9792,2.9792,2.9792,2.9792,2.9792,2.9792,2.9792,2.9792,2.9792,2.9792,2.9792,2.9792,2.9691,2.9402,2.9365,2.9365,2.9365,2.9365,2.9782,3.0671,3.1442,3.2277,3.347,3.4259,3.4788,3.4996,3.4996,3.4996,3.4996,3.516,3.525,3.525,3.5963,3.7002,3.8321,3.917,4.0211,1.9552,2.0085,2.0633,2.1172,2.1958,2.2567,2.2445,2.2763,2.3213,2.3464,2.3514,0.0,0.0,0.0,0.0,0.0,0.0,0.0,2.2146,2.1517,2.1078,0.0,2.0742,0.0,2.0859,2.126,2.1602,0.0,2.1631,2.1709,2.2139,2.2158,2.2478,2.3203,2.2893,2.3842,2.6186,2.5903,2.5714,2.5546,2.5546,2.5546,2.5546,2.5714,2.6295,2.7116,0.0,2.5808,2.7128,2.613,2.6179,2.688,2.688,2.7015,2.724,2.7424,2.7867,2.8337,2.8517,2.9011,2.9448,2.8949,2.9553,3.0495,3.0495,3.0495,3.0495,3.0495,3.0495,3.0495,3.0495,3.0495,3.0495,3.0495,3.0495,3.0495,3.0495,3.0495,3.0495,3.0495,3.0495,3.0495,3.0495,3.0495,3.0419,3.0193,3.0156,3.0068,2.9829,2.9792,2.9792,2.9792,2.9792,3.0355,3.1683,3.2321,3.3171,3.4543,3.5213,3.5504,3.5504,3.5504,3.5504,3.5504,3.5504,3.5654,3.5938,3.6319,3.7311,3.8807,3.9667,4.0647,2.0519,2.0438,2.0465,2.2311,2.2445,2.2199,2.2689,2.3007,2.3328,2.3754,0.0,0.0,2.482,0.0,2.5142,2.4246,0.0,2.3963,2.2113,2.1811,2.1538,2.08,2.0996,2.126,2.1318,2.1709,2.2119,2.248,2.2227,2.2207,2.2578,2.2598,2.2764,2.3125,2.3222,2.3714,2.4542,2.4702,2.521,2.6058,2.6224,2.6224,2.6058,2.5294,2.5953,2.7267,2.4615,0.0,2.7371,2.5529,2.5637,2.696,2.696,2.7225,2.7601,2.7668,2.8302,2.9188,2.9429,3.023,3.0971,3.0133,3.0526,3.1386,3.1386,3.1386,3.1386,3.1386,3.1386,3.1386,3.1386,3.1386,3.1386,3.1386,3.1386,3.1386,3.1386,3.1386,3.1386,3.1386,3.1386,3.1386,3.1386,3.1386,3.1235,3.0783,3.0721,3.0545,3.0068,2.988,2.9792,2.9792,2.9792,3.057,3.2464,3.2593,3.3394,3.5359,3.5504,3.5549,3.5624,3.5639,3.5669,3.5759,3.5759,3.6043,3.6611,3.6611,3.7415,3.9043,3.9721,4.0637,1.9952,2.0777,2.1436,2.1078,2.199,2.2567,2.129,2.2462,0.0,0.0,0.0,2.4845,2.536,2.4921,0.0,2.3697,0.0,0.0,0.0,0.0,2.0927,0.0,0.0,0.0,0.0,0.0,0.0,0.0,0.0,2.2949,2.3027,2.3027,2.3066,2.3135,2.4049,2.4125,2.3387,2.4296,2.4467,2.3724,2.4628,2.4628,2.3724,2.5473,2.5389,2.3993,2.4707,0.0,2.455,2.4486,2.4675,2.4917,2.4917,2.4967,2.5077,2.5448,2.5775,2.6084,2.748,2.8796,2.9912,3.0819,3.121,3.1386,3.1386,3.1386,3.1386,3.1386,3.1386,3.1386,3.1386,3.1386,3.1386,3.1386,3.1386,3.1386,3.1386,3.1386,3.1386,3.1386,3.1386,3.1386,3.1386,3.1386,3.1361,3.1273,3.1248,3.1223,3.1122,3.0344,2.9792,2.9792,2.9792,3.057,3.2464,3.2593,3.3394,3.5359,3.5504,3.5744,3.6297,3.6312,3.6552,3.706,3.7075,3.7135,3.724,3.724,3.8402,4.0578,4.0766,4.1961,1.9415,1.9706,2.0009,2.0462,2.0835,2.1094,2.0969,0.0,0.0,0.0,0.0,2.3994,2.5083,0.0,0.0,0.0,0.0,0.0,0.0,0.0,0.0,0.0,0.0,0.0,0.0,0.0,0.0,0.0,0.0,2.3135,2.3135,2.3135,2.3135,2.3135,2.3637,2.3627,2.3144,2.3637,2.3637,2.3144,2.3867,2.3977,2.3486,2.4815,2.5093,2.4682,2.4805,0.0,2.5779,2.548,2.5797,2.663,2.663,2.6778,2.701,2.7241,2.7325,2.745,2.8233,2.8958,2.9602,3.0901,3.1722,3.2265,3.2265,3.2265,3.2265,3.2265,3.2265,3.2265,3.2265,3.2265,3.2265,3.2265,3.2265,3.2265,3.2265,3.2265,3.2265,3.2265,3.2265,3.2265,3.2265,3.2265,3.2164,3.1863,3.1813,3.1712,3.1424,3.0947,3.062,3.062,3.1161,3.204,3.3399,3.4054,3.5006,3.6425,3.6492,3.6641,3.6956,3.6971,3.7105,3.7404,3.7404,3.7584,3.7913,3.7913,3.9143,4.1501,4.1501,4.2643,1.8854,1.8654,1.8596,1.9759,1.9889,1.9863,2.0485,2.1072,0.0,0.0,0.0,2.321,2.4482,0.0,0.0,0.0,0.0,0.0,0.0,0.0,0.0,0.0,0.0,0.0,0.0,0.0,0.0,0.0,0.0,0.0,2.3144,2.3232,2.3281,2.3281,2.3369,2.3408,2.3408,2.3408,2.3408,2.3418,2.376,2.3926,2.3935,2.4532,2.5128,2.5673,2.5137,0.0,0.0,2.6365,2.6799,2.8021,2.8021,2.825,2.8588,2.8588,2.8588,2.868,2.8947,2.9039,2.9223,3.0406,3.1689,3.2698,3.2982,3.3081,3.3081,3.3081,3.3081,3.3081,3.3081,3.3081,3.3081,3.3081,3.3081,3.3081,3.3081,3.3081,3.3081,3.3081,3.3081,3.3081,3.3081,3.3081,3.2918,3.2466,3.239,3.224,3.1813,3.175,3.175,3.175,3.231,3.3156,3.4327,3.5145,3.6128,3.7336,3.7404,3.7464,3.7614,3.7614,3.7689,3.7838,3.7838,3.8093,3.8601,3.8601,3.9787,4.1997,4.1997,4.2953,1.8076,1.8664,1.9044,1.8405,1.9613,2.0651,1.9163,0.0,0.0,0.0,2.2564,2.347,2.3588,0.0,0.0,0.0,0.0,0.0,0.0,0.0,0.0,0.0,0.0,0.0,0.0,0.0,0.0,0.0,0.0,0.0,2.3164,2.3516,2.373,2.373,2.4102,2.4297,2.4297,2.4297,2.4297,2.4297,2.4336,2.4355,2.4355,2.5472,2.5401,2.4618,2.5911,0.0,0.0,2.5631,2.5828,2.5954,2.5954,2.5974,2.6014,2.6014,2.6014,2.6197,2.74,2.7778,2.7955,2.9131,3.0406,3.1589,3.2797,3.3081,3.3081,3.3081,3.3081,3.3081,3.3081,3.3081,3.3081,3.3081,3.3081,3.3081,3.3081,3.3081,3.3081,3.3081,3.3081,3.3081,3.3081,3.3081,3.3056,3.3006,3.3006,3.298,3.293,3.2918,3.2918,3.2918,3.2084,3.2303,3.4252,3.4477,3.5378,3.7267,3.7404,3.7674,3.8272,3.8302,3.8586,3.9215,3.923,3.9275,3.9334,3.9334,4.0263,4.1997,4.1997,4.2953,1.8008,1.8269,1.8462,1.8076,1.8851,1.9512,1.9108,0.0,0.0,2.0908,2.1329,2.1897,2.2478,2.1821,2.1375,0.0,0.0,0.0,0.0,0.0,0.0,0.0,0.0,0.0,0.0,0.0,0.0,0.0,0.0,0.0,2.3916,2.4072,2.417,2.417,2.4336,2.4414,2.4414,2.4414,2.4414,2.4424,2.4687,2.4805,2.4814,2.555,2.5585,2.5215,2.5849,0.0,0.0,2.5664,2.5742,2.5742,2.5742,2.5742,2.5742,2.5742,2.5742,2.5771,2.6603,2.6878,2.7114,2.8593,2.933,3.0063,3.1514,3.1965,3.214,3.2884,3.3081,3.3081,3.3081,3.3081,3.3081,3.3081,3.3081,3.3081,3.3081,3.3081,3.3081,3.3081,3.3081,3.3081,3.3081,3.3081,3.3081,3.3081,3.3081,3.3081,3.3081,3.3081,3.3081,3.3081,3.3303,3.3964,3.5324,3.6045,3.7065,3.8531,3.8616,3.8736,3.899,3.9005,3.914,3.9409,3.9424,3.9424,3.9424,3.9424,4.0324,4.1997,4.1997,4.2953,1.8008,1.8008,1.8037,1.8164,1.8516,1.8945,0.0,0.0,2.0195,2.0498,2.0566,2.0789,2.1441,2.1078,2.0789,2.1441,0.0,2.1279,0.0,0.0,0.0,0.0,0.0,0.0,0.0,0.0,0.0,0.0,0.0,0.0,2.4805,2.4805,2.4746,2.4609,2.4736,2.4805,2.4805,2.4805,2.4805,2.4814,2.5117,2.5264,2.5273,2.5596,2.5742,2.5742,2.5742,0.0,0.0,2.5742,2.5742,2.5742,2.5742,2.5742,2.5752,2.5879,2.5937,2.5986,2.6426,2.6572,2.6712,2.7874,2.8256,2.852,3.0034,3.0755,3.1222,3.2159,3.2717,3.3095,3.3471,3.3558,3.3558,3.3558,3.3558,3.352,3.3357,3.3319,3.3269,3.3106,3.3081,3.3081,3.3081,3.3081,3.3081,3.3081,3.3081,3.3081,3.3081,3.3081,3.3081,3.3081,3.3797,3.4733,3.6132,3.6852,3.7904,3.9337,3.9424,3.9424,3.9424,3.9424,3.9424,3.9424,3.9424,3.9424,3.9424,3.9424,4.0185,4.1593,4.1869,4.3084,1.8008,1.8008,1.8115,1.8455,1.8955,1.9394,0.0,0.0,2.0557,2.0566,2.0566,2.0566,2.0644,2.0644,2.0566,0.0,0.0,0.0,0.0,0.0,0.0,0.0,0.0,0.0,0.0,0.0,0.0,0.0,0.0,0.0,2.5703,2.5723,2.5518,2.5078,2.5488,2.5723,2.5723,2.5723,2.5723,2.5723,2.5723,2.5732,2.5732,2.5742,2.5742,0.0,0.0,0.0,0.0,2.5742,2.5742,2.5742,2.5742,2.5742,2.5791,2.6221,2.6387,2.6435,2.6865,2.7012,2.7012,2.7012,2.7012,2.7206,2.8435,2.9688,3.0756,3.0756,3.1711,3.2966,3.4326,3.47,3.47,3.47,3.47,3.4562,3.401,3.3884,3.3721,3.3181,3.3081,3.3081,3.3081,3.3081,3.3081,3.3081,3.3081,3.3081,3.3081,3.3081,3.3081,3.3081,3.3081,3.394,3.6039,3.6198,3.7161,3.9265,3.9424,3.9424,3.9424,3.9424,3.9424,3.9424,3.9424,3.9424,3.9424,3.9424,3.9864,4.0743,4.1609,4.3346,1.8008,1.8223,1.8467,1.8603,1.918,1.9746,1.9883,0.0,2.0566,2.0566,2.0566,2.0566,2.0566,2.0566,2.0664,2.0977,0.0,0.0,0.0,0.0,0.0,0.0,0.0,0.0,0.0,0.0,0.0,0.0,0.0,0.0,2.5732,2.5742,2.5674,2.5527,2.5664,2.5742,2.5742,2.5742,2.5742,2.5742,2.5742,2.5742,2.5742,2.5742,2.5742,0.0,0.0,0.0,0.0,2.5742,2.5742,2.5762,2.6064,2.6182,2.623,2.666,2.6816,2.6875,2.7314,2.7461,2.75,2.7793,2.7891,2.7986,2.8386,2.8951,2.9601,3.0477,3.0971,3.1639,3.2978,3.3373,3.357,3.4429,3.4726,3.4675,3.45,3.4462,3.4412,3.4236,3.4198,3.4198,3.4198,3.3884,3.3633,3.3633,3.3319,3.3081,3.3081,3.3081,3.3081,3.3081,3.3081,3.3628,3.5047,3.5814,3.6774,3.8234,3.9017,3.9424,3.9424,3.9424,3.9424,3.9424,3.9424,3.9424,3.9424,3.9424,4.0414,4.2373,4.3719,4.5074,0.0,1.8437,1.8711,1.9033,1.9521,0.0,0.0,0.0,2.0566,2.0566,2.0566,2.0566,2.0566,2.0566,2.0713,2.1162,0.0,0.0,0.0,0.0,0.0,0.0,0.0,0.0,0.0,0.0,0.0,0.0,0.0,0.0,2.5742,2.5742,2.5742,2.5742,2.5742,2.5742,2.5742,2.5742,2.5742,2.5742,2.5742,2.5742,2.5742,2.5742,2.5742,0.0,0.0,0.0,0.0,2.5918,2.5986,2.6025,2.6455,2.6631,2.668,2.71,2.7266,2.7324,2.7754,2.791,2.7949,2.8203,2.8291,2.8291,2.8291,2.8416,2.8859,3.0149,3.0536,3.0833,3.2202,3.2898,3.3588,3.4377,3.4959,3.5278,3.5077,3.5039,3.4964,3.4763,3.4726,3.4726,3.4726,3.4437,3.4211,3.4211,3.3922,3.3621,3.342,3.3382,3.3307,3.3106,3.3081,3.3398,3.4037,3.5346,3.6682,3.7753,3.8782,3.9424,3.9424,3.9424,3.9424,3.9424,3.9424,3.9544,3.9783,4.0038,4.129,4.352,4.4756,4.5986,0.0,0.0,0.0,0.0,0.0,0.0,0.0,0.0,0.0,2.0566,2.0566,2.0566,2.0566,2.0596,2.0762,0.0,0.0,0.0,0.0,0.0,0.0,0.0,0.0,0.0,0.0,0.0,0.0,0.0,0.0,0.0,2.5742,2.5742,2.5742,2.5742,2.5742,2.5742,2.5742,2.5742,2.5742,2.5742,2.5742,2.5742,2.5742,2.5742,2.5742,0.0,0.0,0.0,0.0,2.6221,2.6406,2.6475,2.6894,2.706,2.7119,2.7549,2.7715,2.7773,2.8154,2.8291,2.8291,2.8291,2.8291,2.8291,2.8291,2.8291,2.8601,2.9807,3.011,3.0525,3.1825,3.3155,3.4178,3.419,3.5271,3.6113,3.5519,3.5512,3.5454,3.4939,3.4839,3.4839,3.4839,3.4813,3.4776,3.4776,3.4751,3.4537,3.4022,3.396,3.3759,3.3257,3.3194,3.3194,3.3194,3.5087,3.6604,3.7587,3.8782,3.9424,3.9424,3.9424,3.9424,3.9424,3.9469,3.9813,4.0472,4.113,4.241,4.4205,4.4962,4.6241,0.0,0.0,0.0,0.0,0.0,0.0,0.0,0.0,0.0,0.0,0.0,2.0566,2.0566,2.084,2.1221,0.0,0.0,0.0,0.0,0.0,0.0,0.0,0.0,0.0,0.0,0.0,0.0,0.0,0.0,2.5742,2.5742,2.5742,2.5742,2.5742,2.5742,2.5742,2.5742,2.5742,2.5742,2.5742,2.5742,2.5742,2.5742,2.5742,2.5742,0.0,0.0,0.0,2.624,2.6348,2.6572,2.6904,2.7344,2.751,2.7568,2.7988,2.8144,2.8164,2.8262,2.8291,2.8291,2.8291,2.8291,2.8291,2.8291,2.8291,2.8398,2.8698,2.8804,2.9102,3.0411,3.103,3.1531,3.2543,3.3859,3.4848,3.4727,3.5482,3.6132,3.5994,3.5968,3.5968,3.5968,3.5629,3.5353,3.5353,3.4989,3.4675,3.455,3.4525,3.4474,3.4349,3.4336,3.4336,3.4336,3.5472,3.629,3.6526,3.8368,3.9424,3.9424,3.9424,3.9424,3.9424,3.9903,4.0487,4.1145,4.1818,4.31,4.4978,4.5683,4.6977,0.0,0.0,0.0,0.0,0.0,0.0,0.0,0.0,0.0,0.0,0.0,0.0,2.083,0.0,0.0,0.0,0.0,0.0,0.0,0.0,0.0,0.0,0.0,0.0,0.0,0.0,0.0,0.0,0.0,2.5742,2.5742,2.5742,2.5742,2.5742,2.5742,2.5742,2.5742,2.5742,2.5742,2.5742,2.5742,2.5742,2.5742,2.5742,2.585,0.0,0.0,0.0,2.6689,2.6894,2.7109,2.7353,2.7783,2.7949,2.7978,2.8203,2.8291,2.8291,2.8291,2.8291,2.8291,2.8291,2.8291,2.8291,2.8291,2.8291,2.8291,2.8291,2.8291,2.8495,2.9207,2.9807,3.0514,3.1224,3.2443,3.3563,3.4276,3.4981,3.5667,3.6263,3.6358,3.6358,3.6358,3.6119,3.5918,3.5918,3.5667,3.5378,3.5127,3.5102,3.5002,3.4751,3.4726,3.4726,3.4726,3.6125,3.693,3.6653,3.8379,3.9424,3.9424,3.9709,4.0008,4.0307,4.0965,4.1474,4.1833,4.2491,4.3791,4.5683,4.5997,4.7239,0.0,0.0,0.0,0.0,0.0,0.0,0.0,0.0,0.0,0.0,0.0,0.0,0.0,0.0,0.0,0.0,0.0,0.0,0.0,0.0,0.0,0.0,0.0,0.0,0.0,0.0,0.0,0.0,0.0,2.5742,2.5742,2.5742,2.5742,2.5742,2.5742,2.5742,2.5742,2.5742,2.5742,2.5742,2.5742,2.5742,2.5742,2.581,2.6035,2.6396,0.0,0.0,2.7148,2.751,2.7705,2.7803,2.8154,2.8291,2.8291,2.8291,2.8291,2.8291,2.8291,2.8291,2.8291,2.8291,2.8291,2.8291,2.8291,2.8291,2.8291,2.8291,2.8291,2.8291,2.8291,2.9102,3.0016,3.0016,3.103,3.2342,3.3563,3.397,3.4471,3.5858,3.6061,3.6156,3.6358,3.6358,3.6358,3.6358,3.6358,3.6194,3.573,3.5667,3.5491,3.5027,3.4977,3.4977,3.4977,3.6737,3.7716,3.7373,3.8873,3.9723,3.9723,4.0247,4.0861,4.1519,4.2073,4.2417,4.2506,4.306,4.4266,4.5977,4.6103,4.7155,1.9268,1.9863,0.0,0.0,0.0,0.0,0.0,0.0,0.0,0.0,0.0,0.0,0.0,0.0,0.0,0.0,0.0,0.0,0.0,0.0,0.0,0.0,0.0,0.0,0.0,0.0,0.0,0.0,0.0,2.5742,2.5742,2.5742,2.5742,2.5742,2.5742,2.5742,2.5742,2.5742,2.5742,2.5742,2.5742,2.5742,2.5752,2.6123,2.6328,2.6406,0.0,2.7168,2.7568,2.7637,2.7881,2.8203,2.8271,2.8291,2.8291,2.8291,2.8291,2.8291,2.8291,2.8291,2.8291,2.8291,2.8291,2.8291,2.8291,2.8291,2.8291,2.8291,2.8291,2.8291,2.8291,2.8495,2.8601,2.8601,2.9608,3.0618,3.0927,3.1836,3.3044,3.4471,3.4678,3.5078,3.6168,3.6358,3.6358,3.6358,3.6358,3.6332,3.6245,3.6232,3.6207,3.6119,3.6107,3.6107,3.6107,3.6793,3.7665,3.8599,4.0197,4.107,4.107,4.1175,4.1534,4.2192,4.2312,4.2626,4.318,4.3284,4.3912,4.5005,4.5834,4.6815,1.957,2.0088,2.0566,0.0,0.0,0.0,0.0,0.0,0.0,0.0,0.0,0.0,0.0,0.0,0.0,0.0,0.0,0.0,0.0,0.0,0.0,0.0,0.0,0.0,0.0,0.0,0.0,0.0,0.0,0.0,2.5742,2.5742,2.5742,2.5742,2.5742,2.5742,2.5742,2.5742,2.5742,2.5742,2.5742,2.5859,2.6103,2.6299,2.6641,2.709,0.0,2.7607,2.7998,2.7998,2.8115,2.8291,2.8291,2.8291,2.8291,2.8291,2.8291,2.8291,2.8291,2.8291,2.8291,2.8291,2.8291,2.8291,2.8291,2.8291,2.8291,2.8291,2.8291,2.8291,2.8291,2.8291,2.8291,2.8291,2.8804,2.9408,3.011,3.0824,3.1633,3.2955,3.3871,3.4581,3.5174,3.5966,3.6358,3.6358,3.6358,3.6358,3.6358,3.6358,3.6358,3.6358,3.6358,3.6358,3.6358,3.7169,3.8142,3.9184,4.0612,4.1534,4.1893,4.1908,4.2222,4.288,4.2895,4.303,4.3329,4.3329,4.3849,4.4812,4.5762,4.6662,1.9805,2.0234,2.0566,0.0,0.0,2.0566,2.0566,0.0,0.0,0.0,0.0,0.0,0.0,0.0,0.0,0.0,0.0,0.0,0.0,0.0,0.0,0.0,0.0,0.0,0.0,0.0,0.0,0.0,0.0,0.0,2.5742,2.5742,2.5742,2.5742,2.5742,2.5742,2.5742,2.584,2.5889,2.5889,2.5889,2.6113,2.6533,2.6641,2.7041,2.7676,2.7773,2.7998,2.8291,2.8291,2.8291,2.8291,2.8291,2.8291,2.8291,2.8291,2.8291,2.8291,2.8291,2.8291,2.8291,2.8291,2.8291,2.8291,2.8291,2.8291,2.8291,2.8291,2.8291,2.8291,2.8291,2.8291,2.8291,2.8291,2.8291,2.8601,2.9608,2.9807,3.0214,3.1531,3.2655,3.3674,3.4288,3.5271,3.6061,3.6358,3.6358,3.6358,3.6358,3.6358,3.6358,3.6358,3.6358,3.6358,3.6358,3.7678,3.8863,3.9637,4.1077,4.2073,4.2566,4.2581,4.2821,4.3329,4.3329,4.3329,4.3329,4.3329,4.3708,4.445,4.5618,4.6609,1.9805,2.0234,2.0566,2.0566,0.0,0.0,2.0566,0.0,0.0,0.0,0.0,0.0,0.0,0.0,0.0,0.0,0.0,0.0,0.0,0.0,0.0,0.0,0.0,0.0,0.0,0.0,0.0,0.0,0.0,0.0,2.5742,2.5742,2.5742,2.5742,2.5742,2.5742,2.5742,2.6143,2.6338,2.6338,2.6338,2.6562,2.6982,2.7393,2.7607,2.7685,2.8076,2.8262,2.8291,2.8291,2.8291,2.8291,2.8291,2.8291,2.8291,2.8291,2.8291,2.8291,2.8291,2.8291,2.8291,2.8291,2.8291,2.8291,2.8291,2.8291,2.8291,2.8291,2.8291,2.8291,2.8291,2.8291,2.8291,2.8291,2.8291,2.8291,2.8388,2.8388,2.8794,3.0214,3.0514,3.144,3.3981,3.4483,3.4981,3.625,3.6358,3.6358,3.6358,3.6358,3.6358,3.6358,3.6358,3.6358,3.6358,3.8482,3.977,3.9861,4.1913,4.321,4.3254,4.3269,4.3284,4.3329,4.3329,4.3329,4.3329,4.3329,4.3329,4.3472,4.5327,4.6244,2.0195,2.0439,2.0566,2.0566,0.0,0.0,0.0,0.0,0.0,0.0,0.0,0.0,0.0,0.0,0.0,0.0,0.0,0.0,0.0,0.0,0.0,0.0,0.0,0.0,0.0,0.0,0.0,0.0,0.0,0.0,2.5742,2.5742,2.5742,2.5742,2.5996,2.6143,2.6143,2.6562,2.6914,2.7178,2.6904,2.7002,2.7422,2.7588,2.7812,2.8066,2.8223,2.8291,2.8291,2.8291,2.8291,2.8291,2.8291,2.8291,2.8291,2.8291,2.8291,2.8291,2.8291,2.8291,2.8291,2.8291,2.8291,2.8291,2.8291,2.8291,2.8291,2.8291,2.8291,2.8291,2.8291,2.8291,2.8291,2.8291,2.8291,2.8291,2.8291,2.8291,2.8504,2.9006,2.9713,3.0618,3.1633,3.3266,3.4581,3.5078,3.587,3.6358,3.6358,3.6358,3.6358,3.6358,3.6358,3.6358,3.6358,3.8572,3.9899,3.9899,4.2044,4.3329,4.3329,4.3329,4.3329,4.3329,4.3329,4.3329,4.3329,4.3329,4.3329,4.3329,4.5327,4.6173,2.0449,2.0566,0.0,0.0,0.0,0.0,0.0,0.0,0.0,0.0,0.0,0.0,0.0,0.0,0.0,0.0,0.0,0.0,0.0,0.0,0.0,0.0,0.0,0.0,0.0,0.0,0.0,0.0,0.0,0.0,0.0,2.5869,2.5947,2.5947,2.6357,2.6592,2.6592,2.7012,2.7373,2.7666,2.749,2.7578,2.7861,2.7861,2.8018,2.8291,2.8291,2.8291,2.8291,2.8291,2.8291,2.8291,2.8291,2.8291,2.8291,2.8291,2.8291,2.8291,2.8291,2.8291,2.8291,2.8291,2.8291,2.8291,2.8291,2.8291,2.8291,2.8291,2.8291,2.8291,2.8291,2.8291,2.8291,2.8291,2.8291,2.8291,2.8291,2.8291,2.8291,2.8291,2.8996,2.9817,3.0214,3.2241,3.3871,3.4374,3.5571,3.6358,3.6358,3.6358,3.6358,3.6358,3.6358,3.6358,3.6358,3.8211,3.9448,3.9899,4.1699,4.29,4.325,4.3329,4.3329,4.3329,4.3329,4.3329,4.3329,4.3329,4.3329,4.3329,4.4989,4.5905,2.0449,2.0566,0.0,0.0,0.0,0.0,0.0,0.0,0.0,0.0,0.0,0.0,0.0,0.0,0.0,0.0,0.0,0.0,0.0,0.0,0.0,0.0,0.0,0.0,0.0,0.0,0.0,0.0,0.0,0.0,0.0,2.6152,2.6387,2.6396,2.6807,2.7021,2.7021,2.7451,2.7676,2.7676,2.8096,2.8291,2.8291,2.8291,2.8291,2.8291,2.8291,2.8291,2.8291,2.8291,2.8291,2.8291,2.8291,2.8291,2.8291,2.8291,2.8291,2.8291,2.8291,2.8291,2.8291,2.8291,2.8291,2.8291,2.8291,2.8291,2.8291,2.8291,2.8291,2.8291,2.8291,2.8291,2.8291,2.8291,2.8291,2.8291,2.8291,2.8291,2.8291,2.8291,2.8291,2.8698,3.0016,3.1429,3.2744,3.4178,3.5571,3.6358,3.6358,3.6358,3.6358,3.6358,3.6358,3.6358,3.6358,3.7415,3.8649,3.9812,4.1,4.2111,4.325,4.3329,4.3329,4.3329,4.3329,4.3329,4.3329,4.3329,4.3329,4.3329,4.4358,4.5285,2.0527,0.0,0.0,0.0,0.0,0.0,0.0,0.0,0.0,0.0,0.0,0.0,0.0,0.0,0.0,0.0,0.0,0.0,0.0,0.0,0.0,0.0,0.0,0.0,0.0,0.0,0.0,0.0,0.0,0.0,0.0,2.6318,2.6523,2.6816,2.7246,2.7471,2.7471,2.79,2.8105,2.8105,2.8232,2.8291,2.8291,2.8291,2.8291,2.8291,2.8291,2.8291,2.8291,2.8291,2.8291,2.8291,2.8291,2.8291,2.8291,2.8291,2.8291,2.8291,2.8291,2.8291,2.8291,2.8291,2.8291,2.8291,2.8291,2.8291,2.8291,2.8291,2.8291,2.8291,2.8291,2.8291,2.8291,2.8291,2.8291,2.8291,2.8291,2.8291,2.8291,2.8291,2.8291,2.8398,2.8794,3.0016,3.1327,3.2744,3.4068,3.5367,3.6263,3.6358,3.6358,3.6358,3.6358,3.6358,3.6358,3.7415,3.8649,3.9812,4.1,4.2111,4.325,4.3329,4.3329,4.3329,4.3329,4.3329,4.3329,4.3329,4.3329,4.3329,4.4358,4.5285,2.0566,0.0,0.0,0.0,0.0,0.0,0.0,0.0,0.0,0.0,0.0,0.0,0.0,0.0,0.0,0.0,0.0,0.0,0.0,0.0,0.0,0.0,0.0,0.0,0.0,0.0,0.0,0.0,0.0,0.0,0.0,2.6797,2.7012,2.7266,2.7695,2.792,2.792,2.8164,2.8291,2.8291,2.8291,2.8291,2.8291,2.8291,2.8291,2.8291,2.8291,2.8291,2.8291,2.8291,2.8291,2.8291,2.8291,2.8291,2.8291,2.8291,2.8291,2.8291,2.8291,2.8291,2.8291,2.8291,2.8291,2.8291,2.8291,2.8291,2.8291,2.8291,2.8291,2.8291,2.8291,2.8291,2.8291,2.8291,2.8291,2.8291,2.8291,2.8291,2.8291,2.8291,2.8291,2.8291,2.8291,2.9408,3.0721,3.2129,3.3958,3.5475,3.6263,3.6358,3.6358,3.6358,3.6358,3.6358,3.6358,3.707,3.8121,3.9812,4.0575,4.1601,4.325,4.3329,4.3329,4.3329,4.3329,4.3329,4.3329,4.3329,4.3329,4.3329,4.3927,4.4915,0.0,0.0,0.0,0.0,0.0,0.0,0.0,0.0,0.0,0.0,0.0,0.0,0.0,0.0,0.0,0.0,0.0,0.0,0.0,0.0,0.0,0.0,0.0,0.0,0.0,0.0,0.0,0.0,0.0,0.0,0.0,2.7451,2.7685,2.7725,2.8096,2.8291,2.8291,2.8291,2.8291,2.8291,2.8291,2.8291,2.8291,2.8291,2.8291,2.8291,2.8291,2.8291,2.8291,2.8291,2.8291,2.8291,2.8291,2.8291,2.8291,2.8291,2.8291,2.8291,2.8291,2.8291,2.8291,2.8291,2.8291,2.8291,2.8291,2.8291,2.8291,2.8291,2.8291,2.8291,2.8291,2.8291,2.8291,2.8291,2.8291,2.8291,2.8291,2.8291,2.8291,2.8291,2.8291,2.8291,2.8291,2.9303,3.0618,3.2129,3.4642,3.6358,3.6358,3.6358,3.6358,3.6358,3.6358,3.6358,3.6358,3.6358,3.7335,3.9623,3.9812,4.0845,4.3076,4.325,4.3329,4.3329,4.3329,4.3329,4.3329,4.3329,4.3329,4.3329,4.3329,4.4327,0.0,0.0,0.0,0.0,0.0,0.0,0.0,0.0,0.0,0.0,0.0,0.0,0.0,0.0,0.0,0.0,0.0,0.0,0.0,0.0,0.0,0.0,0.0,0.0,0.0,0.0,0.0,0.0,0.0,0.0,2.75,2.7617,2.7822,2.8144,2.8242,2.8291,2.8291,2.8291,2.8291,0.0,2.8291,2.8291,2.8291,2.8291,2.8291,2.8291,2.8291,2.8291,2.8291,2.8291,2.8291,2.8291,2.8291,2.8291,2.8291,2.8291,2.8291,2.8291,2.8291,2.8291,2.8291,2.8291,2.8291,2.8291,2.8291,2.8291,2.8291,2.8291,2.8291,2.8291,2.8291,2.8291,2.8291,2.8291,2.8291,2.8291,2.8291,2.8291,2.8291,2.8291,2.8291,2.8291,2.8291,2.8495,2.9503,3.1927,3.4642,3.6358,3.6358,3.6358,3.6358,3.6358,3.6358,3.6358,3.6358,3.6358,3.6977,3.8379,3.936,4.049,4.1932,4.2805,4.3329,4.3329,4.3329,4.3329,4.3329,4.3329,4.3329,4.3329,4.3329,4.4327,0.0,0.0,0.0,0.0,0.0,0.0,0.0,0.0,0.0,0.0,0.0,0.0,0.0,0.0,0.0,0.0,0.0,0.0,0.0,0.0,0.0,0.0,0.0,0.0,0.0,0.0,0.0,0.0,0.0,2.7519,2.7939,2.7969,2.8066,2.8281,2.7609,2.7276,2.7276,2.6499,2.6164,2.6164,2.6164,2.6499,2.7276,2.796,2.8291,2.8291,2.8291,2.8291,2.8291,2.8291,2.8291,2.8291,2.8291,2.8291,2.8291,2.8291,2.8291,2.8291,2.8291,2.8291,2.8291,2.8291,2.8291,2.8291,2.8291,2.8291,2.8291,2.8291,2.8291,2.8291,2.8291,2.8291,2.8291,2.8291,2.8291,2.8291,2.8291,2.8291,2.8291,2.8291,2.8291,2.8291,2.8291,2.9408,3.0721,3.2129,3.4642,3.6358,3.6358,3.6358,3.6358,3.6358,3.6358,3.6358,3.6358,3.6358,3.6883,3.8017,3.9271,4.0404,4.1587,4.2725,4.3329,4.3329,4.3329,4.3329,4.3329,4.3329,4.3329,4.3329,4.3329,4.4327,0.0,0.0,0.0,0.0,0.0,0.0,0.0,0.0,0.0,0.0,0.0,0.0,0.0,0.0,0.0,0.0,0.0,0.0,0.0,0.0,0.0,0.0,0.0,0.0,0.0,0.0,0.0,0.0,0.0,2.7593,2.7931,2.7618,2.7501,2.7501,2.6381,2.5709,2.5709,2.4488,2.3822,2.3822,2.3822,2.4488,2.5709,2.6952,2.7843,2.8291,2.8291,2.8291,2.8291,2.8291,2.8291,2.8291,2.8291,2.8291,2.8291,2.8291,2.8291,2.8291,2.8291,2.8291,2.8291,2.8291,2.8291,2.8291,2.8291,2.8291,2.8291,2.8291,2.8291,2.8291,2.8291,2.8291,2.8291,2.8291,2.8291,2.8291,2.8291,2.8291,2.8291,2.8291,2.8291,2.8291,2.8291,3.0317,3.2028,3.223,3.4447,3.6168,3.6358,3.6358,3.6358,3.6358,3.6358,3.6358,3.6358,3.6358,3.6803,3.7756,3.9094,4.0318,4.1253,4.2563,4.3329,4.3329,4.3329,4.3329,4.3329,4.3329,4.3329,4.3329,4.3329,4.4266,0.0,0.0,0.0,0.0,0.0,0.0,0.0,0.0,0.0,0.0,0.0,0.0,0.0,0.0,0.0,0.0,0.0,0.0,0.0,0.0,0.0,0.0,0.0,0.0,0.0,0.0,0.0,0.0,2.6886,2.6327,2.6372,2.516,2.4378,2.4378,2.4156,2.4156,2.4156,2.3933,2.3822,2.3822,2.3822,2.3933,2.4156,2.4267,2.5827,2.8291,2.8291,2.8291,2.8291,2.8291,2.8291,2.8291,2.8291,2.8291,2.8291,2.8291,2.8291,2.8291,2.8291,2.8291,2.8291,2.8291,2.8291,2.8291,2.8291,2.8291,2.8291,2.8291,2.8291,2.8291,2.8291,2.8291,2.8291,2.8291,2.8291,2.8291,2.8291,2.8291,2.8291,2.8291,2.8291,2.8291,2.8291,2.9503,3.0927,3.2129,3.3662,3.5078,3.6263,3.6358,3.6358,3.6358,3.6358,3.6358,3.6358,3.6358,3.6452,3.6628,3.8662,3.9986,4.0159,4.2126,4.3329,4.3329,4.3329,4.3329,4.3329,4.3329,4.3329,4.3329,4.3329,4.3927,0.0,0.0,0.0,0.0,0.0,0.0,0.0,0.0,0.0,0.0,0.0,0.0,0.0,0.0,0.0,0.0,0.0,0.0,0.0,0.0,0.0,0.0,0.0,0.0,0.0,0.0,0.0,0.0,2.6389,2.5709,2.482,2.4156,2.3822,2.3822,2.3039,2.2589,2.2589,2.1707,2.138,2.138,2.138,2.182,2.2589,2.2589,2.4258,2.7051,2.7051,2.7511,2.8291,2.8291,2.8291,2.8291,2.8291,2.8291,2.8291,2.8291,2.8291,2.8291,2.8291,2.8291,2.8291,2.8291,2.8291,2.8291,2.8291,2.8291,2.8291,2.8291,2.8291,2.8291,2.8291,2.8291,2.8291,2.8291,2.8291,2.8291,2.8291,2.8291,2.8291,2.8291,2.8291,2.8291,2.8291,2.9408,3.0721,3.2129,3.3464,3.4872,3.6263,3.6358,3.6358,3.6358,3.6358,3.6358,3.6358,3.6358,3.6358,3.6358,3.7952,3.9183,3.9899,4.1435,4.2644,4.325,4.3329,4.3329,4.3329,4.3329,4.3329,4.3329,4.3329,4.4128,0.0,0.0,0.0,0.0,0.0,0.0,0.0,0.0,0.0,0.0,0.0,0.0,0.0,0.0,0.0,0.0,0.0,0.0,0.0,0.0,0.0,0.0,0.0,0.0,0.0,0.0,0.0,0.0,2.5151,2.448,2.3263,2.2934,2.271,2.271,2.1593,2.1031,2.1031,1.9924,1.9366,1.9366,1.9366,2.004,2.1031,2.1031,2.2476,2.4931,2.5371,2.6381,2.7726,2.7726,2.795,2.8291,2.8291,2.8291,2.8291,2.8291,2.8291,2.8291,2.8291,2.8291,2.8291,2.8291,2.8291,2.8291,2.8291,2.8291,2.8291,2.8291,2.8291,2.8291,2.8291,2.8291,2.8291,2.8291,2.8291,2.8291,2.8291,2.8291,2.8291,2.8291,2.8291,2.8291,2.8291,2.9102,3.0317,3.2028,3.3155,3.4471,3.6156,3.6358,3.6358,3.6358,3.6358,3.6358,3.6358,3.6358,3.6358,3.6358,3.7769,3.8917,3.9899,4.1253,4.2452,4.325,4.3329,4.3329,4.3329,4.3329,4.3329,4.3329,4.3329,4.4036,0.0,0.0,0.0,0.0,0.0,0.0,0.0,0.0,0.0,0.0,0.0,0.0,0.0,0.0,0.0,0.0,0.0,0.0,0.0,0.0,0.0,0.0,0.0,0.0,0.0,0.0,0.0,0.0,2.2589,2.1805,2.1699,2.0371,1.9591,1.9591,1.9591,1.9475,1.9475,1.9482,1.9366,1.9366,1.9366,1.9482,1.9475,1.9475,2.0371,2.1919,2.3263,2.482,2.6155,2.6155,2.7051,2.8291,2.8291,2.8291,2.8291,2.8291,2.8291,2.8291,2.8291,2.8291,2.8291,2.8291,2.8291,2.8291,2.8291,2.8291,2.8291,2.8291,2.8291,2.8291,2.8291,2.8291,2.8291,2.8291,2.8291,2.8291,2.8291,2.8291,2.8291,2.8291,2.8291,2.8291,2.8291,2.8398,2.9313,3.1938,3.2331,3.3342,3.6061,3.6358,3.6358,3.6358,3.6358,3.6358,3.6358,3.6358,3.6358,3.6358,3.8572,3.9812,3.9899,4.2044,4.325,4.3329,4.3329,4.3329,4.3329,4.3329,4.3329,4.3329,4.3329,4.3329,0.0,0.0,0.0,0.0,0.0,0.0,0.0,0.0,0.0,0.0,0.0,0.0,0.0,0.0,0.0,0.0,0.0,0.0,0.0,0.0,0.0,0.0,0.0,0.0,0.0,0.0,0.0,0.0,0.0,2.1145,2.0256,1.9707,1.9366,1.9366,1.9366,1.9366,1.9366,1.9366,1.9366,1.9366,1.9366,1.9366,1.9366,1.9366,1.9707,2.0256,2.0709,2.2379,2.471,2.5709,2.6381,2.6943,2.795,2.8291,2.8291,2.8291,2.8291,2.8291,2.8291,2.8291,2.8291,2.8291,2.8291,2.8291,2.8291,2.8291,2.8291,2.8291,2.8291,2.8291,2.8291,2.8291,2.8291,2.8291,2.8291,2.8291,2.8291,2.8291,2.8291,2.8291,2.8291,2.8291,2.8291,2.8291,2.9207,3.1927,3.2331,3.3342,3.6061,3.6358,3.6358,3.6358,3.6358,3.6358,3.6358,3.6358,3.6358,3.6358,3.7163,3.8129,3.9219,4.0055,4.0972,4.2087,4.2087,4.2491,4.3329,4.3329,4.3329,4.3329,4.3329,4.363,0.0,0.0,0.0,0.0,0.0,0.0,0.0,0.0,0.0,0.0,0.0,0.0,0.0,0.0,0.0,0.0,0.0,0.0,0.0,0.0,0.0,0.0,0.0,0.0,0.0,0.0,0.0,0.0,0.0,0.0,1.9482,1.9366,1.9366,1.9366,1.9366,1.9366,1.9366,1.9366,1.9366,1.9366,1.9366,1.9366,1.9366,1.9366,1.9366,1.9366,1.9366,2.0823,2.3151,2.4147,2.4931,2.5489,2.6943,2.7511,2.7618,2.8067,2.8291,2.8291,2.8291,2.8291,2.8291,2.8291,2.8291,2.8291,2.8291,2.8291,2.8291,2.8291,2.8291,2.8291,2.8291,2.8291,2.8291,2.8291,2.8291,2.8291,2.8291,2.8291,2.8291,2.8291,2.8291,2.8291,2.8291,2.8291,2.9207,3.1927,3.2331,3.3342,3.6061,3.6358,3.6358,3.6358,3.6358,3.6358,3.6358,3.6358,3.6282,3.6094,3.643,3.731,3.8585,3.8992,3.9891,4.1384,4.1384,4.1803,4.2671,4.2671,4.2671,4.2671,4.2671,4.3182,0.0,0.0,0.0,0.0,0.0,0.0,0.0,0.0,0.0,0.0,0.0,0.0,0.0,0.0,0.0,0.0,0.0,0.0,0.0,0.0,0.0,0.0,0.0,0.0,0.0,0.0,0.0,0.0,1.9366,1.9366,1.9366,1.9366,1.9366,1.9366,1.9366,1.9366,1.9366,1.9366,1.9366,1.9366,1.9366,1.9366,1.9366,1.9366,1.9366,1.9366,1.9366,2.0256,2.1586,2.1586,2.2484,2.3933,2.538,2.6036,2.6155,2.7618,2.8184,2.8291,2.8291,2.8291,2.8291,2.8291,2.8291,2.8291,2.8291,2.8291,2.8291,2.8291,2.8291,2.8291,2.8291,2.8291,2.8291,2.8291,2.8291,2.8291,2.8291,2.8291,2.8291,2.8291,2.8291,2.8291,2.8291,2.8291,2.9207,3.1927,3.2331,3.3342,3.6061,3.6358,3.6358,3.6358,3.6358,3.6358,3.6332,3.6332,3.6107,3.5554,3.6548,3.7471,3.7965,3.9098,4.0251,4.1324,4.1324,4.1324,4.1324,4.1354,4.1384,4.1384,4.1384,4.1923,2.1494,0.0,0.0,0.0,0.0,0.0,0.0,0.0,0.0,0.0,0.0,0.0,0.0,0.0,0.0,0.0,0.0,0.0,0.0,0.0,0.0,0.0,0.0,0.0,0.0,0.0,0.0,0.0,1.9366,1.9366,1.9366,1.9366,1.9366,1.9366,1.9366,1.9366,1.9366,1.9366,1.9366,1.9366,1.9366,1.9366,1.9366,1.9366,1.9366,1.9366,1.9366,1.9591,2.0148,2.1145,2.1805,2.2363,2.3813,2.4488,2.4488,2.4939,2.5717,2.6717,2.6717,2.7394,2.8291,2.8291,2.8291,2.8291,2.8291,2.8291,2.8291,2.8291,2.8291,2.8291,2.8291,2.8291,2.8291,2.8291,2.8291,2.8291,2.8291,2.8291,2.8291,2.8291,2.8291,2.8291,2.8291,2.8291,2.9207,3.1927,3.2331,3.3342,3.6061,3.6358,3.6358,3.6358,3.6358,3.6194,3.5805,3.5768,3.5529,3.4989,3.5198,3.6044,3.7263,3.7643,3.8496,3.9905,3.9963,3.9963,3.9963,4.092,4.1384,4.1384,4.1384,4.2276,0.0,0.0,0.0,0.0,0.0,0.0,2.1552,2.1154,2.1261,0.0,0.0,0.0,0.0,0.0,0.0,0.0,0.0,0.0,0.0,0.0,0.0,0.0,0.0,0.0,0.0,1.9366,1.9366,1.9366,1.9366,1.9366,1.9366,1.9366,1.9366,1.9366,1.9366,1.9366,1.9366,1.9366,1.9366,1.9366,1.9366,1.9366,1.9366,1.9366,1.9366,1.9366,1.9366,1.9366,1.9482,2.0371,2.0702,2.0809,2.2258,2.2927,2.2927,2.3599,2.482,2.6155,2.6155,2.7051,2.8291,2.8291,2.8291,2.8291,2.8291,2.8291,2.8291,2.8291,2.8291,2.8291,2.8291,2.8291,2.8291,2.8291,2.8291,2.8291,2.8291,2.8291,2.8291,2.8291,2.8291,2.8291,2.8291,2.8291,2.9006,3.1122,3.1927,3.3044,3.5259,3.6061,3.6358,3.6358,3.6157,3.5893,3.5567,3.5328,3.4964,3.4412,3.4374,3.4876,3.6076,3.6523,3.7388,3.8708,3.9177,3.9424,3.9424,4.0187,4.0561,4.0561,4.0561,4.129,0.0,0.0,0.0,0.0,0.0,0.0,2.0222,2.0313,2.0533,2.1511,0.0,0.0,0.0,0.0,0.0,0.0,0.0,0.0,0.0,0.0,0.0,0.0,0.0,0.0,1.9366,1.9366,1.9366,1.9366,1.9366,1.9366,1.9366,1.9366,1.9366,1.9366,1.9366,1.9366,1.9366,1.9366,1.9366,1.9366,1.9366,1.9366,1.9366,1.9366,1.9366,1.9366,1.9366,1.9366,1.9366,1.9366,1.9366,1.9475,2.0809,2.1365,2.1472,2.2822,2.4267,2.5599,2.5818,2.6834,2.8067,2.8291,2.8291,2.8291,2.8291,2.8291,2.8291,2.8291,2.8291,2.8291,2.8291,2.8291,2.8291,2.8291,2.8291,2.8291,2.8291,2.8291,2.8291,2.8291,2.8291,2.8291,2.8291,2.8291,2.8804,3.012,3.1327,3.2644,3.4178,3.5414,3.6163,3.627,3.578,3.5429,3.5366,3.4914,3.4399,3.3847,3.3809,3.4079,3.469,3.5668,3.6682,3.7753,3.887,3.9424,3.9424,3.9424,3.9424,3.9424,3.9424,3.9935,0.0,0.0,0.0,0.0,0.0,0.0,1.8941,1.846,1.8557,0.0,0.0,0.0,0.0,0.0,0.0,0.0,0.0,0.0,0.0,0.0,0.0,0.0,0.0,0.0,1.9366,1.9366,1.9366,1.9366,1.9366,1.9366,1.9366,1.9366,1.9366,1.9366,1.9366,1.9366,1.9366,1.9366,1.9366,1.9366,1.9366,1.9366,1.9366,1.9366,1.9366,1.9366,1.9366,1.9366,1.9366,1.9366,1.9366,1.9482,1.97,1.9815,1.9809,2.0148,2.1145,2.2702,2.3822,2.527,2.6717,2.795,2.8291,2.8291,2.8291,2.8291,2.8291,2.8291,2.8291,2.8291,2.8291,2.8291,2.8291,2.8291,2.8291,2.8291,2.8291,2.8291,2.8291,2.8291,2.8291,2.8291,2.8291,2.8291,2.8804,3.012,3.0514,3.1633,3.408,3.4198,3.4506,3.5612,3.5215,3.47,3.4261,3.4123,3.3822,3.3269,3.3244,3.3671,3.4677,3.5668,3.6682,3.7753,3.887,3.9424,3.9424,3.9424,3.9424,3.9424,3.9424,4.0255,0.0,0.0,0.0,1.7918,0.0,0.0,0.0,1.7434,1.7633,1.9347,0.0,0.0,0.0,0.0,0.0,0.0,0.0,0.0,0.0,0.0,0.0,0.0,0.0,0.0,1.9366,1.9366,1.9366,1.9366,1.9366,1.9366,1.9366,1.9366,1.9366,1.9366,1.9366,1.9366,1.9366,1.9366,1.9366,1.9366,1.9366,1.9366,1.9366,1.9366,1.9366,1.9366,1.9366,1.9366,1.9366,1.9366,1.9366,1.9366,1.9366,1.9366,1.9366,1.9366,2.0364,2.1692,2.2484,2.4147,2.6264,2.6943,2.7726,2.8291,2.8291,2.8291,2.8291,2.8291,2.8291,2.8291,2.8291,2.8291,2.8291,2.8291,2.8291,2.8291,2.8291,2.8291,2.8291,2.8291,2.8291,2.8291,2.8291,2.8291,2.8495,2.9207,2.9911,3.0749,3.1928,3.285,3.3672,3.4193,3.4264,3.4198,3.3922,3.3646,3.337,3.3093,3.3081,3.3313,3.3869,3.5346,3.693,3.8546,3.9104,3.9424,3.9424,3.9424,3.9424,3.9424,3.9424,4.013,0.0,0.0,0.0,0.0,0.0,1.6433,0.0,0.0,0.0,1.7535,0.0,0.0,0.0,0.0,0.0,0.0,0.0,0.0,0.0,0.0,0.0,0.0,0.0,0.0,0.0,1.9366,1.9366,1.9366,1.9366,1.9366,1.9366,1.9366,1.9366,1.9366,1.9366,1.9366,1.9366,1.9366,1.9366,1.9366,1.9366,1.9366,1.9366,1.9366,1.9366,1.9366,1.9366,1.9366,1.9366,1.9366,1.9366,1.9366,1.9366,1.9366,1.9366,1.9366,2.0141,2.1252,2.1472,2.3143,2.5371,2.5927,2.706,2.8291,2.8291,2.8291,2.8291,2.8291,2.8291,2.8291,2.8291,2.8291,2.8291,2.8291,2.8291,2.8291,2.8291,2.8291,2.8291,2.8291,2.8291,2.8291,2.8291,2.8291,2.8291,2.8291,2.9137,2.9859,2.9992,3.1641,3.2913,3.308,3.3501,3.3746,3.3746,3.3332,3.3081,3.3081,3.3081,3.3081,3.3081,3.5116,3.7238,3.9337,3.9424,3.9424,3.9424,3.9424,3.9424,3.9424,3.9424,3.992,0.0,0.0,0.0,0.0,1.6538,0.0,0.0,0.0,1.7542,1.7575,0.0,0.0,0.0,0.0,0.0,0.0,0.0,0.0,0.0,0.0,0.0,0.0,0.0,0.0,0.0,1.9366,1.9366,1.9366,1.9366,1.9366,1.9366,1.9366,1.9366,1.9366,1.9366,1.9366,1.9366,1.9366,1.9366,1.9366,1.9366,1.9366,1.9366,1.9366,1.9366,1.9366,1.9366,1.9366,1.9366,1.9366,1.9366,1.9366,1.9366,1.9366,1.9366,1.9366,1.9482,1.9815,2.1145,2.1805,2.2589,2.5261,2.706,2.8291,2.8291,2.8291,2.8291,2.8291,2.8291,2.8291,2.8291,2.8291,2.8291,2.8291,2.8291,2.8291,2.8291,2.8291,2.8291,2.8291,2.8291,2.8291,2.8291,2.8291,2.8291,2.8291,2.818,2.8808,3.102,3.0734,3.131,3.3529,3.3408,3.3169,3.3169,3.3119,3.3081,3.3081,3.3081,3.3081,3.3081,3.5116,3.7238,3.9337,3.9424,3.9424,3.9424,3.9424,3.9424,3.9424,3.9424,4.0255,0.0,0.0,0.0,0.0,0.0,0.0,0.0,0.0,1.7582,0.0,0.0,0.0,0.0,0.0,0.0,0.0,0.0,0.0,0.0,0.0,0.0,0.0,0.0,0.0,0.0,0.0,0.0,0.0,1.9366,1.9366,1.9366,1.9366,1.9366,1.9366,1.9366,1.9366,1.9366,1.9366,1.9366,1.9366,1.9366,1.9366,1.9366,1.9366,1.9366,1.9366,1.9366,1.9366,1.9366,1.9366,1.9366,1.9366,1.9366,1.9366,1.9366,1.9366,1.9366,1.9482,2.0148,2.0923,2.1919,2.4044,2.516,2.5827,2.6717,2.7051,2.7168,2.8067,2.8291,2.8291,2.8291,2.8291,2.8291,2.8291,2.8291,2.8291,2.8291,2.8291,2.8291,2.8291,2.8291,2.8291,2.8291,2.8291,2.8203,2.7969,2.7783,2.7885,2.8435,2.9342,3.0292,3.1231,3.2386,3.3081,3.3081,3.3081,3.3081,3.3081,3.3081,3.3628,3.487,3.5734,3.7238,3.9337,3.9424,3.9424,3.9424,3.9424,3.9424,3.9424,3.9424,3.9809,1.7829,0.0,0.0,0.0,0.0,0.0,0.0,0.0,0.0,0.0,0.0,0.0,0.0,0.0,0.0,0.0,0.0,0.0,0.0,0.0,0.0,0.0,0.0,0.0,0.0,0.0,0.0,1.9366,1.9366,1.9366,1.9366,1.9366,1.9366,1.9366,1.9366,1.9366,1.9366,1.9366,1.9366,1.9366,1.9366,1.9366,1.9366,1.9366,1.9366,1.9366,1.9366,1.9366,1.9366,1.9366,1.9366,1.9366,1.9366,1.9366,1.9366,1.9366,1.9366,1.9366,1.9366,2.0371,2.1805,2.2814,2.3487,2.4044,2.5151,2.5709,2.6264,2.7394,2.795,2.8291,2.8291,2.8291,2.8291,2.8291,2.8291,2.8291,2.8291,2.8291,2.8291,2.8291,2.8291,2.8252,2.8135,2.8125,2.8018,2.7715,2.7471,2.7182,2.6933,2.8615,2.9881,2.9897,3.1789,3.3081,3.3081,3.3081,3.3081,3.3081,3.3081,3.4024,3.6119,3.6198,3.7238,3.9337,3.9424,3.9424,3.9424,3.9424,3.932,3.914,3.9334,3.9553,0.0,0.0,0.0,1.7061,0.0,0.0,0.0,0.0,1.7582,0.0,0.0,0.0,0.0,0.0,0.0,0.0,0.0,0.0,0.0,0.0,0.0,0.0,0.0,0.0,0.0,0.0,1.9366,1.9366,1.9366,1.9366,1.9366,1.9366,1.9366,1.9366,1.9366,1.9366,1.9366,1.9366,1.9366,1.9366,1.9366,1.9366,1.9366,1.9366,1.9366,1.9366,1.9366,1.9366,1.9366,1.9366,1.9366,1.9366,1.9366,1.9366,1.9366,1.9366,1.9366,1.9366,1.9366,2.0371,2.1586,2.1692,2.2589,2.3822,2.3822,2.4931,2.6155,2.6155,2.7168,2.8291,2.8291,2.8291,2.8291,2.8291,2.8291,2.8291,2.8291,2.8291,2.8291,2.8291,2.8291,2.8164,2.7754,2.7685,2.7685,2.7666,2.6963,2.6894,2.798,2.8892,2.9875,3.1033,3.2339,3.3081,3.3081,3.3081,3.3081,3.3081,3.3081,3.4024,3.6119,3.6198,3.7238,3.9337,3.9424,3.9424,3.9424,3.9424,3.908,3.8437,3.911,3.9864,0.0,0.0,1.7308,1.7415,0.0,0.0,0.0,0.0,0.0,0.0,0.0,0.0,0.0,0.0,0.0,0.0,0.0,0.0,0.0,0.0,0.0,0.0,0.0,0.0,0.0,0.0,0.0,1.9366,1.9366,1.9366,1.9366,1.9366,1.9366,1.9366,1.9366,1.9366,1.9366,1.9366,1.9366,1.9366,1.9366,1.9366,1.9366,1.9366,1.9366,1.9366,1.9366,1.9366,1.9366,1.9366,1.9366,1.9366,1.9366,1.9366,1.9366,1.9366,1.9366,1.9366,1.9366,1.97,2.0148,2.0148,2.0479,2.1045,2.204,2.2702,2.359,2.559,2.649,2.7051,2.8067,2.8291,2.8291,2.8291,2.8291,2.8291,2.8291,2.8291,2.8291,2.8291,2.8291,2.8164,2.7744,2.7432,2.7139,2.6865,2.6572,2.6478,2.6543,2.7494,2.868,2.9852,3.1134,3.2152,3.3068,3.3081,3.3081,3.3081,3.3081,3.3713,3.5129,3.5814,3.6655,3.7652,3.835,3.8527,3.8093,3.8093,3.7973,3.7749,3.7973,3.8202,1.7509,1.7442,0.0,1.7716,1.7749,0.0,1.7883,0.0,0.0,0.0,0.0,0.0,0.0,0.0,0.0,0.0,0.0,0.0,0.0,0.0,0.0,0.0,0.0,0.0,0.0,0.0,1.9366,1.9366,1.9366,1.9366,0.0,0.0,1.9366,1.9366,1.9366,1.9366,1.9366,1.9366,1.9366,1.9366,1.9366,1.9366,1.9366,1.9366,1.9366,1.9366,1.9366,1.9366,1.9366,1.9366,1.9366,1.9366,1.9366,1.9366,1.9366,1.9366,1.9366,1.9366,1.9366,1.9366,1.9366,1.9366,1.9366,1.9591,2.0479,2.1137,2.2138,2.4599,2.5709,2.649,2.795,2.8291,2.8291,2.8291,2.8291,2.8291,2.8291,2.8291,2.8291,2.8291,2.8174,2.793,2.751,2.708,2.6699,2.6426,2.626,2.6055,2.5771,2.6849,2.8049,2.9315,3.0496,3.1689,3.2982,3.3081,3.2993,3.278,3.2767,3.3161,3.407,3.5042,3.5941,3.6864,3.763,3.7943,3.7764,3.7524,3.73,3.709,3.709,3.6956]}]]